[[{"header":{"parameterUnit":"m.s-1","parameterCategory":1,"la1":30.6,"la2":29.2853,"lo1":-89.7004,"lo2":-87.6739,"dy":0.0162,"dx":0.0183,"nx":112,"ny":82,"refTime":"2024-08-30T18:00:00:Z","depth":0,"parameterNumber":2,"parameterNumberName":"U-component_of_WINDS"},"data":[0.0,0.0,0.0,0.0,0.0,0.0,0.0,0.0,0.0,0.0,0.0,0.0,0.0,0.0,0.0,0.0,0.0,0.0,0.0,0.0,0.0,0.0,0.0,0.0,0.0,0.0,0.0,0.0,0.0,0.0,0.0,0.0,0.0,0.0,0.0,0.0,0.0,0.0,0.0,0.0,0.0,0.0,0.0,0.0,0.0,0.0,0.0,0.0,0.0,0.0,0.0,0.0,0.0,0.0,0.0,0.0,0.0,0.0,0.0,0.0,0.0,0.0,0.0,0.0,0.0,0.0,0.0,0.0,0.0,0.0,0.0,0.0,0.0,0.0,0.0,0.0,0.0,0.0,0.0,0.0,0.0,0.0,0.0,0.0,0.0,0.0,0.0,0.0,0.0,0.0,-3.75,-4.0569,-4.2701,-4.3499,-4.2497,-4.1347,-3.8858,-3.4561,0.0,0.0,0.0,0.0,0.0,0.0,0.0,0.0,0.0,0.0,0.0,0.0,0.0,0.0,0.0,0.0,0.0,0.0,0.0,0.0,0.0,0.0,0.0,0.0,0.0,0.0,0.0,0.0,0.0,0.0,0.0,0.0,0.0,0.0,0.0,0.0,0.0,0.0,0.0,0.0,0.0,0.0,0.0,0.0,0.0,0.0,0.0,0.0,0.0,0.0,0.0,0.0,0.0,0.0,0.0,0.0,0.0,0.0,0.0,0.0,0.0,0.0,0.0,0.0,0.0,0.0,0.0,0.0,0.0,0.0,0.0,0.0,0.0,0.0,0.0,0.0,0.0,0.0,0.0,0.0,0.0,0.0,0.0,0.0,0.0,0.0,0.0,0.0,0.0,0.0,0.0,0.0,0.0,0.0,0.0,0.0,0.0,0.0,0.0,0.0,0.0,0.0,0.0,0.0,-3.8002,-4.2242,-4.2393,-4.1993,-4.1551,-4.0453,-3.8225,-3.4524,0.0,0.0,0.0,0.0,0.0,0.0,0.0,0.0,0.0,0.0,0.0,0.0,0.0,0.0,0.0,0.0,0.0,0.0,0.0,0.0,0.0,0.0,0.0,0.0,0.0,0.0,0.0,0.0,0.0,0.0,0.0,0.0,0.0,0.0,0.0,0.0,0.0,0.0,0.0,0.0,0.0,0.0,0.0,0.0,0.0,0.0,0.0,0.0,0.0,0.0,0.0,0.0,0.0,0.0,0.0,0.0,0.0,0.0,0.0,0.0,0.0,0.0,0.0,0.0,0.0,0.0,0.0,0.0,0.0,0.0,0.0,0.0,0.0,0.0,0.0,0.0,0.0,0.0,0.0,0.0,0.0,0.0,0.0,0.0,0.0,0.0,0.0,0.0,0.0,0.0,0.0,0.0,0.0,0.0,0.0,0.0,0.0,0.0,0.0,0.0,0.0,0.0,0.0,-3.648,-3.8821,-4.2197,-4.1796,-4.1178,-4.0837,-3.9914,-3.7816,-3.4253,-3.2366,0.0,0.0,0.0,0.0,0.0,0.0,0.0,0.0,0.0,0.0,0.0,0.0,0.0,0.0,0.0,0.0,0.0,0.0,0.0,0.0,0.0,0.0,0.0,0.0,0.0,0.0,0.0,0.0,0.0,0.0,0.0,0.0,0.0,0.0,0.0,0.0,0.0,0.0,0.0,0.0,0.0,0.0,0.0,0.0,0.0,0.0,0.0,0.0,0.0,0.0,0.0,0.0,0.0,0.0,0.0,0.0,0.0,0.0,0.0,0.0,0.0,0.0,0.0,0.0,0.0,0.0,0.0,0.0,0.0,0.0,0.0,0.0,0.0,0.0,0.0,0.0,0.0,0.0,0.0,0.0,0.0,0.0,0.0,0.0,0.0,0.0,0.0,0.0,0.0,0.0,0.0,0.0,0.0,0.0,0.0,0.0,0.0,0.0,0.0,0.0,0.0,0.0,-3.8221,-3.9543,-4.1609,-4.1088,-4.039,-3.9856,-3.8846,-3.6777,-3.3336,-3.1424,0.0,0.0,0.0,0.0,0.0,0.0,0.0,0.0,0.0,0.0,0.0,0.0,0.0,0.0,0.0,0.0,0.0,0.0,0.0,0.0,0.0,0.0,0.0,0.0,0.0,0.0,0.0,0.0,0.0,0.0,0.0,0.0,0.0,0.0,0.0,0.0,0.0,0.0,0.0,0.0,0.0,0.0,0.0,0.0,0.0,0.0,0.0,0.0,0.0,0.0,0.0,0.0,0.0,0.0,0.0,0.0,0.0,0.0,0.0,0.0,0.0,0.0,0.0,0.0,0.0,0.0,0.0,0.0,0.0,0.0,0.0,0.0,0.0,0.0,0.0,0.0,0.0,0.0,0.0,0.0,0.0,0.0,0.0,0.0,0.0,0.0,0.0,0.0,0.0,0.0,0.0,0.0,0.0,0.0,0.0,0.0,0.0,0.0,0.0,0.0,0.0,0.0,-3.7983,-3.9894,-4.088,-4.0207,-3.9255,-3.8182,-3.664,-3.4426,-3.1288,-2.8897,0.0,0.0,0.0,0.0,0.0,0.0,0.0,0.0,0.0,0.0,0.0,0.0,0.0,0.0,0.0,0.0,0.0,0.0,0.0,0.0,0.0,0.0,0.0,0.0,0.0,0.0,0.0,0.0,0.0,0.0,0.0,0.0,0.0,0.0,0.0,0.0,0.0,0.0,0.0,0.0,0.0,0.0,0.0,0.0,0.0,0.0,0.0,0.0,0.0,0.0,0.0,0.0,0.0,0.0,0.0,0.0,0.0,0.0,0.0,0.0,0.0,0.0,0.0,0.0,0.0,0.0,0.0,0.0,0.0,0.0,0.0,0.0,0.0,0.0,0.0,0.0,0.0,0.0,0.0,0.0,0.0,0.0,0.0,0.0,0.0,0.0,0.0,0.0,0.0,0.0,0.0,0.0,0.0,0.0,0.0,0.0,0.0,0.0,0.0,0.0,0.0,0.0,-3.6268,-3.8061,0.0,-3.879,-3.8123,-3.7687,-3.6639,-3.454,-3.1121,0.0,0.0,0.0,0.0,0.0,0.0,0.0,0.0,0.0,0.0,0.0,0.0,0.0,0.0,0.0,0.0,0.0,0.0,0.0,0.0,0.0,0.0,0.0,0.0,0.0,0.0,0.0,0.0,0.0,0.0,0.0,0.0,0.0,0.0,0.0,0.0,0.0,0.0,0.0,0.0,0.0,0.0,0.0,0.0,0.0,0.0,0.0,0.0,0.0,0.0,0.0,0.0,0.0,0.0,0.0,0.0,0.0,0.0,0.0,0.0,0.0,0.0,0.0,0.0,0.0,0.0,0.0,0.0,0.0,0.0,0.0,0.0,0.0,0.0,0.0,0.0,0.0,0.0,0.0,0.0,0.0,0.0,0.0,0.0,0.0,0.0,0.0,0.0,0.0,0.0,0.0,0.0,0.0,0.0,0.0,0.0,0.0,0.0,0.0,0.0,0.0,0.0,-3.3109,-3.555,-3.7323,0.0,-3.7747,-3.7164,-3.6373,-3.5243,-3.3197,-2.9994,0.0,0.0,0.0,0.0,0.0,0.0,0.0,0.0,0.0,0.0,0.0,0.0,0.0,0.0,0.0,0.0,0.0,0.0,0.0,0.0,0.0,0.0,0.0,0.0,0.0,0.0,0.0,0.0,0.0,0.0,0.0,0.0,0.0,0.0,0.0,0.0,0.0,0.0,0.0,0.0,0.0,0.0,0.0,0.0,0.0,0.0,0.0,0.0,0.0,0.0,0.0,0.0,0.0,0.0,0.0,0.0,0.0,0.0,0.0,0.0,0.0,0.0,0.0,0.0,0.0,0.0,0.0,0.0,0.0,0.0,0.0,0.0,0.0,0.0,0.0,0.0,0.0,0.0,0.0,0.0,0.0,0.0,0.0,0.0,0.0,0.0,0.0,0.0,0.0,0.0,0.0,0.0,0.0,0.0,0.0,0.0,0.0,0.0,0.0,0.0,0.0,0.0,-3.2491,-3.6142,-3.8186,-3.693,-3.7195,-3.6443,-3.3911,-3.1984,-2.9901,0.0,0.0,0.0,0.0,0.0,0.0,0.0,0.0,0.0,0.0,0.0,0.0,0.0,0.0,0.0,0.0,0.0,0.0,0.0,0.0,0.0,0.0,0.0,0.0,0.0,0.0,0.0,0.0,0.0,0.0,0.0,0.0,0.0,0.0,0.0,0.0,0.0,0.0,0.0,0.0,0.0,0.0,0.0,0.0,0.0,0.0,0.0,0.0,0.0,0.0,0.0,0.0,0.0,0.0,0.0,0.0,0.0,0.0,0.0,0.0,0.0,0.0,0.0,0.0,0.0,0.0,0.0,0.0,0.0,0.0,0.0,0.0,0.0,0.0,0.0,0.0,0.0,0.0,0.0,0.0,0.0,0.0,0.0,0.0,0.0,0.0,0.0,0.0,0.0,0.0,0.0,0.0,0.0,0.0,0.0,0.0,0.0,0.0,0.0,0.0,0.0,0.0,0.0,-3.1958,-3.4703,-3.6443,-3.6256,-3.5395,-3.4521,-3.3754,-3.22,-3.0158,-2.7563,0.0,0.0,0.0,0.0,0.0,0.0,0.0,0.0,0.0,0.0,0.0,0.0,0.0,0.0,0.0,0.0,0.0,0.0,0.0,0.0,0.0,0.0,0.0,0.0,0.0,0.0,0.0,0.0,0.0,0.0,0.0,0.0,0.0,0.0,0.0,0.0,0.0,0.0,0.0,0.0,0.0,0.0,0.0,0.0,0.0,0.0,0.0,0.0,0.0,0.0,0.0,0.0,0.0,0.0,0.0,0.0,0.0,0.0,0.0,0.0,0.0,0.0,0.0,0.0,0.0,0.0,0.0,0.0,0.0,0.0,0.0,0.0,0.0,0.0,0.0,0.0,0.0,0.0,0.0,0.0,0.0,0.0,0.0,0.0,0.0,0.0,0.0,0.0,0.0,0.0,0.0,0.0,0.0,0.0,0.0,0.0,0.0,0.0,0.0,0.0,0.0,0.0,-3.1127,-3.3777,-3.5513,-3.5291,-3.4341,-3.3423,-3.2754,-3.1723,-3.0099,-2.7716,0.0,0.0,0.0,0.0,0.0,0.0,0.0,0.0,0.0,0.0,0.0,0.0,0.0,0.0,0.0,0.0,0.0,0.0,0.0,0.0,0.0,0.0,0.0,0.0,0.0,0.0,0.0,0.0,0.0,0.0,0.0,0.0,0.0,0.0,0.0,0.0,0.0,0.0,0.0,0.0,0.0,0.0,0.0,0.0,0.0,0.0,0.0,0.0,0.0,0.0,0.0,0.0,0.0,0.0,0.0,0.0,0.0,0.0,0.0,0.0,0.0,0.0,0.0,0.0,0.0,0.0,0.0,0.0,0.0,0.0,0.0,0.0,0.0,0.0,0.0,0.0,0.0,0.0,0.0,0.0,0.0,0.0,0.0,0.0,0.0,0.0,0.0,0.0,0.0,0.0,0.0,0.0,0.0,0.0,0.0,0.0,0.0,0.0,0.0,0.0,0.0,0.0,-3.0214,-3.3162,-3.4954,-3.4206,-3.372,-3.2843,-3.1339,-3.086,-2.985,-2.8028,0.0,0.0,0.0,0.0,0.0,0.0,0.0,0.0,0.0,0.0,0.0,0.0,0.0,0.0,0.0,0.0,0.0,0.0,0.0,0.0,0.0,0.0,0.0,0.0,0.0,0.0,0.0,0.0,0.0,0.0,0.0,0.0,0.0,0.0,0.0,0.0,0.0,0.0,0.0,0.0,0.0,0.0,0.0,0.0,0.0,0.0,0.0,0.0,0.0,0.0,0.0,0.0,0.0,0.0,0.0,0.0,0.0,0.0,0.0,0.0,-1.9124,0.0,0.0,0.0,0.0,0.0,0.0,0.0,0.0,0.0,0.0,0.0,0.0,0.0,0.0,0.0,0.0,0.0,0.0,0.0,0.0,0.0,0.0,0.0,0.0,0.0,0.0,0.0,0.0,0.0,0.0,0.0,0.0,0.0,0.0,0.0,0.0,0.0,0.0,0.0,0.0,0.0,-3.0264,-3.1708,-3.287,-3.3502,-3.2468,-3.1579,-3.1227,-3.0592,-2.9797,-2.8807,-2.73,0.0,0.0,0.0,0.0,0.0,0.0,0.0,0.0,0.0,0.0,0.0,0.0,0.0,0.0,0.0,0.0,0.0,0.0,0.0,0.0,0.0,0.0,0.0,0.0,0.0,0.0,0.0,0.0,0.0,0.0,0.0,0.0,0.0,0.0,0.0,0.0,0.0,0.0,0.0,0.0,0.0,0.0,0.0,0.0,0.0,0.0,0.0,0.0,0.0,0.0,0.0,0.0,0.0,0.0,0.0,0.0,0.0,0.0,0.0,0.0,-1.91,0.0,0.0,0.0,0.0,0.0,0.0,0.0,0.0,0.0,0.0,0.0,0.0,0.0,0.0,0.0,0.0,0.0,0.0,0.0,0.0,0.0,0.0,0.0,0.0,0.0,0.0,0.0,0.0,0.0,0.0,0.0,0.0,0.0,0.0,0.0,0.0,0.0,0.0,0.0,0.0,-2.9659,-3.0971,-3.2089,-3.2791,-3.1867,-3.119,-3.119,-3.0852,-3.0311,-2.9567,-2.8433,0.0,0.0,0.0,0.0,0.0,0.0,0.0,0.0,0.0,0.0,0.0,0.0,0.0,0.0,0.0,0.0,0.0,0.0,0.0,0.0,0.0,0.0,0.0,0.0,0.0,0.0,0.0,0.0,0.0,0.0,0.0,0.0,0.0,0.0,0.0,0.0,0.0,0.0,0.0,0.0,0.0,0.0,0.0,0.0,0.0,0.0,0.0,0.0,0.0,0.0,0.0,0.0,0.0,0.0,-2.1431,-2.2066,-2.1273,-2.1361,-2.2061,-2.0938,-2.0839,-2.1423,0.0,0.0,0.0,0.0,0.0,0.0,0.0,0.0,0.0,0.0,0.0,0.0,0.0,0.0,0.0,0.0,0.0,0.0,0.0,0.0,0.0,0.0,0.0,0.0,0.0,-3.1373,-3.1757,0.0,0.0,0.0,0.0,0.0,0.0,0.0,0.0,0.0,0.0,0.0,0.0,-2.9338,-3.0754,-3.1857,-3.2249,-3.165,-3.119,-3.119,-3.119,-3.0937,-3.0345,-2.96,-2.889,0.0,0.0,0.0,0.0,0.0,0.0,0.0,0.0,0.0,0.0,0.0,0.0,0.0,0.0,0.0,0.0,0.0,0.0,0.0,0.0,0.0,0.0,0.0,0.0,0.0,0.0,0.0,0.0,0.0,0.0,0.0,0.0,-2.2218,-2.4345,0.0,0.0,0.0,0.0,0.0,0.0,0.0,0.0,0.0,0.0,0.0,0.0,0.0,0.0,-2.4074,-2.4226,-2.3629,-2.2293,-2.264,-2.2846,-2.2912,-2.2464,-2.2494,-2.2926,-2.2367,0.0,-2.0687,-2.0143,0.0,0.0,0.0,0.0,0.0,0.0,0.0,0.0,0.0,0.0,0.0,0.0,0.0,0.0,0.0,0.0,0.0,0.0,0.0,0.0,0.0,0.0,-3.1135,-3.1262,-3.1949,-3.2458,0.0,-3.1444,-3.0705,-2.9884,0.0,0.0,0.0,0.0,0.0,0.0,0.0,0.0,-3.0651,-3.1131,-3.154,-3.2226,-3.165,-3.119,-3.119,-3.119,-3.1157,-3.1055,-3.0362,-2.9922,-2.9785,-2.8314,0.0,0.0,0.0,0.0,0.0,0.0,0.0,0.0,0.0,0.0,0.0,0.0,0.0,0.0,0.0,0.0,0.0,0.0,0.0,0.0,0.0,0.0,0.0,0.0,0.0,0.0,0.0,0.0,0.0,-2.2568,-2.3733,-2.4771,-2.5226,-2.5083,0.0,0.0,0.0,0.0,0.0,0.0,0.0,0.0,0.0,-2.9783,-2.8939,-2.7939,-2.6834,-2.5784,-2.443,-2.2818,-2.3013,-2.3091,-2.3091,-2.2906,-2.2916,-2.3081,-2.2896,-2.2539,-2.1963,-2.1299,-2.0771,-2.0361,0.0,0.0,0.0,0.0,0.0,-2.2344,-2.3759,0.0,0.0,0.0,0.0,0.0,0.0,0.0,0.0,0.0,0.0,0.0,0.0,0.0,0.0,-3.2049,-3.2612,-3.3098,-3.311,-3.2776,-3.2238,0.0,-3.1439,-3.1072,-2.9837,0.0,0.0,0.0,0.0,-2.9922,-3.0514,-3.1309,-3.1785,-3.1701,-3.1376,-3.119,-3.119,-3.119,-3.119,-3.119,-3.0903,-3.0717,-3.0717,-2.9685,-2.8755,0.0,0.0,0.0,0.0,0.0,0.0,0.0,0.0,0.0,0.0,0.0,0.0,0.0,0.0,0.0,0.0,0.0,0.0,0.0,0.0,0.0,0.0,0.0,0.0,0.0,0.0,0.0,0.0,-2.4395,-2.512,-2.5471,-2.6101,-2.6052,0.0,0.0,0.0,0.0,0.0,0.0,-3.1622,-3.2249,-3.2692,-3.2953,-3.1532,-3.0223,-2.9073,-2.7173,-2.5209,-2.3257,-2.3257,-2.3198,-2.3091,-2.3091,-2.3091,-2.3091,-2.3091,-2.3091,-2.3042,-2.2344,-2.1855,-2.1473,-2.1074,-2.1311,-2.1955,-2.2333,-2.2684,-2.3163,-2.4694,-2.4697,-2.4078,-2.4509,0.0,-2.3854,-2.4418,0.0,0.0,0.0,0.0,-2.9377,-3.0984,0.0,-3.2452,-3.2273,-3.2647,-3.2991,-3.2986,-3.3147,-3.3161,0.0,-3.2954,-3.265,-3.1012,0.0,0.0,0.0,0.0,-3.0803,-3.0445,-3.1375,-3.1823,-3.1275,-3.119,-3.119,-3.119,-3.119,-3.1131,-3.0975,-3.0975,-3.0898,-3.0757,-3.0219,-2.9568,-2.8834,0.0,0.0,0.0,0.0,0.0,0.0,0.0,0.0,0.0,0.0,0.0,0.0,0.0,0.0,0.0,0.0,0.0,0.0,0.0,0.0,0.0,0.0,0.0,0.0,0.0,0.0,0.0,0.0,0.0,-2.7062,-2.6785,0.0,0.0,0.0,0.0,-2.9674,-3.1112,-3.2896,-3.5123,-3.5857,-3.6098,-3.5812,-3.4738,-3.2658,-2.9517,-2.8334,-2.6429,-2.375,-2.375,-2.3545,-2.3091,-2.3091,-2.3091,-2.3091,-2.3091,-2.3091,-2.3062,-2.2656,-2.2471,-2.2402,-2.1982,-2.1858,-2.1899,-2.1928,-2.2205,-2.2708,-2.3857,-2.4136,-2.4271,-2.5845,-2.5952,-2.5816,-2.7588,-2.7419,0.0,0.0,-3.0291,-3.0982,-3.1085,-3.1805,-3.2333,-3.1705,-3.1585,-3.16,-3.1613,-3.2165,-3.2803,0.0,-3.3008,-3.2503,-3.2391,0.0,-3.0433,-3.1174,-3.0695,-3.0505,-3.1156,-3.1309,-3.131,-3.1216,-3.119,-3.119,-3.119,-3.119,-3.0975,-3.0393,-3.0351,-3.0102,-2.9518,-2.9464,-2.9089,-2.8345,-2.7582,0.0,0.0,0.0,0.0,0.0,0.0,0.0,0.0,0.0,0.0,0.0,0.0,0.0,0.0,0.0,0.0,0.0,0.0,0.0,0.0,0.0,0.0,0.0,0.0,0.0,0.0,0.0,0.0,-2.783,-2.7319,0.0,-2.6807,-2.6403,-2.7145,-2.9497,-3.0736,-3.2667,-3.5581,-3.5983,-3.6567,-3.7517,-3.5877,-3.3699,-3.1088,-2.9346,-2.7012,-2.4189,-2.3916,-2.3711,-2.3545,-2.3227,-2.3091,-2.3091,-2.3091,-2.3091,-2.3081,-2.2935,-2.2877,-2.2857,-2.2711,-2.2652,-2.2652,-2.2652,-2.274,-2.2953,-2.3365,-2.345,-2.3602,-2.4587,-2.5202,-2.58,-2.6844,-2.7374,-2.7965,-2.9666,-3.0381,-3.0822,-3.1557,-3.1982,-3.211,-3.1633,-3.1511,-3.1511,-3.1511,-3.1726,-3.1951,-3.2201,-3.2782,-3.3061,-3.2588,-3.2044,-3.1604,-3.1437,-3.1557,-3.1606,-3.1395,-3.1773,-3.2048,-3.1989,-3.1556,-3.1441,-3.1864,-3.1461,-3.0938,-3.0335,-3.0293,-3.0038,-2.9429,-2.9406,-2.9294,-2.9,-2.8291,-2.7195,0.0,0.0,0.0,0.0,0.0,0.0,0.0,0.0,0.0,0.0,0.0,0.0,0.0,0.0,0.0,0.0,0.0,0.0,0.0,0.0,0.0,0.0,0.0,0.0,0.0,0.0,-2.9071,-2.7916,-2.7469,-2.7069,-2.6665,-2.64,-2.7107,-2.9227,-3.0208,-3.2007,-3.4901,-3.561,-3.6618,-3.814,-3.6528,-3.4499,-3.2151,-3.0033,-2.7551,-2.4639,-2.4355,-2.4072,-2.3779,-2.3486,-2.3237,-2.3091,-2.3091,-2.3091,-2.3091,-2.3091,-2.3091,-2.3091,-2.3091,-2.3091,-2.3091,-2.3091,-2.3091,-2.3091,-2.3091,-2.3091,-2.3217,-2.401,-2.4751,-2.5495,-2.6283,-2.7239,-2.8312,-2.9327,-3.0149,-3.077,-3.1335,-3.1763,-3.1977,-3.1483,-3.1441,-3.1511,-3.1511,-3.1511,-3.1511,-3.1511,-3.2241,-3.2739,-3.2259,-3.2154,-3.1998,-3.1519,-3.1831,-3.1982,-3.1464,-3.183,-3.2097,-3.2073,-3.1639,-3.1428,-3.1634,-3.1207,-3.0578,-2.9755,-2.9695,-2.9429,-2.881,-2.8787,-2.8787,-2.8787,-2.831,-2.7666,-2.6865,0.0,0.0,0.0,0.0,0.0,0.0,0.0,0.0,0.0,0.0,0.0,0.0,0.0,0.0,0.0,0.0,0.0,0.0,0.0,0.0,0.0,0.0,0.0,-2.9013,-2.9239,-2.8988,-2.735,-2.7113,-2.7019,-2.6849,-2.6319,-2.6819,-2.8854,-2.9597,-3.0925,-3.3128,-3.4872,-3.637,-3.7648,-3.6643,-3.4969,-3.2621,-3.0491,-2.7979,-2.5183,-2.5125,-2.4675,-2.3828,-2.3818,-2.3574,-2.311,-2.311,-2.311,-2.3091,-2.3091,-2.3091,-2.3091,-2.3091,-2.3091,-2.3091,-2.3091,-2.3091,-2.3091,-2.3091,-2.3091,-2.3256,-2.4372,-2.4787,-2.4999,-2.6099,-2.7209,-2.8096,-2.8096,-2.9564,-3.1011,-3.0358,-3.1117,-3.1854,-3.1254,-3.1306,-3.1467,-3.1511,-3.1511,-3.1511,-3.1511,-3.1511,-3.1511,-3.1511,-3.1511,-3.1511,-3.1511,-3.1511,0.0,-3.1413,-3.14,-3.1415,-3.1451,-3.1413,-3.1166,-3.0527,-3.0432,-2.9872,-2.8612,-2.8503,-2.8238,-2.7655,-2.763,-2.7645,-2.766,-2.7645,-2.784,-2.8253,0.0,0.0,0.0,0.0,0.0,0.0,0.0,0.0,0.0,0.0,0.0,0.0,0.0,0.0,0.0,0.0,0.0,0.0,0.0,0.0,0.0,-3.0778,-3.1162,-2.951,-3.0697,-3.09,-2.8611,-2.7618,-2.653,-2.5001,-2.4243,-2.4089,-2.458,-2.5065,-2.6734,-2.9986,-3.0604,-3.2242,-3.5237,-3.4288,-3.3414,-3.2742,-3.0538,-2.8569,-2.6882,-2.568,-2.4988,-2.4707,-2.4385,-2.4014,-2.3613,-2.3613,-2.3428,-2.3091,-2.3091,-2.3091,-2.3091,-2.3091,-2.3091,-2.3091,-2.3091,-2.3091,-2.3091,-2.3091,-2.3091,-2.3135,-2.3464,-2.4135,-2.4872,-2.5168,-2.6603,-2.8096,-2.8096,-2.9108,-3.0189,-3.0189,-3.0157,-3.031,-3.0956,-3.0852,-3.0807,-3.138,-3.1511,-3.1511,-3.1511,-3.1511,-3.1511,-3.1511,-3.1511,-3.1511,-3.1511,-3.1511,0.0,-3.1468,-3.1481,-3.167,-3.2215,-3.1758,-3.1532,-3.19,-3.1007,-3.0062,-2.9279,-2.8766,-2.8443,-2.8319,-2.8323,-2.8547,-2.9052,-2.8562,-2.8625,0.0,0.0,0.0,0.0,0.0,0.0,0.0,0.0,0.0,0.0,0.0,0.0,0.0,0.0,0.0,0.0,0.0,0.0,0.0,0.0,0.0,0.0,-3.1728,-3.2107,-3.1013,-3.1904,-3.1693,-2.9019,-2.8119,-2.6729,-2.4174,-2.3565,-2.3059,-2.2441,-2.26,-2.3868,-2.6494,-2.7615,-2.9374,-3.1994,-3.2081,-3.1808,-3.1261,-2.9511,-2.8038,-2.6802,-2.5843,-2.5254,-2.5106,-2.4805,-2.4365,0.0,-2.3789,-2.3545,-2.3091,-2.3091,-2.3091,0.0,0.0,0.0,0.0,0.0,-2.3091,-2.3091,-2.3091,-2.3091,-2.3091,-2.3091,-2.3551,-2.4082,-2.4082,-2.5326,-2.6819,-2.7279,-2.8239,-2.9227,-2.9857,-2.9702,-2.9581,-3.0223,-3.0326,-3.0419,-3.0896,-3.1248,-3.1511,-3.1511,0.0,0.0,-3.1511,-3.1511,-3.1511,-3.1511,-3.1511,-3.1511,0.0,-3.1511,-3.1668,-3.2092,-3.171,-3.1508,-3.1643,-3.0907,0.0,0.0,0.0,-2.8991,-2.9022,-2.9011,0.0,0.0,0.0,0.0,0.0,0.0,0.0,0.0,-3.1113,-3.1445,0.0,0.0,0.0,0.0,0.0,0.0,0.0,0.0,0.0,0.0,0.0,0.0,0.0,0.0,0.0,0.0,-3.2229,-3.3322,-3.3053,-3.2909,-3.1817,-2.91,-2.8668,-2.7314,-2.4015,-2.3525,-2.2894,-2.1404,-2.1302,-2.1844,-2.3067,0.0,0.0,0.0,0.0,-3.0008,-2.9149,-2.8115,-2.703,-2.5917,-2.5781,-2.5527,-2.5194,-2.5194,-2.4697,-2.3935,-2.3935,-2.3662,-2.3169,-2.3169,-2.314,-2.3091,-2.3091,-2.3091,-2.3091,-2.3091,-2.3091,0.0,0.0,0.0,0.0,-2.3091,-2.3091,-2.3091,-2.3091,-2.3887,-2.4999,-2.6016,-2.7157,-2.8347,-2.9365,-2.9474,-2.9332,-2.9408,-2.9764,-3.0097,-3.0162,-3.0703,-3.1248,-3.1351,-3.1351,-3.138,-3.1467,-3.1511,-3.1511,-3.1511,-3.1511,0.0,-3.1511,-3.1511,-3.1511,-3.1511,0.0,0.0,-3.0672,-3.0552,-3.0268,-2.9756,-2.9786,-2.9804,-2.9804,-2.9966,-3.0567,-3.1705,-3.1735,-3.2333,-3.3604,-3.4219,-3.4249,-3.3679,-3.1898,-3.1973,0.0,0.0,0.0,0.0,0.0,0.0,0.0,0.0,0.0,0.0,0.0,0.0,0.0,0.0,0.0,-3.2234,-3.3132,-3.3821,-3.4282,-3.3576,-3.2311,-3.03,-2.9201,-2.7282,-2.3855,-2.2674,-2.1162,-1.8872,-1.874,-1.9413,-2.1009,-2.151,0.0,-2.6456,-2.6806,-2.773,-2.9316,-2.8168,-2.7494,-2.722,0.0,0.0,-2.5557,-2.5557,-2.5322,-2.4861,-2.4861,-2.4385,-2.3662,-2.3662,-2.3457,-2.3091,-2.3091,-2.3091,-2.3091,-2.3091,-2.3091,-2.3091,-2.3091,-2.3091,-2.3091,-2.3091,-2.3091,-2.3091,-2.3091,-2.3887,0.0,-2.5083,-2.6562,-2.8136,-2.8386,-2.8717,-2.9068,-2.9336,-2.9103,-2.8917,-2.9194,-2.938,-2.969,-3.0389,-3.0524,-3.0748,-3.138,-3.1511,-3.1511,-3.1511,-3.1511,-3.1511,-3.1511,-3.1511,-3.1511,-3.1511,-3.1511,-3.1451,-3.1316,-3.0821,-3.0447,-3.0328,-3.0823,-3.1122,-3.1122,-3.2168,-3.2856,-3.311,-3.311,-3.3499,-3.4324,-3.4444,-3.4696,-3.51,-3.4711,-3.4442,0.0,0.0,0.0,0.0,0.0,0.0,0.0,0.0,0.0,0.0,0.0,-2.7959,-2.88,0.0,-3.137,-3.28,-3.2978,-3.3273,-3.4178,-3.3606,-3.2513,-3.0998,-2.9757,-2.7825,-2.4792,-2.2931,-2.1135,-1.9177,-1.855,-1.8598,-1.9435,-2.0132,-2.1355,-2.3177,-2.4639,-2.5829,-2.6726,-2.6913,-2.6891,-2.662,-2.6014,-2.5693,-2.5693,-2.5693,-2.5488,-2.5116,-2.5116,-2.4697,-2.4082,-2.3877,-2.3535,-2.3091,-2.3091,-2.3091,-2.3091,-2.3091,-2.3091,-2.3091,-2.3091,-2.3091,-2.3091,-2.3091,-2.3091,-2.3091,-2.3091,-2.3507,-2.4092,-2.4617,-2.5619,-2.6685,-2.7804,-2.8108,-2.8211,-2.8658,-2.8621,-2.8463,-2.8354,-2.8684,-2.9129,-2.9566,-3.0011,-3.0419,-3.0837,-3.1219,-3.1511,-3.1511,-3.1511,-3.1351,-3.097,-3.0896,-3.0748,-3.0299,-3.0238,-3.0419,-3.0866,-3.0966,-3.0987,-3.0987,-3.163,-3.1989,-3.1989,-3.2976,-3.3649,-3.3978,-3.3978,-3.4322,-3.4996,-3.4996,-3.5175,-3.5504,-3.5504,-3.5325,0.0,0.0,0.0,0.0,0.0,0.0,0.0,-2.7192,-2.7399,-2.7868,-2.8637,-2.9427,-3.0143,-3.106,-3.2051,-3.3068,-3.293,-3.298,-3.3796,-3.352,-3.2823,-3.1689,-3.0271,-2.8509,-2.6194,-2.3907,-2.1905,-2.0407,-1.9221,-1.8584,-1.8657,-1.9389,-2.0051,-2.054,-2.2839,-2.4097,-2.4233,-2.5449,-2.5981,-2.5859,-2.5859,-2.5771,-2.5693,-2.5693,-2.5537,-2.5195,-2.5155,-2.4863,-2.4502,-2.3994,-2.3584,-2.3218,-2.313,-2.3091,-2.3091,-2.3091,-2.3091,-2.3091,-2.3091,-2.3091,-2.3091,-2.3091,-2.3091,-2.3091,-2.3091,-2.3091,-2.3299,-2.4211,-2.4628,-2.5199,-2.7012,-2.7446,-2.7541,-2.7878,-2.8201,-2.8286,-2.7738,-2.8099,-2.8556,-2.8716,-2.9317,-2.9889,-3.0238,-3.0837,-3.1322,-3.1467,-3.138,-3.1029,-3.0389,-3.0133,-2.9797,-2.9097,-2.9002,-2.9348,-3.0238,-3.1029,-3.1511,-3.1511,-3.2243,-3.2602,-3.2436,-3.3193,-3.3784,-3.4127,-3.4142,-3.4407,-3.492,-3.5133,-3.5213,-3.5213,-3.5392,-3.5504,-2.2006,-2.426,-2.6283,-2.702,-2.7842,-2.8647,0.0,-2.9711,-3.0001,-3.0212,-3.0344,-3.0733,-3.175,-3.2466,-3.3093,-3.3709,-3.4161,-3.4311,-3.3947,-3.3847,-3.3577,-3.2946,-3.0822,-2.8954,-2.7829,-2.5507,-2.3193,-2.1156,-1.9584,-1.8905,-1.931,-1.8062,-1.8435,-2.077,-2.1143,-2.2443,-2.4697,-2.4905,-2.541,-2.6318,-2.6318,-2.6113,-2.5693,-2.5693,-2.5664,-2.5596,-2.5244,-2.5086,-2.4979,-2.4121,-2.376,-2.3682,-2.3247,-2.3091,-2.3091,-2.3091,-2.3091,-2.3091,-2.3091,-2.3091,-2.3091,-2.3091,-2.3091,-2.3091,-2.3091,-2.3091,-2.3135,-2.3256,-2.4006,-2.4872,-2.5115,-2.6558,-2.7909,-2.7502,-2.7766,-2.799,-2.7483,-2.7034,-2.7007,-2.7703,-2.792,-2.8492,-3.0042,-3.0359,-3.0673,-3.138,-3.0896,-3.0389,-3.0299,-2.9628,-2.9097,-2.9002,-2.9002,-2.9348,-3.0238,-3.1029,-3.1511,-3.1511,-3.2706,-3.3012,-3.2168,-3.331,-3.3602,-3.2814,-3.2814,-3.2856,-3.2925,-3.3739,-3.4177,-3.4211,-3.51,-3.5504,-2.4723,-2.6078,-2.7052,-2.9059,-2.9859,-3.0391,-3.1243,-3.1156,-3.0963,-3.1345,-3.1207,-3.1298,-3.2077,-3.2955,-3.3734,0.0,-3.4575,-3.4705,-3.4806,-3.4299,-3.3822,-3.3583,-3.1737,-3.0114,-2.9237,-2.6376,-2.3948,-2.2425,-2.113,-2.0131,-1.9417,-1.7864,-1.7913,-1.9953,-1.9947,-2.072,-2.2513,-2.4287,-2.5279,-2.547,-2.6083,-2.6299,-2.6113,-2.5801,-2.5693,-2.5674,-2.5537,-2.5312,-2.5067,-2.4404,-2.4014,-2.375,-2.3266,-2.3091,-2.3091,-2.3091,-2.3091,-2.3091,-2.3091,-2.3091,-2.3091,-2.3091,-2.3091,-2.296,-2.2262,-2.2536,-2.296,-2.2262,-2.2911,-2.3963,-2.4628,-2.5994,-2.7192,-2.7274,-2.7946,-2.8436,-2.7883,-2.7582,-2.7425,-2.7455,-2.7832,-2.8306,-2.8707,-2.9628,-3.0419,-3.0748,-3.0524,-3.0103,-2.9597,-2.878,-2.8051,-2.7604,-2.8427,-2.916,-2.9504,-3.0748,-3.1675,-3.2049,-3.2976,-3.3495,-3.3505,-3.4386,-3.4394,-3.3415,-3.3415,-3.3136,-3.2593,-3.2996,-3.3449,-3.4027,-3.4428,-3.4953,-2.6288,-2.7342,-2.8188,-3.0438,-3.1489,-3.2069,-3.25,-3.2069,-3.1659,-3.1957,-3.1562,-3.1386,-3.2089,-3.3006,-3.3897,-3.4613,-3.4806,-3.5044,-3.5445,-3.468,-3.4123,-3.4123,-3.2556,-3.1189,-3.0471,-2.7601,-2.5093,-2.3502,-2.2116,-2.08,-1.9475,-1.7449,-1.7091,-1.8706,-1.8222,-1.873,-2.042,-2.2608,-2.413,-2.4965,-2.5642,-2.6133,-2.6367,-2.5888,-2.5693,-2.5693,-2.5693,-2.5557,-2.5215,-2.4775,-2.4346,-2.3916,-2.3486,-2.3198,-2.3091,-2.3091,-2.3091,-2.3091,-2.3091,-2.3091,-2.3091,-2.3091,-2.3091,-2.2862,-2.1667,-2.2129,-2.2862,-2.1658,-2.2164,-2.3309,-2.4125,-2.5431,-2.6587,-2.6988,-2.8023,-2.8787,-2.8411,-2.821,-2.7996,-2.7595,-2.7988,-2.8343,-2.8176,-2.9209,-3.015,-3.037,-3.0199,-2.9803,-2.9107,-2.8051,-2.7162,-2.6555,-2.7986,-2.9071,-2.9269,-3.0816,-3.2049,-3.2736,-3.3395,-3.3885,-3.4093,-3.4744,-3.4624,-3.3636,-3.3345,-3.289,-3.2213,-3.2213,-3.2558,-3.3241,-3.3484,-3.3993,-2.5945,-2.8009,-3.0299,-3.0411,-3.2193,-3.3671,-3.282,-3.2558,-3.2449,-3.2057,-3.1267,-3.0959,-3.2026,-3.2704,-3.3458,-3.455,-3.5132,-3.5483,-3.5495,-3.5006,-3.47,-3.47,-3.3129,-3.1926,0.0,-2.9412,-2.6888,-2.4,-2.1961,-2.0433,-1.9461,-1.6385,-1.5429,-1.7026,-1.5548,-1.6217,-1.9205,-1.9314,-2.1421,-2.537,-2.5035,-2.5396,-2.6367,-2.5888,-2.5693,-2.5693,-2.5693,-2.5684,-2.5635,-2.5234,-2.4785,-2.4355,-2.3935,-2.3516,-2.3091,-2.3091,-2.3091,-2.3091,-2.3091,-2.3091,-2.3091,-2.3091,-2.3091,-2.2862,-2.1667,-2.2129,-2.2862,-2.1658,-2.2164,-2.3091,-2.3135,-2.4808,-2.6513,-2.6543,-2.7743,-2.8888,-2.8863,-2.8486,-2.8097,-2.8084,-2.8121,-2.8386,-2.9201,-2.9399,-2.9699,-3.0473,-2.9941,-2.9333,-2.9059,-2.7571,-2.6521,-2.6499,-2.7986,-2.9269,-2.9915,-3.15,-3.2766,-3.3425,-3.4114,-3.4078,-3.3167,-3.371,-3.3602,-3.2664,-3.1742,-3.1278,-3.1254,-3.1254,-3.1241,-3.1315,-3.2213,-3.2664,-2.7545,-2.9103,-3.0622,-3.1617,-3.2961,-3.4095,-3.4442,-3.4007,-3.341,-3.3014,-3.219,-3.1551,-3.1647,-3.2441,-3.3319,-3.406,-3.4906,-3.5621,-3.6031,-3.5918,-3.568,-3.527,-3.4711,0.0,-3.2943,-3.0329,0.0,-2.4033,-2.2908,-2.1547,-1.9519,-1.7331,-1.6433,-1.6962,-1.5429,-1.5128,-1.6163,-1.8184,-1.9903,-2.1317,-2.3685,-2.5354,-2.6367,-2.5888,-2.5693,-2.5693,-2.5693,-2.5693,-2.5654,-2.5254,-2.5028,-2.4775,-2.4072,-2.3701,-2.3535,-2.3198,-2.3091,-2.3091,-2.3091,-2.3091,-2.3091,-2.3091,-2.3091,-2.2862,-2.1667,-2.2129,-2.2862,-2.1658,-2.2164,-2.3091,-2.3091,-2.4766,-2.6524,-2.6524,-2.8028,-2.9503,-2.9503,-2.9365,-2.9114,-2.8725,-2.8612,-2.8598,-2.8547,-2.9019,-2.9486,-2.9752,-2.9556,-2.9145,-2.8499,-2.7924,-2.7557,-2.7557,-2.8573,-2.9619,-3.0447,-3.1568,-3.2807,-3.4067,-3.4384,-3.4539,-3.4694,-3.4883,-3.4543,-3.3553,-3.3206,-3.2464,-3.1217,-3.1217,-3.1217,-3.1217,-3.1536,-3.1997,-2.8487,-2.9876,-3.1172,-3.2313,-3.3567,-3.4725,-3.5359,-3.4725,-3.3819,-3.3248,-3.2381,-3.1575,-3.1198,-3.2003,-3.2991,-3.3752,-3.4907,-3.5923,-3.6616,-3.6707,-3.6596,-3.6445,-3.6197,-3.5662,-3.4483,-3.2049,0.0,-2.5611,-2.4141,-2.2481,-2.03,-1.8144,-1.7026,-1.7026,-1.4891,-1.4009,-1.4604,-1.5976,-1.7755,-1.9821,-2.3311,-2.5493,-2.6377,-2.6103,-2.584,-2.5693,-2.5693,-2.5693,-2.5664,-2.543,-2.5215,-2.5057,-2.4463,-2.4053,-2.375,-2.3477,-2.3227,-2.3091,-2.3091,-2.3091,-2.3091,-2.3091,-2.3091,-2.2862,-2.1667,-2.2129,-2.2862,-2.1658,-2.2164,-2.3091,-2.3091,-2.4766,-2.6524,-2.6524,-2.8171,-2.9792,-2.9792,-2.9792,-2.9679,-2.9315,-2.9239,-2.9126,-2.8775,-2.9156,-2.9533,-2.9533,-2.9533,-2.9186,-2.822,-2.8109,-2.8109,-2.8109,-2.8876,-2.9741,-3.0581,-3.1748,-3.3003,-3.426,-3.4656,-3.504,-3.5489,-3.5504,-3.5213,-3.4543,-3.4177,-3.3415,-3.2213,-3.1536,-3.1217,-3.118,-3.0871,-3.1007,-2.875,-3.0299,-3.1889,-3.2384,-3.3973,-3.5424,-3.5424,-3.4691,-3.3739,-3.2784,-3.1852,-3.1065,-3.0694,-3.1423,-3.2528,-3.383,-3.5265,-3.6469,-3.7175,-3.7285,-3.7498,0.0,0.0,0.0,-3.6254,0.0,0.0,-2.8651,0.0,-2.3287,-2.1836,-1.8945,-1.7325,-1.7138,-1.4168,-1.3228,-1.4604,-1.3168,-1.5295,-2.0965,-2.3877,-2.5709,-2.6455,-2.6406,-2.6162,-2.5713,-2.5703,-2.5693,-2.5693,-2.5693,-2.5488,-2.5145,-2.5125,-2.4607,-2.3818,-2.3799,-2.3516,-2.3091,-2.3091,-2.3091,-2.3091,-2.3091,-2.3091,-2.2906,-2.1747,-2.2164,-2.2862,-2.1712,-2.2217,-2.3091,-2.3091,-2.4766,-2.6524,-2.6524,-2.8171,-2.9792,-2.9792,-2.9792,-2.9792,-2.9792,-2.9753,-2.9714,-2.9624,-2.9624,-2.9663,-2.9702,-2.9663,-2.9275,-2.8298,-2.8197,-2.8197,-2.8197,-2.8944,-2.971,-3.0385,-3.2,-3.3288,-3.3882,-3.4872,-3.5424,-3.5424,-3.5472,-3.5504,-3.5504,-3.4576,-3.4061,-3.3993,-3.2213,-3.1278,-3.118,-3.0279,-2.9869,-2.885,-3.0101,-3.1386,-3.1533,-3.2996,-3.4394,-3.4394,-3.4177,-3.3739,-3.2784,-3.1852,-3.1158,-3.1053,-3.2409,-3.3953,-3.54,-3.6734,0.0,-3.8361,-3.8452,0.0,-3.9316,-3.8858,-3.8589,-3.8878,-3.7014,0.0,0.0,-2.8362,-2.5315,-2.3829,-2.3006,-2.1378,-1.8719,-1.7824,-1.6493,-1.4604,-1.5365,-1.8211,-2.3022,-2.351,-2.5041,-2.7366,-2.668,-2.6328,-2.6201,-2.583,-2.5693,-2.5693,-2.5693,-2.5625,-2.5527,-2.5195,-2.4736,-2.4219,-2.3906,-2.3516,-2.3091,-2.3091,-2.3091,-2.3091,-2.3091,-2.3091,-2.3047,-2.2721,-2.2862,-2.3047,-2.2731,-2.2862,-2.3091,-2.3091,-2.4766,-2.6524,-2.6524,-2.8171,-2.9792,-2.9792,-2.9792,-2.9792,-2.9792,-2.9106,-2.8267,-2.7464,-2.7342,-2.7626,-2.8398,-2.7867,-2.7825,-2.9198,-2.9365,-2.9365,-2.9365,-2.9581,-3.0046,-3.0919,-3.1432,-3.205,-3.2912,-3.3856,-3.4394,-3.4394,-3.51,-3.5504,-3.5504,-3.5246,-3.4758,-3.3993,-3.3518,-3.2558,-3.118,-3.097,-3.0482,-2.9239,-3.0237,-3.1217,-3.1217,-3.2321,-3.3309,-3.3075,-3.3217,-3.3066,-3.19,-3.1399,-3.1217,-3.1217,-3.264,-3.4337,-3.594,-3.7882,-3.9183,-3.9262,-3.9725,-4.0236,-4.0606,-4.0294,-4.0236,-4.0592,-3.8982,-3.6927,0.0,-3.057,-2.7416,-2.5583,-2.483,-2.3496,-2.1299,-2.0509,-1.8654,-1.5612,-1.7155,-1.9571,-2.2735,-2.3921,-2.564,-2.7699,-2.6973,-2.6562,-2.6367,0.0,-2.5693,-2.5693,-2.5693,-2.5693,-2.5664,-2.5459,-2.4971,-2.4385,-2.415,-2.3672,-2.3091,-2.3091,-2.3091,-2.3091,-2.3091,-2.3091,-2.3003,-2.2492,-2.2306,-2.2306,-2.2306,-2.2306,-2.2526,-2.3574,-2.5179,-2.6637,-2.7087,-2.8542,-2.9792,-2.9792,-2.9792,-2.9663,-2.9157,-2.8148,-2.7209,-2.6595,-2.6524,-2.6678,-2.7319,-2.6883,-2.6935,-2.8171,-2.8343,-2.8343,-2.8343,-2.8779,-2.9277,-2.9795,-3.0681,-3.1426,-3.196,-3.289,-3.338,-3.338,-3.4327,-3.4839,-3.4839,-3.5279,-3.5213,-3.4658,-3.4211,-3.3241,-3.1815,-3.1389,-3.0696,-2.9654,-3.0381,-3.1007,-3.1007,-3.1719,-3.2278,-3.1839,-3.2079,-3.2041,-3.0777,-3.0777,-3.1044,-3.118,-3.2479,-3.412,-3.5921,-3.8521,-4.0237,-4.0094,-4.0993,-4.1807,-4.207,-4.1985,-4.1838,-4.1838,-4.0525,-3.8531,-3.5825,-3.2622,-2.9678,-2.7224,-2.5826,-2.4766,-2.4108,-2.2543,-2.0451,-1.7762,-1.9134,-2.0558,-2.2048,-2.4815,-2.6702,-2.7787,-2.7295,-2.6865,-2.6445,0.0,0.0,-2.5693,-2.5693,-2.5693,-2.5693,-2.5693,-2.5148,-2.4414,-2.4414,-2.3832,-2.3091,-2.3091,-2.3091,-2.3091,-2.3091,-2.3091,-2.2862,-2.1667,-2.1293,-2.1293,-2.1293,-2.1293,-2.1826,-2.4008,-2.5546,-2.6719,-2.7654,-2.8858,-2.9792,-2.9792,-2.9663,-2.9197,-2.7924,-2.6912,-2.6224,-2.6058,-2.6069,-2.6099,-2.6265,-2.6141,-2.6099,-2.6265,-2.6389,-2.6524,-2.6524,-2.7331,-2.7936,-2.8096,-2.9744,-3.0869,-3.1007,-3.1888,-3.2429,-3.2429,-3.331,-3.3808,-3.3808,-3.4658,-3.518,-3.5294,-3.4428,-3.3602,-3.2749,-3.1815,-3.0871,-2.9767,-2.9934,-3.0037,-3.0037,-3.0771,-3.1436,-3.1343,-3.1396,-3.1362,-3.1122,-3.0531,-3.0279,-3.1082,-3.2317,-3.3916,-3.5873,-3.7909,-3.9724,-4.1174,-4.1945,-4.2937,-4.4525,-4.3834,-4.317,-4.317,-4.1995,0.0,0.0,0.0,-3.2431,-2.924,-2.8485,-2.7417,-2.5726,-2.4186,-2.3111,-2.259,-2.2839,-2.3789,-2.5281,-2.5864,-2.6851,-2.8164,-2.7744,-2.7314,-2.6885,0.0,0.0,-2.5693,-2.5693,-2.5693,-2.5693,-2.5693,-2.5148,-2.4414,-2.4414,-2.3832,-2.3091,-2.3091,-2.3091,-2.3091,-2.3091,-2.3091,-2.2862,-2.1667,-2.1293,-2.1293,-2.1293,-2.1293,-2.1604,-2.3018,-2.4935,-2.6554,-2.6719,-2.8331,-2.9792,-2.9792,-2.9067,-2.7804,-2.5786,-2.5199,-2.4798,-2.3844,-2.3681,-2.4016,-2.4957,-2.4307,-2.4006,-2.4957,-2.5933,-2.6524,-2.6524,-2.6689,-2.7128,-2.8004,-2.8442,-2.9057,-2.9985,-3.0908,-3.1426,-3.1426,-3.2357,-3.2855,-3.2855,-3.2996,-3.3498,-3.4245,-3.4095,-3.391,-3.3739,-3.2784,-3.1852,-2.9716,-2.9792,-2.9792,-2.9792,-3.0139,-3.0405,-3.0058,-3.0263,-3.0367,-3.0058,-2.9885,-3.0113,-3.1044,-3.2006,-3.3254,-3.5071,-3.7125,-3.9041,-4.0614,-4.1758,-4.3197,-4.5154,-4.4872,-4.4503,-4.4503,-4.3929,-4.2172,0.0,0.0,-3.4692,-3.097,-2.8668,-2.702,-2.6109,-2.4599,-2.4211,-2.4986,-2.4986,-2.538,-2.61,-2.6888,-2.7618,-2.8281,-2.7861,-2.7432,-2.6992,-2.6572,0.0,-2.6706,-2.6706,-2.7078,-2.7579,-2.6935,-2.63,-2.5578,-2.4723,-2.4014,-2.3447,-2.3169,-2.3091,-2.3091,-2.3091,-2.3091,-2.2862,-2.1667,-2.1293,-2.1293,-2.1293,-2.1293,-2.1693,-2.3511,-2.4798,-2.5755,-2.6348,-2.7302,-2.8251,-2.8779,-2.7562,-2.6066,-2.4999,-2.4339,-2.3757,-2.3178,-2.3091,-2.3309,-2.3833,-2.3464,-2.3299,-2.3844,-2.4392,-2.4723,-2.4723,-2.5263,-2.5839,-2.6356,-2.7429,-2.8347,-2.8897,-2.9909,-3.0482,-3.0482,-3.1365,-3.1852,-3.1852,-3.2357,-3.3066,-3.3993,-3.3993,-3.3993,-3.3993,-3.3031,-3.2105,-2.9478,-2.9691,-2.9792,-2.9792,-2.9792,-2.9679,-2.9214,-2.9465,-2.9666,-2.9202,-2.9478,-3.0037,-3.0758,-3.1325,-3.2155,-3.3677,-3.5929,-3.8069,-3.9785,-4.1654,-4.363,-4.5859,-4.6123,0.0,-4.6064,-4.6064,0.0,0.0,0.0,0.0,-3.1763,-2.8319,-2.6399,-2.61,-2.4599,-2.4544,-2.61,-2.61,-2.6264,-2.6608,-2.7726,-2.8291,-2.8281,-2.7949,-2.7519,-2.7002,-2.6952,0.0,0.0,-2.7861,-2.8541,-2.9269,-2.8085,-2.7306,-2.6695,-2.5023,-2.415,-2.3721,-2.3247,-2.3091,-2.3091,-2.3091,-2.3091,-2.2862,-2.1667,-2.1293,-2.1293,-2.1302,-2.1293,-2.1773,-2.3889,-2.4628,-2.5083,-2.6224,-2.6524,-2.6678,-2.7267,-2.6025,-2.4745,-2.45,-2.3714,-2.3091,-2.3091,-2.3091,-2.3091,-2.3091,-2.3091,-2.3091,-2.3091,-2.3091,-2.3091,-2.3091,-2.392,-2.4542,-2.4787,-2.6397,-2.7591,-2.8084,-2.8937,-2.9534,-2.9792,-3.052,-3.0895,-3.0895,-3.1609,-3.2464,-3.338,-3.338,-3.3484,-3.3671,-3.2749,-3.1888,-2.8963,-2.939,-2.9792,-2.9792,-2.9792,-2.9779,-2.9729,-2.9754,-2.9779,-2.9729,-2.9754,-2.983,-2.9895,-2.9984,-3.0389,-3.1534,-3.4029,-3.6816,-3.9786,-4.2442,-4.5195,-4.8127,0.0,0.0,-4.8245,-4.823,0.0,0.0,0.0,0.0,0.0,-2.8853,-2.7368,-2.6145,-2.4599,-2.4544,-2.61,-2.61,-2.6771,-2.8121,-2.8237,-2.8291,-2.8291,-2.8252,-2.7793,-2.7063,0.0,0.0,0.0,-2.8773,-2.9315,-2.9269,-2.8085,-2.7306,-2.6695,-2.5023,-2.415,-2.3721,-2.3247,-2.3091,-2.3091,-2.3091,-2.3091,-2.2862,-2.1667,-2.1293,-2.1293,-2.132,-2.1311,-2.1614,-2.294,-2.4006,-2.5083,-2.6224,-2.6524,-2.6224,-2.5294,-2.4957,-2.45,-2.3474,-2.3178,-2.3091,-2.3091,-2.3091,-2.3091,-2.3091,-2.3091,-2.3091,-2.3091,-2.3091,-2.3091,-2.3091,-2.3178,-2.3671,-2.4702,-2.4999,-2.5942,-2.7964,-2.8215,-2.8727,-2.9753,-2.9895,-2.9934,-2.9934,-2.9998,-3.0533,-3.1462,-3.1462,-3.1888,-3.2713,-3.1779,-3.1278,-2.88,-2.9352,-2.9792,-2.9792,-2.9792,-2.9792,-2.9792,-2.9792,-2.9792,-2.9792,-2.9792,-2.9792,-2.9792,-3.0241,-3.0763,-3.1203,-3.3164,-3.562,-3.8492,-4.1148,-4.4012,-4.7276,-4.8498,0.0,0.0,0.0,0.0,0.0,0.0,0.0,0.0,-3.3113,-2.9075,-2.7058,-2.5811,-2.5489,-2.61,-2.6997,-2.7726,-2.8291,-2.8291,-2.8291,-2.8281,-2.8027,-2.7588,-2.7002,0.0,0.0,0.0,-2.9223,-2.9818,-3.035,-2.9131,-2.8107,-2.7113,-2.5421,-2.4541,-2.4111,-2.3682,-2.3359,-2.3091,-2.3091,-2.3091,-2.3003,-2.2536,-2.2403,-2.2403,-2.2369,-2.2359,-2.2492,-2.296,-2.343,-2.4049,-2.5221,-2.4967,-2.451,-2.4745,-2.4253,-2.3637,-2.3178,-2.2492,-2.2031,-2.2031,-2.14,-2.1177,-2.1917,-2.1996,-2.2262,-2.3003,-2.3091,-2.3091,-2.3091,-2.3091,-2.3256,-2.3757,-2.4414,-2.5157,-2.6066,-2.7348,-2.8307,-2.8767,-2.9456,-2.9792,-2.9792,-2.9792,-3.0241,-3.1217,-3.1217,-3.1669,-3.2558,-3.1646,-3.1217,-2.8449,-2.9101,-2.9578,-2.9754,-2.9792,-2.9792,-2.9792,-2.9792,-2.9792,-2.9792,-2.9792,-2.9792,-2.9792,-3.0558,-3.1217,-3.1217,-3.3112,-3.5445,-3.7936,-4.0658,-4.3614,-4.6924,0.0,-4.9831,0.0,0.0,0.0,0.0,0.0,0.0,0.0,-3.9302,-3.3676,-3.0203,-2.8448,-2.7636,-2.7752,-2.8453,-2.9061,-2.946,-2.946,-2.946,-2.945,-2.8659,-2.8021,-2.7572,0.0,0.0,0.0,-2.9269,-2.9909,-3.0541,-2.9361,-2.8366,-2.7395,-2.5737,-2.4873,-2.4531,-2.3984,-2.3584,-2.3266,-2.314,-2.3091,-2.3091,-2.3091,-2.3091,-2.3091,-2.3091,-2.3091,-2.3091,-2.3091,-2.3091,-2.3299,-2.4135,-2.3671,-2.3299,-2.4125,-2.3681,-2.3091,-2.3091,-2.212,-2.1293,-2.1293,-2.0305,-1.977,-2.0638,-2.1078,-2.1614,-2.2448,-2.2862,-2.3091,-2.3091,-2.3091,-2.3091,-2.3091,-2.3844,-2.4457,-2.4787,-2.6273,-2.7267,-2.7602,-2.841,-2.8831,-2.8831,-2.9118,-2.9626,-3.0291,-3.0291,-3.0781,-3.1756,-3.0743,-3.0455,-2.7821,-2.8511,-2.9038,-2.9641,-2.9792,-2.9792,-2.9792,-2.9792,-2.9792,-2.9792,-2.9792,-2.9792,-2.9792,-3.0558,-3.1217,-3.1217,-3.3893,-3.6671,-3.8697,-4.1745,-4.4877,0.0,0.0,-5.0387,-5.21,0.0,0.0,0.0,0.0,0.0,0.0,-4.7373,-4.2028,-3.6102,-3.2699,-3.1209,-3.1739,-3.0657,-3.0818,-3.228,-3.228,-3.228,-3.2219,-3.0445,-2.9434,0.0,0.0,0.0,0.0,-2.8912,-2.9407,-2.9315,-2.8096,-2.7589,-2.7395,-2.5737,-2.5116,-2.4988,-2.4082,-2.3789,-2.3711,-2.3237,-2.3091,-2.3091,-2.3091,-2.3091,-2.3091,-2.3091,-2.3091,-2.3091,-2.3091,-2.3091,-2.3091,-2.3091,-2.3091,-2.3091,-2.3135,-2.3091,-2.3091,-2.3091,-2.212,-2.1293,-2.1293,-2.0305,-1.9497,-1.9542,-2.0531,-2.1293,-2.1337,-2.2359,-2.3091,-2.3091,-2.3091,-2.3091,-2.3091,-2.3091,-2.3594,-2.4745,-2.483,-2.5336,-2.6483,-2.6524,-2.6524,-2.6524,-2.7562,-2.8124,-2.8124,-2.8124,-2.8727,-2.9792,-2.8676,-2.8727,-2.7444,-2.7946,-2.8411,-2.8599,-2.8925,-2.9164,-2.9164,-2.9503,-2.9792,-2.9792,-2.9792,-2.9792,-2.9792,-3.0558,-3.1692,-3.3281,-3.4905,-3.6918,-3.9587,-4.2788,0.0,-4.7481,-5.041,-5.2488,0.0,0.0,0.0,0.0,0.0,0.0,0.0,-5.0254,-4.5896,-3.8825,-3.6433,-3.4539,-3.3036,-3.367,-3.4234,-3.469,-3.469,-3.469,-3.4606,-3.2616,0.0,0.0,0.0,0.0,0.0,-2.8366,-2.8179,-2.8132,-2.7767,-2.7078,-2.6225,-2.5711,-2.5332,-2.5077,-2.4756,-2.4277,-2.3769,-2.3633,-2.3379,-2.3091,-2.3091,-2.3091,-2.3091,-2.3091,-2.3091,-2.3091,-2.3091,-2.3091,-2.3091,-2.3091,-2.3091,-2.3091,-2.3091,-2.3091,-2.3091,-2.3091,-2.1445,-2.0079,-2.0079,-1.8349,-1.7257,-1.8141,-1.8588,-1.9451,-2.1069,-2.1614,-2.2173,-2.3003,-2.3091,-2.3091,-2.3091,-2.3091,-2.3256,-2.3637,-2.4372,-2.4957,-2.5336,-2.6099,-2.6524,-2.6524,-2.6842,-2.7005,-2.7005,-2.7005,-2.7168,-2.7557,-2.7168,-2.7221,-2.7147,-2.7532,-2.7896,-2.831,-2.8637,-2.895,-2.9202,-2.9528,-2.9792,-2.9792,-2.9792,-2.9663,-2.9236,-3.0304,-3.162,-3.2827,-3.4348,-3.6429,-3.9385,-4.2291,0.0,-4.7958,0.0,0.0,0.0,0.0,0.0,0.0,0.0,0.0,0.0,0.0,-4.7838,-4.2757,-4.0855,-3.8857,-3.6625,-3.7085,-3.7513,-3.7856,-3.7856,-3.8082,-3.83,-3.568,0.0,0.0,0.0,0.0,0.0,-2.74,-2.6897,-2.6897,-2.6897,-2.638,-2.5693,-2.5693,-2.5557,-2.5293,-2.5127,-2.4717,-2.4219,-2.3896,-2.3496,-2.3091,-2.3091,-2.3091,-2.3091,-2.3091,-2.3091,-2.3091,-2.3091,-2.3091,-2.3091,-2.3091,-2.3091,-2.3091,-2.3091,-2.3091,-2.3091,-2.3091,-2.1132,-1.9497,-1.9497,-1.7436,-1.6062,-1.685,-1.7412,-1.8411,-2.035,-2.1025,-2.1756,-2.296,-2.3091,-2.3091,-2.3091,-2.3091,-2.3091,-2.3091,-2.3757,-2.4168,-2.4168,-2.4851,-2.5231,-2.5231,-2.5641,-2.585,-2.5839,-2.6307,-2.6265,-2.5891,-2.6307,-2.6524,0.0,-2.721,-2.7532,-2.8561,-2.8787,-2.895,-2.9603,-2.9638,0.0,-2.9663,-2.9624,-2.926,-2.8223,-2.9614,-3.0801,-3.0497,-3.2644,-3.5357,-3.8257,-4.0846,0.0,0.0,-5.0434,0.0,0.0,0.0,0.0,0.0,0.0,0.0,0.0,0.0,-4.8145,-4.7177,-4.5306,-4.3423,-4.1629,-4.0532,-4.0477,-4.1408,-4.1558,-4.2118,-4.2898,-3.9585,0.0,0.0,0.0,0.0,0.0,-2.638,-2.5781,-2.5693,-2.5693,-2.5693,-2.5693,-2.5693,-2.5693,-2.5625,-2.5254,-2.5145,-2.4979,-2.4072,-2.3496,-2.3091,-2.3091,-2.3091,-2.3091,-2.3091,-2.3091,-2.3091,-2.3091,-2.3091,-2.3091,-2.3091,-2.3091,-2.3091,-2.3091,-2.3091,-2.3091,-2.3091,-2.1132,-1.9497,-1.9497,-1.7436,-1.5784,-1.5784,-1.681,-1.8048,-1.9314,-2.0486,-2.1667,-2.296,-2.3091,-2.3091,-2.3091,-2.3091,-2.3091,-2.3091,-2.3091,-2.3091,-2.3091,-2.3091,-2.3091,-2.3091,-2.4125,-2.467,-2.466,-2.5724,-2.5724,-2.4702,-2.5755,-2.6265,-2.4728,0.0,-2.7344,-2.7607,-2.768,-2.795,0.0,-2.8162,-2.7504,-2.8307,-2.7867,-2.7295,-2.733,-2.7739,-2.8692,-3.0621,-3.2629,-3.4786,-3.7219,-4.1526,0.0,-4.9769,-5.1071,0.0,0.0,0.0,0.0,0.0,0.0,0.0,0.0,0.0,-4.7925,-4.6477,-4.439,-4.2768,-4.1629,-4.1337,-4.1666,-4.2614,-4.4064,-4.5247,-4.6058,-4.3887,0.0,0.0,0.0,0.0,-3.002,-2.7996,-2.6572,-2.5693,-2.5693,-2.5693,-2.5693,-2.5693,-2.5693,-2.5674,-2.5567,-2.5361,-2.4979,-2.4072,-2.3496,-2.3091,-2.3091,-2.3091,-2.3091,-2.3091,-2.3091,-2.3091,-2.3091,-2.3091,-2.3091,-2.3091,-2.3091,-2.3091,-2.3091,-2.3091,-2.3091,-2.3091,-2.1132,-1.9497,-1.9497,-1.7436,-1.5784,-1.5784,-1.6062,-1.703,-1.9222,-1.9761,-2.0719,-2.2862,-2.3091,-2.3091,-2.3091,-2.3091,-2.3091,-2.3091,-2.3091,-2.3091,-2.3091,-2.3091,-2.3091,-2.3091,-2.3343,-2.3507,-2.3507,-2.3757,-2.3767,-2.3507,-2.3757,-2.3887,-2.3362,-2.4801,-2.6266,-2.6728,-2.6863,-2.7052,-2.7909,-2.7631,-2.725,-2.736,-2.7279,-2.7072,-2.6431,-2.6908,-2.7862,-2.9252,-3.0923,0.0,0.0,0.0,-4.5972,-4.9275,-5.0589,0.0,0.0,0.0,0.0,0.0,0.0,0.0,0.0,0.0,-4.7092,-4.6244,-4.3187,-4.1583,-4.1587,-4.1085,-4.1542,-4.3,-4.4799,-4.655,-4.8132,-4.6771,0.0,0.0,0.0,0.0,-3.1397,-2.9216,-2.729,-2.5693,-2.5693,-2.5693,-2.5693,-2.5693,-2.5693,-2.5693,-2.5693,-2.5312,-2.4687,-2.4228,-2.3608,-2.3091,-2.3091,-2.3091,-2.3091,-2.3091,-2.3091,-2.3091,-2.3091,-2.3091,-2.3091,-2.3091,-2.3091,-2.3091,-2.3091,-2.3091,-2.3091,-2.3091,-2.1587,-2.0169,-1.9579,-1.7948,-1.648,-1.5872,-1.6292,-1.735,-1.9268,-1.9988,-2.1033,-2.2906,-2.3091,-2.3091,-2.3091,-2.3091,-2.3091,-2.3091,-2.3091,-2.3091,-2.3091,-2.3091,-2.3091,-2.3091,-2.3091,-2.3091,-2.3091,-2.3091,-2.3091,-2.3091,-2.3091,-2.3091,-2.2426,-2.3688,-2.5068,-2.6188,-2.6461,-2.6621,-2.7345,-2.7673,-2.7643,-2.6883,-2.7197,-2.7154,-2.5762,-2.6494,-2.7362,-2.7489,0.0,0.0,-3.808,-4.1732,-4.4907,-4.7916,0.0,0.0,0.0,0.0,0.0,0.0,0.0,0.0,0.0,0.0,0.0,-4.6208,-4.2026,-4.0205,-4.1028,-4.0074,-4.0689,-4.2733,-4.4622,-4.6894,-4.9448,-4.8753,-4.7586,0.0,0.0,0.0,-3.2778,-3.0379,-2.8039,-2.5965,-2.5781,-2.5693,-2.5693,-2.5693,-2.5693,-2.5693,-2.5693,-2.5109,-2.4414,-2.4414,-2.3793,-2.3091,-2.3091,-2.3091,-2.3091,-2.3091,-2.3091,-2.3091,-2.3091,-2.3091,-2.3091,-2.3091,-2.3091,-2.3091,-2.3091,-2.3091,-2.3091,-2.3091,-2.1987,-2.0755,-1.9898,-1.8634,-1.7404,-1.652,-1.7264,-1.8411,-1.9625,-2.0666,-2.1756,-2.296,-2.3091,-2.3091,-2.3091,-2.3091,-2.3091,-2.3091,-2.3091,-2.3091,-2.3091,-2.3091,-2.3091,-2.3091,-2.3091,-2.3091,-2.3091,-2.3091,-2.3091,-2.3091,-2.3091,-2.3091,-2.1797,-2.3474,-2.5306,-2.6781,-2.7075,-2.7417,-2.9038,-2.8018,-2.6964,-2.7683,-2.6479,-2.5434,-2.5887,-2.5701,-2.5829,-2.6902,0.0,-3.2638,0.0,0.0,-4.2312,0.0,0.0,0.0,0.0,0.0,0.0,0.0,0.0,0.0,0.0,0.0,0.0,-4.6208,-4.1789,-3.9068,-3.8381,-3.8376,-3.9456,-4.1572,-4.4246,-4.7115,-5.0143,-5.0033,-4.9488,0.0,0.0,-3.9866,-3.5675,-3.2144,-2.9375,-2.722,-2.611,-2.5693,-2.5693,-2.5693,-2.5693,-2.5693,-2.5693,-2.5109,-2.4414,-2.4414,-2.3793,-2.3091,-2.3091,-2.3091,-2.3091,-2.3091,-2.3091,-2.3091,-2.3091,-2.3091,-2.3091,-2.3091,-2.3091,-2.3091,-2.3091,-2.3091,-2.3091,-2.3091,-2.1311,-2.0034,-2.089,-1.9177,-1.8002,-1.881,-1.9085,-1.967,-2.089,-2.1203,-2.1756,-2.296,-2.3091,-2.3091,-2.3091,-2.3091,-2.3091,-2.3091,-2.3091,-2.3091,-2.3091,-2.3091,-2.3091,-2.3091,-2.3091,-2.3091,-2.3091,-2.3091,-2.3091,-2.3091,-2.3091,-2.3091,-2.2372,-2.3639,-2.5161,-2.7539,-2.8099,-2.8255,-2.9073,-2.8749,-2.8247,-2.8152,-2.7763,-2.7512,-2.7545,-2.7739,-2.8156,-2.9003,0.0,-3.3115,-3.691,-3.8629,0.0,0.0,0.0,0.0,0.0,0.0,0.0,0.0,0.0,0.0,0.0,0.0,0.0,0.0,-4.1458,-3.8111,-3.6418,-3.4242,-3.4984,-3.8549,-4.1843,-4.501,-4.7969,-4.98,-5.0094,-4.9029,0.0,-4.1903,-3.7047,-3.3899,-3.0602,-2.7447,-2.6197,-2.5693,-2.5693,-2.5693,-2.5693,-2.5693,-2.5693,-2.5109,-2.4414,-2.4414,-2.3793,-2.3091,-2.3091,-2.3091,-2.3091,-2.3091,-2.3091,-2.3091,-2.3091,-2.3091,-2.3091,-2.3091,-2.3091,-2.2906,-2.2262,-2.2138,-2.1917,-2.1266,-2.0268,-1.9451,-1.936,-1.8411,-1.7638,-1.7529,-1.8626,-1.9716,-2.026,-2.1489,-2.2492,-2.3047,-2.3091,-2.3091,-2.3091,-2.3091,-2.3091,-2.3091,-2.3091,-2.3091,-2.3091,-2.3091,-2.3091,-2.3091,-2.3091,-2.3091,-2.3091,-2.3091,-2.3091,-2.3101,-2.3379,-2.3486,-2.3329,-2.4395,-2.5591,-2.8228,-2.8842,-2.8927,-2.9475,-2.9886,-3.0001,-2.9386,-2.9746,-2.9993,-2.946,-2.9743,-3.0193,-3.0706,-3.1358,-3.2604,-3.5037,0.0,0.0,0.0,0.0,0.0,0.0,0.0,0.0,0.0,0.0,0.0,0.0,0.0,0.0,0.0,-4.092,-3.7015,-3.4517,-2.9886,-3.0008,-3.4893,-3.8283,-4.1725,-4.5152,-4.8304,-4.9582,-4.9232,-4.7193,-4.3545,-3.8793,-3.5332,-3.1749,-2.8229,-2.6418,-2.5693,-2.5693,-2.5693,-2.5693,-2.5693,-2.5693,-2.5109,-2.4414,-2.4414,-2.3793,-2.3091,-2.3091,-2.3091,-2.3091,-2.3091,-2.3091,-2.3091,-2.3091,-2.3091,-2.3047,-2.2775,-2.2677,-2.2359,-2.1159,-2.0863,-2.0602,-1.9679,-1.9268,-1.8864,-1.8226,-1.787,-1.7451,-1.6749,-1.8257,-1.9497,-1.9497,-2.1132,-2.2359,-2.2633,-2.2677,-2.2775,-2.3091,-2.3091,-2.3091,-2.3091,-2.3091,-2.296,-2.2677,-2.2677,-2.2583,-2.2368,-2.2368,-2.237,-2.2464,-2.2464,-2.2464,-2.2473,-2.2847,-2.2988,-2.4338,-2.6069,-2.7545,-2.8619,-2.8846,-2.9332,-3.145,-3.161,-3.1564,-3.2559,-3.1955,-3.1228,-3.1075,-3.0241,-2.9719,-3.0109,-2.993,-3.0359,0.0,0.0,0.0,0.0,0.0,0.0,0.0,0.0,0.0,0.0,0.0,0.0,0.0,0.0,0.0,0.0,0.0,-3.5515,-3.2445,-2.6305,-2.5926,-3.1212,-3.3474,-3.7349,-4.2634,-4.5138,-4.7542,-4.9645,-4.7317,-4.4871,-4.2093,-3.629,-3.2668,-3.0444,-2.7016,-2.5693,-2.5693,-2.5693,-2.5693,-2.5693,-2.5693,-2.5109,-2.4414,-2.4414,-2.3793,-2.3091,-2.3091,-2.3091,-2.3091,-2.3091,-2.3091,-2.3091,-2.3091,-2.3091,-2.2818,-2.1702,-2.1426,-2.1114,-1.9898,-1.9633,-1.9579,-1.9542,-1.8596,-1.8141,-1.9177,-1.8457,-1.8048,-1.9085,-1.9405,-1.9497,-1.9497,-1.9633,-2.0169,-2.1293,-2.1426,-2.1889,-2.3003,-2.3091,-2.3091,-2.3091,-2.3091,-2.2589,-2.148,-2.1426,-2.1013,-2.017,-2.0124,-2.0298,-2.0591,-2.0591,-2.0591,-2.0591,-2.0616,-2.0624,-2.4542,-2.6275,-2.7909,-2.9567,-3.0204,-3.0815,-3.2406,-3.2591,-3.2754,-3.3872,-3.3774,-3.3436,-3.3379,-3.2559,-3.1748,-3.1455,-3.1094,0.0,0.0,0.0,0.0,0.0,0.0,0.0,0.0,0.0,0.0,0.0,0.0,0.0,0.0,0.0,0.0,0.0,0.0,-3.4607,-3.0535,-2.4012,-2.1372,-2.2577,-2.6962,-3.1724,-3.6838,-4.1161,-4.4705,-4.7482,-4.7401,-4.5515,-4.2212,-3.8067,-3.4246,-3.0655,-2.7111,-2.4658,-2.3326,-2.4146,-2.3949,-2.3226,-2.3226,-2.3169,-2.3177,-2.3177,-2.314,-2.3091,-2.3091,-2.3091,-2.3091,-2.3091,-2.3091,-2.3091,-2.3091,-2.3091,-2.2818,-2.1569,-2.1293,-2.0755,-1.8818,-1.8365,-1.8133,-1.7343,-1.6842,-1.6662,-1.7117,-1.6796,-1.6662,-1.7117,-1.7855,-1.8365,-1.8365,-1.9039,-1.967,-2.0124,-2.0845,-2.1159,-2.0899,-2.1534,-2.1667,-2.0899,-2.1578,-2.18,-2.1337,-2.0748,-2.0256,-1.9931,-2.0105,-2.0294,-2.0377,-2.0377,-2.0377,-2.0385,-2.0655,-2.0753,-2.5115,-2.6777,-2.836,-3.0161,-3.0997,-3.1738,-3.3031,-3.3332,-3.3658,-3.4705,-3.4806,-3.4731,-3.4906,-3.3924,0.0,0.0,0.0,0.0,0.0,0.0,0.0,0.0,0.0,0.0,0.0,0.0,0.0,0.0,0.0,0.0,0.0,0.0,0.0,0.0,0.0,-3.4177,-2.9251,-2.2703,-1.8067,-1.5476,-1.9447,-2.4712,-3.1219,-3.6387,-4.0991,-4.4977,-4.6386,-4.547,-4.2694,-3.909,-3.4309,-2.9001,-2.6184,-2.3692,-2.1803,-2.2717,-2.2466,-2.1677,-2.1569,-2.1671,-2.186,-2.2178,-2.2382,-2.2589,-2.3003,-2.3091,-2.3091,-2.3091,-2.3091,-2.3091,-2.3091,-2.3091,-2.2677,-2.1123,-2.0747,-2.007,-1.763,-1.7084,-1.685,-1.5967,-1.5784,-1.5784,-1.5784,-1.5784,-1.5784,-1.5784,-1.6527,-1.7084,-1.7084,-1.7809,-1.8488,-1.891,-2.0034,-2.0395,-1.9579,-2.0317,-2.0523,-1.9662,-2.013,-2.0368,-2.0303,-1.9774,-1.9351,-1.9036,-1.9267,-1.9436,-1.9537,-1.9537,-1.9537,-1.9495,-1.9826,-1.9934,-2.6184,-2.7702,-2.9164,-3.0292,-3.1009,-3.1838,-3.3508,-3.3897,-3.4223,-3.5282,-3.5069,-3.4856,-3.5395,-3.3934,0.0,-3.1622,0.0,0.0,0.0,0.0,0.0,0.0,0.0,0.0,0.0,0.0,0.0,0.0,0.0,0.0,0.0,0.0,0.0,0.0,0.0,0.0,-2.8588,-2.2373,-1.6497,-1.1071,-1.1076,-1.6375,-2.6277,-3.0842,-3.6356,-4.2332,-4.4044,-4.4663,-4.4079,-3.9008,-3.2405,-2.5382,-2.415,-2.2868,-2.1651,-2.1702,-2.1643,-2.1593,-2.1271,-2.0916,-2.0751,-2.168,-2.1644,-2.1525,-2.2721,-2.3091,-2.3101,-2.3091,-2.3091,-2.3091,-2.3091,-2.3091,-2.2501,-2.0087,-1.9497,-1.881,-1.6332,-1.5832,-1.5784,-1.5784,-1.5784,-1.5784,-1.5784,-1.5778,-1.5778,-1.5778,-1.5784,-1.5784,-1.5784,-1.5778,-1.6244,-1.7552,-1.8772,-1.9497,-1.9497,-1.9726,-1.9884,-1.9892,-1.8995,-1.8367,-1.8089,-1.8345,-1.8074,-1.7244,-1.7206,-1.7347,-1.7582,-1.7582,-1.7582,-1.7582,-1.7582,-1.7582,-2.5168,-2.6739,-2.8348,-3.0161,-3.1599,-3.2747,-3.3206,-3.3922,-3.4788,-3.5893,-3.4942,-3.3883,-3.4087,-3.2861,0.0,0.0,0.0,0.0,0.0,0.0,0.0,0.0,0.0,0.0,0.0,0.0,0.0,0.0,0.0,0.0,0.0,0.0,0.0,0.0,0.0,0.0,-3.1272,-2.4965,-1.9606,-1.5258,-1.1378,-1.2983,-1.9596,-2.5883,-3.2162,-3.8188,-4.1566,-4.2409,-4.0944,-3.518,-2.9329,-2.4079,-2.3795,-2.171,-1.8909,-1.9878,-1.9529,-1.8519,-1.8426,-1.8577,-1.8906,-1.9194,-1.9608,-2.026,-2.148,-2.1845,-2.2031,-2.2862,-2.3091,-2.3091,-2.3091,-2.2492,-2.1667,-2.0935,-2.0124,-1.9085,-1.7498,-1.6433,-1.5784,-1.5784,-1.5784,-1.5784,-1.5784,-1.5051,-1.4459,-1.4459,-1.3638,-1.3397,-1.4316,-1.4459,-1.4943,-1.6244,-1.8265,-1.9274,-1.8699,-1.9405,-1.966,-1.9107,-1.8131,-1.7824,-1.8375,-1.7846,-1.7456,-1.7199,-1.7407,-1.7495,-1.7582,-1.7582,-1.7582,-1.7582,-1.7582,-1.7582,-2.4679,-2.6497,-2.8443,-3.0122,-3.1816,-3.3194,-3.3633,-3.4248,-3.4914,-3.5579,-3.4245,-3.3042,-3.3446,-3.2273,0.0,0.0,0.0,0.0,0.0,0.0,0.0,0.0,0.0,0.0,0.0,0.0,0.0,0.0,0.0,0.0,0.0,0.0,0.0,0.0,0.0,0.0,-3.3052,-2.7323,-2.1916,-1.679,-1.1963,-1.0725,-1.2806,-1.9685,-2.6679,-3.3607,-3.8081,-3.9134,-3.733,-3.2297,-2.76,-2.348,-2.3032,-2.0743,-1.7687,-1.8506,-1.8109,-1.7186,-1.7065,-1.7152,-1.7443,-1.7838,-1.8302,-1.8993,-2.0215,-2.0576,-2.0845,-2.2041,-2.2041,-2.1765,-2.2262,-2.1489,-2.0711,-2.1203,-2.0395,-1.9177,-1.7963,-1.7084,-1.6386,-1.592,-1.5784,-1.5635,-1.5146,-1.4411,-1.3728,-1.3199,-1.2431,-1.2377,-1.3728,-1.3926,-1.4597,-1.6379,-1.8015,-1.9011,-1.9036,-1.9869,-1.9974,-1.8984,-1.8404,-1.8147,-1.8152,-1.7627,-1.7373,-1.7373,-1.7548,-1.7582,-1.7582,-1.7582,-1.7582,-1.7582,-1.7582,-1.7582,-2.4493,-2.6604,-2.8852,-3.0079,-3.1785,-3.342,-3.4412,-3.465,-3.4618,-3.4668,-3.3238,-3.225,-3.3137,-3.1757,0.0,0.0,0.0,0.0,0.0,0.0,0.0,0.0,0.0,0.0,0.0,0.0,0.0,0.0,0.0,0.0,0.0,0.0,0.0,0.0,0.0,0.0,-3.4366,-2.9689,-2.3974,0.0,-1.3357,-0.9911,-0.718,-1.3205,-2.0595,-2.8868,-3.3654,-3.4874,-3.3193,-2.9947,-2.6439,-2.3044,-2.1921,-1.9907,-1.7542,-1.7542,-1.7393,-1.7085,-1.676,-1.6473,-1.638,-1.7225,-1.7552,-1.7731,-1.8948,-1.936,-1.9588,-2.08,-2.035,-1.9761,-2.0845,-2.026,-1.9625,-2.0845,-2.0215,-1.9039,-1.7963,-1.7598,-1.7178,-1.6015,-1.5784,-1.5391,-1.4118,-1.3776,-1.3199,-1.175,-1.1658,-1.2188,-1.3542,-1.392,-1.5026,-1.7488,-1.8274,-1.913,-2.0304,-2.0969,-2.0875,-1.9683,-1.9617,-1.9065,-1.7838,-1.7687,-1.7582,-1.7582,-1.7582,-1.7582,-1.7582,-1.7582,-1.7582,-1.7582,-1.7582,-1.7582,-2.395,-2.4997,-2.6425,-2.9585,-3.2066,-3.3784,-3.4022,-3.4073,-3.4198,-3.4625,-3.2802,-3.1226,-3.1431,-2.9501,0.0,0.0,0.0,0.0,0.0,0.0,0.0,0.0,0.0,0.0,0.0,0.0,0.0,0.0,0.0,0.0,0.0,0.0,0.0,0.0,0.0,-3.7728,-3.6981,-3.3132,-2.8965,0.0,-1.8605,-1.3756,-1.0019,-1.1256,-1.6837,-2.5685,-2.7966,-2.8846,-2.8405,-2.5761,-2.3026,-2.0412,-2.0128,-1.8912,-1.7293,-1.7293,-1.6965,-1.6502,-1.6386,-1.6172,-1.596,-1.613,-1.6204,-1.6433,-1.7723,-1.8095,-1.8319,-1.9542,-1.9716,-1.9534,-1.9807,-1.8993,-1.8411,-1.9579,-1.8956,-1.8002,-1.7777,-1.6897,-1.6109,-1.5825,-1.5784,-1.5391,-1.4118,-1.3006,-1.1556,-0.9213,-0.9752,-1.0877,-1.2139,-1.4082,-1.6069,-1.798,-2.0,-2.1608,-2.2551,-2.2602,-2.2628,-2.2737,-2.0754,-1.9472,-1.9169,-1.8146,-1.7582,-1.7582,-1.7582,-1.7582,-1.7582,-1.7582,-1.7582,-1.7582,-1.7582,-1.7582,-2.3382,-2.4612,-2.6247,-2.9191,-3.0822,-3.192,-3.2479,-3.2155,-3.2004,-3.2832,-3.1952,-3.095,-3.0519,0.0,0.0,0.0,0.0,0.0,0.0,0.0,0.0,0.0,0.0,0.0,0.0,0.0,0.0,0.0,0.0,0.0,0.0,-3.4587,0.0,0.0,-3.7548,-3.7791,-3.7791,-3.5368,-3.2288,-2.8632,-2.2954,-1.6745,-1.02,-1.0378,-1.3952,-2.0062,-2.2228,-2.3546,-2.4041,-2.2855,-2.1097,-1.9157,-1.9157,-1.8261,-1.6941,-1.6941,-1.6703,-1.6321,-1.6321,-1.6079,-1.5784,-1.5784,-1.5784,-1.592,-1.6574,-1.6803,-1.703,-1.8272,-1.8218,-1.7894,-1.8495,-1.7282,-1.6055,-1.6692,-1.7282,-1.7692,-1.7692,-1.7178,-1.6527,-1.592,-1.5784,-1.5194,-1.3253,-1.1307,-0.9801,-0.9069,-0.9558,-1.0998,-1.3711,-1.5214,-1.7146,-2.0066,-2.1707,-2.3052,-2.4049,-2.4217,-2.4122,-2.3732,-2.2366,-2.0947,-1.9627,-1.8916,-1.8244,-1.7635,-1.7582,-1.7582,-1.7582,-1.7582,-1.7582,-1.7582,-1.7582,-1.7582,-2.2637,-2.4547,-2.6732,-2.8503,-2.9214,-2.9659,-3.0571,-2.9998,-2.958,-3.0475,-3.0782,-3.0714,0.0,0.0,0.0,0.0,0.0,0.0,0.0,0.0,0.0,0.0,0.0,0.0,0.0,0.0,0.0,0.0,0.0,0.0,-3.2727,-3.2855,-3.3827,-3.5894,-3.6884,-3.7467,-3.7633,-3.6521,-3.4498,-3.1512,-2.6417,-1.9633,-1.157,-1.1346,-1.2302,-1.4298,-1.7117,-1.9071,-2.02,-2.0335,-1.9615,-1.8361,-1.8361,-1.7648,-1.6627,-1.6627,-1.6446,-1.6192,-1.6192,-1.6039,-1.5784,-1.5784,-1.5784,-1.5784,-1.5784,-1.5784,-1.6015,-1.7084,-1.6622,-1.6062,-1.7084,-1.5643,-1.3926,-1.3926,-1.5345,-1.668,-1.668,-1.6875,-1.6763,-1.5736,-1.5604,-1.4944,-1.2796,-1.0384,-0.9203,-1.0339,-1.087,-1.248,-1.5998,-1.705,-1.8818,-2.2319,-2.3251,-2.4019,-2.5128,-2.5527,-2.5226,-2.4097,-2.384,-2.2576,-2.0084,-1.9731,-1.8961,-1.7635,-1.7582,-1.7582,-1.7582,-1.7582,-1.7477,-1.7199,-1.7199,-1.7199,-2.1424,-2.3835,-2.6433,-2.7073,-2.8329,-2.9341,-2.915,-2.9015,-2.8801,0.0,-2.9127,0.0,0.0,0.0,0.0,0.0,0.0,0.0,0.0,0.0,0.0,0.0,0.0,0.0,0.0,0.0,0.0,0.0,0.0,0.0,-3.2988,-3.3043,-3.3645,-3.4856,-3.5389,-3.6041,-3.6942,-3.6249,-3.5473,-3.4558,-2.8139,-2.3362,-2.0095,-1.6006,-1.3002,-1.1253,-1.4106,-1.611,-1.7365,-1.7306,-1.7177,-1.695,-1.695,-1.6695,-1.6333,-1.6333,-1.6146,-1.5885,-1.5885,-1.5865,-1.5784,-1.5784,-1.5784,-1.5784,-1.5784,-1.5784,-1.5832,-1.6015,-1.592,-1.5825,-1.6015,-1.4991,-1.3926,-1.3926,-1.3247,-1.2668,-1.2668,-1.3578,-1.4418,-1.4509,-1.4743,-1.4793,-1.4492,-1.3172,-1.221,-1.2414,-1.4395,-1.6084,-1.6675,-1.9669,-2.2129,-2.3084,-2.4202,-2.5081,-2.5567,-2.5654,-2.5635,-2.543,-2.4353,-2.3026,-2.1499,-2.0231,-1.8961,-1.7635,-1.7582,-1.7582,-1.7582,-1.7582,-1.6929,-1.5689,-1.5689,-1.5689,-2.1639,-2.3179,-2.4678,-2.533,-2.6059,-2.6739,-2.7286,-2.6838,-2.6469,-2.6973,-2.7388,0.0,0.0,0.0,0.0,0.0,0.0,0.0,0.0,0.0,0.0,0.0,0.0,0.0,0.0,0.0,0.0,0.0,0.0,-3.0171,-3.1077,-3.1723,-3.229,-3.2847,-3.4456,-3.5367,-3.5442,-3.6775,-3.7053,-3.633,-3.1754,-2.8542,-2.652,-2.2745,-1.7788,-1.2364,-1.4524,-1.5778,-1.6339,-1.7149,-1.7419,-1.7166,-1.6455,-1.6139,-1.6025,-1.6025,-1.5939,-1.5784,-1.5784,-1.5784,-1.5784,-1.5784,-1.5784,-1.5784,-1.5784,-1.5784,-1.5784,-1.5784,-1.5784,-1.5784,-1.5784,-1.4322,-1.277,-1.277,-1.1209,-0.9731,-0.9838,-1.1484,-1.3226,-1.4225,-1.5251,-1.567,-1.4945,-1.4188,-1.4019,-1.493,-1.5909,-1.7253,-1.9045,-2.0744,-2.1945,-2.2382,-2.3528,-2.4403,-2.4541,-2.5274,-2.5693,-2.5693,-2.5177,-2.4205,-2.2868,-2.1499,-2.0128,-1.876,-1.7996,-1.7582,-1.7582,-1.7582,-1.6823,-1.5417,-1.5417,-1.5417,-2.1602,-2.249,-2.312,-2.3861,-2.4258,-2.4605,-2.5464,-2.4912,-2.4483,0.0,0.0,0.0,0.0,0.0,0.0,0.0,0.0,0.0,0.0,0.0,0.0,0.0,0.0,0.0,0.0,0.0,0.0,0.0,0.0,-2.9539,-3.0365,-3.1434,-3.2014,-3.2142,-3.4122,-3.4966,-3.4529,-3.7104,-3.8154,-3.7693,-3.5615,-3.3875,-3.2357,-2.9787,-2.4959,-1.8576,-1.8348,-1.7947,-1.7505,-1.8746,-1.8621,-1.7598,-1.6669,-1.6109,-1.5825,-1.6157,-1.6062,-1.5825,-1.615,-1.6062,-1.5784,-1.5784,-1.5784,-1.5784,-1.5784,-1.5784,-1.5784,-1.5784,-1.5784,-1.5784,-1.5784,-1.4124,-1.2431,-1.2431,-1.0422,-0.8621,-0.8744,-1.0696,-1.2836,-1.435,-1.6137,-1.7027,-1.6055,-1.5909,-1.6375,-1.7648,-1.7989,-1.8877,-2.1048,-2.1635,-2.1794,-2.1719,-2.2567,-2.3176,-2.3176,-2.4402,-2.5177,-2.5177,-2.5528,-2.4971,-2.3276,-2.2206,-2.0888,-1.9117,-1.8094,-1.7582,-1.7582,-1.7199,-1.628,-1.4877,-1.4502,-1.4502,-2.0458,-2.1582,-2.2646,-2.3052,-2.3773,-2.4316,-2.3996,-2.3863,-2.3701,-2.3325,0.0,0.0,0.0,0.0,0.0,0.0,0.0,0.0,0.0,0.0,0.0,0.0,0.0,0.0,0.0,0.0,0.0,0.0,0.0,-3.1398,-3.2581,-3.3571,-3.4121,-3.4156,-3.4665,-3.4917,-3.4874,-3.6863,-3.8173,-3.8832,-3.9246,-3.8918,-3.7942,-3.6506,-3.4519,-3.1881,-2.6686,-2.3304,-2.1549,-2.2107,-2.0527,-1.7684,-1.7645,-1.685,-1.5967,-1.7178,-1.685,-1.5967,-1.7178,-1.6803,-1.5784,-1.5784,-1.5784,-1.5784,-1.5784,-1.5784,-1.5784,-1.5784,-1.5784,-1.5784,-1.5784,-1.48,-1.3776,-1.3776,-1.1895,-1.01,-1.0108,-1.1615,-1.3367,-1.4694,-1.7068,-1.8867,-1.8766,-1.9512,-2.0265,-2.072,-2.185,-2.2429,-2.177,-2.2791,-2.31,-2.1845,-2.1752,-2.1803,-2.1803,-2.3026,-2.3791,-2.3791,-2.502,-2.451,-2.1904,-2.1752,-2.0428,-1.7733,-1.7635,-1.7582,-1.7582,-1.6227,-1.4776,-1.3372,-1.1969,-1.2077,-1.999,-2.0898,-2.1756,-2.2227,-2.2764,-2.3154,-2.3008,-2.3174,-2.3286,-2.312,0.0,0.0,0.0,0.0,0.0,0.0,0.0,0.0,0.0,0.0,0.0,0.0,0.0,0.0,0.0,0.0,0.0,0.0,0.0,0.0,-3.2684,-3.3717,-3.3973,-3.3211,-3.4328,-3.5258,-3.5976,-3.7194,-3.8177,-3.8908,-3.9638,-4.019,-4.0556,-3.9674,-3.9074,-3.8546,-3.5714,-3.1523,-2.6625,-2.5121,-2.3542,-2.177,-1.9703,-1.8588,-1.8218,-1.868,-1.858,-1.8257,-1.868,-1.8041,-1.7037,-1.7037,-1.648,-1.5784,-1.5784,-1.5784,-1.5784,-1.5784,-1.5784,-1.5784,-1.5784,-1.498,-1.3964,-1.3336,-1.1867,-1.0671,-1.0671,-1.177,-1.291,-1.3483,-1.7046,-1.975,-1.8828,-2.0191,-2.1555,-2.1835,-2.217,-2.209,-2.137,-2.1652,-2.1237,-1.9295,-1.9826,-2.0333,-2.0333,-2.16,-2.2416,-2.2416,-2.2868,-2.2717,-2.1752,-2.0837,-1.9878,-1.8909,-1.8042,-1.7582,-1.7582,-1.6115,-1.4663,-1.3264,-1.181,-1.1374,-1.9088,-1.9643,-2.0203,-2.0611,-2.095,-2.1219,-2.1454,-2.1611,-2.1785,-2.188,0.0,0.0,0.0,0.0,0.0,0.0,0.0,0.0,0.0,0.0,0.0,0.0,0.0,0.0,0.0,0.0,0.0,0.0,0.0,0.0,-3.308,-3.4341,-3.4714,-3.3969,-3.4946,-3.5839,-3.6584,-3.7114,-3.7889,-3.8908,-3.9638,-4.0621,-4.1793,-4.1599,-4.1707,-4.2041,-4.0954,-3.6957,-3.1069,-2.8761,-2.6462,-2.4157,-2.1653,-2.0189,-1.9542,-1.9943,-1.9852,-1.9534,-1.9943,-1.9314,-1.8319,-1.8319,-1.7451,-1.6433,-1.6433,-1.6157,-1.5784,-1.5784,-1.5784,-1.5784,-1.5784,-1.54,-1.4733,-1.3627,-1.2462,-1.142,-1.1063,-1.1872,-1.2702,-1.28,-1.6907,-2.0054,-1.9155,-2.0848,-2.2463,-2.2825,-2.2704,-2.2205,-2.1045,-2.0925,-2.0108,-1.7721,-1.8338,-1.8916,-1.8916,-2.0179,-2.0998,-2.0998,-2.1448,-2.1499,-2.099,-2.0084,-1.9376,-1.8968,-1.7555,-1.6876,-1.6876,-1.5417,-1.3965,-1.2512,-1.1051,-1.0621,0.0,0.0,0.0,-1.83,-1.8476,-1.8754,-1.9344,0.0,-1.914,0.0,0.0,0.0,0.0,0.0,0.0,0.0,0.0,0.0,0.0,0.0,0.0,0.0,0.0,0.0,0.0,0.0,0.0,0.0,0.0,-3.3993,-3.3993,-3.5631,-3.6584,-3.6584,-3.6584,-3.6584,-3.6584,-3.6584,-3.735,-3.8854,-3.9469,-4.0453,-4.175,-4.2362,-4.2635,-4.2616,-4.2021,-3.9135,-3.4683,-3.2868,-2.9151,-2.4493,-2.3481,-2.1682,-1.9807,-2.0935,-2.0621,-1.9761,-2.0935,-2.0576,-1.9534,-1.9534,-1.8726,-1.7692,-1.7692,-1.6803,-1.5784,-1.5784,-1.5784,-1.5784,-1.5743,-1.6011,-1.596,-1.4809,-1.3615,-1.2472,-1.1326,-1.1961,-1.2768,-1.2768,-1.6583,-1.9868,-1.9868,-2.1654,-2.3193,-2.3711,-2.3769,-2.3024,-2.0895,-2.081,-1.9998,-1.7493,-1.7454,-1.7569,-1.7582,-1.8812,-1.9524,-1.9524,-2.0845,-2.099,-1.9576,-1.9524,-1.8916,-1.7582,-1.6121,-1.5364,-1.5257,-1.3911,-1.2512,-1.1051,-0.9644,-0.9754,-1.688,0.0,0.0,0.0,0.0,0.0,0.0,0.0,0.0,0.0,0.0,0.0,0.0,0.0,0.0,0.0,0.0,0.0,0.0,0.0,0.0,0.0,0.0,0.0,0.0,0.0,0.0,0.0,-3.2321,-3.3276,-3.3959,-3.5631,-3.6368,-3.5799,-3.6337,-3.6337,-3.5814,-3.6322,-3.6797,-3.7231,-3.8542,-3.9572,-4.0381,-4.108,-4.1402,-4.1402,-4.1223,-3.9849,-3.7498,-3.4297,-3.1463,-2.8867,-2.5572,-2.3902,-2.3288,-2.278,-2.2403,-2.2138,-2.2492,-2.18,-2.08,-2.08,-1.9405,-1.7692,-1.7692,-1.6803,-1.5784,-1.5784,-1.5784,-1.5634,-1.4898,-1.485,-1.4758,-1.3667,-1.2481,-1.1432,-1.1027,-1.1014,-1.1345,-1.2331,-1.5631,-1.8598,-1.9461,-2.0826,-2.2122,-2.3159,-2.3276,-2.2834,-2.1616,-2.0745,-1.9765,-1.86,-1.7774,-1.7407,-1.7562,-1.7943,-1.8146,-1.8146,-1.8499,-1.8551,-1.8146,-1.8146,-1.7503,-1.6068,-1.563,-1.4395,-1.2295,-1.1919,-1.1483,-1.1105,-1.0672,-1.1269,-1.6139,-1.5923,-1.6122,-1.6122,0.0,0.0,0.0,-1.714,0.0,0.0,0.0,0.0,0.0,0.0,0.0,0.0,0.0,0.0,0.0,0.0,0.0,0.0,0.0,0.0,0.0,0.0,0.0,-3.1217,-3.2069,-3.3003,-3.3873,-3.525,-3.5806,-3.5402,-3.6166,-3.6259,-3.5504,-3.5926,-3.6306,-3.66,-3.7496,-3.8592,-3.98,-4.0246,-4.061,-4.0938,-4.0903,-4.0126,-3.8668,-3.5784,-3.3341,-3.1093,-2.7512,-2.5576,-2.466,-2.3507,-2.3091,-2.3091,-2.3091,-2.2633,-2.2031,-2.2031,-2.0764,-1.9093,-1.8596,-1.7584,-1.648,-1.5967,-1.5439,-1.4885,-1.4303,-1.3893,-1.3465,-1.2879,-1.183,-1.0892,-1.0835,-1.056,-1.0732,-1.2059,-1.4759,-1.7453,-1.9214,-2.0486,-2.1712,-2.2906,-2.3091,-2.2729,-2.1726,-2.1064,-2.0209,-1.893,-1.8275,-1.7874,-1.7608,-1.7582,-1.7582,-1.7582,-1.7582,-1.7582,-1.7582,-1.7582,-1.7199,-1.6333,-1.5683,-1.4282,-1.2023,-1.1378,-1.1105,-1.1105,-1.1105,-1.1914,-1.5419,-1.4804,-1.4563,-1.4529,-1.4543,0.0,-1.519,-1.5097,-1.507,0.0,0.0,0.0,0.0,0.0,0.0,0.0,0.0,0.0,0.0,0.0,0.0,0.0,0.0,0.0,0.0,-3.038,-3.0906,-3.1044,-3.1802,-3.251,-3.3119,-3.4251,-3.4872,-3.4901,-3.5887,-3.6166,-3.5651,-3.5537,-3.5863,-3.6615,-3.6615,-3.7607,-3.9444,-3.9615,-4.0109,-4.0767,-4.0803,-4.0118,-3.8891,-3.7324,-3.4936,-3.1997,-2.9046,-2.6717,-2.484,-2.3551,-2.3091,-2.3091,-2.3091,-2.3003,-2.2906,-2.2906,-2.1987,-2.0711,-1.9633,-1.8457,-1.7225,-1.5961,-1.4752,-1.3824,-1.3536,-1.2795,-1.2129,-1.1979,-1.1174,-1.0483,-1.0617,-1.0429,-1.0604,-1.2084,-1.4087,-1.6336,-1.9023,-2.0395,-2.1578,-2.2906,-2.3091,-2.2721,-2.1658,-2.1671,-2.1036,-1.8905,-1.8897,-1.8629,-1.766,-1.7582,-1.7582,-1.7582,-1.7582,-1.7582,-1.7582,-1.7582,-1.7529,-1.7364,-1.5902,-1.4556,-1.3318,-1.1969,-1.1324,-1.1378,-1.1483,-1.2295,-1.5012,-1.4778,-1.4823,-1.4583,0.0,0.0,-1.4716,-1.4649,-1.471,0.0,0.0,0.0,0.0,0.0,0.0,0.0,0.0,0.0,0.0,0.0,0.0,0.0,0.0,0.0,0.0,-2.86,-2.9096,-2.9985,-3.0075,-2.9796,-2.9108,-3.1361,-3.2778,-3.2939,-3.4578,-3.5776,-3.6384,-3.5814,-3.5863,-3.6615,-3.6615,-3.6828,-3.7288,-3.8515,-3.9143,-3.9361,-3.9978,-4.0129,-3.9782,-3.8821,-3.6442,-3.3111,-2.9352,-2.7175,-2.5933,-2.3844,-2.3091,-2.3091,-2.3091,-2.2448,-2.1658,-2.1658,-2.0169,-1.8365,-1.8141,-1.7171,-1.5913,-1.4651,-1.407,-1.344,-1.1307,-1.0721,-1.0365,-0.9325,-0.8991,-0.9168,-1.0094,-1.0234,-1.0865,-1.3105,-1.395,-1.5373,-1.8886,-1.9716,-2.0584,-2.2775,-2.3091,-2.3003,-2.2775,-2.2278,-2.1465,-2.0151,-1.9487,-1.8724,-1.7713,-1.7582,-1.7582,-1.7582,-1.7582,-1.7582,-1.7582,-1.7582,-1.7041,-1.5849,-1.4449,-1.3588,-1.3318,-1.2994,-1.2891,-1.2886,-1.4014,-1.4716,-1.5164,-1.4957,-1.511,-1.4816,0.0,0.0,0.0,-1.4629,-1.4643,-1.509,0.0,0.0,0.0,0.0,0.0,0.0,0.0,0.0,0.0,0.0,0.0,0.0,0.0,0.0,0.0,-2.6948,-2.7545,-2.8131,-2.8048,-2.7474,-2.63,-2.8637,-3.0018,-3.0056,-3.2486,-3.4295,-3.5277,-3.5444,-3.5701,-3.6054,-3.6054,-3.6244,-3.663,-3.7408,-3.8157,-3.8908,-3.9315,-3.9731,-4.002,-3.8843,-3.7062,-3.4685,-3.0728,-2.8098,-2.6224,-2.393,-2.3091,-2.3091,-2.3091,-2.2306,-2.1293,-2.1293,-2.0079,-1.8503,-1.787,-1.6803,-1.5683,-1.5045,-1.3932,-1.2619,-1.1312,-1.0016,-0.894,-0.8301,-0.8211,-0.8391,-0.8959,-0.9634,-1.0645,-1.2543,-1.344,-1.5095,-1.8832,-1.9497,-2.0314,-2.2731,-2.3091,-2.3169,-2.3437,-2.3149,-2.2575,-2.176,-2.0761,-1.9666,-1.8679,-1.7996,-1.7582,-1.7582,-1.7582,-1.7582,-1.7582,-1.7582,-1.7252,-1.6499,-1.5796,-1.5423,-1.5423,-1.5423,-1.5097,-1.4341,-1.5091,-1.5796,0.0,0.0,0.0,0.0,0.0,-1.5048,0.0,0.0,0.0,-1.5057,0.0,0.0,0.0,0.0,0.0,0.0,0.0,0.0,0.0,0.0,0.0,0.0,0.0,0.0,0.0,-2.5561,-2.6289,-2.6171,-2.5865,-2.5175,-2.4016,-2.562,-2.6748,-2.7057,-2.9968,-3.2274,-3.3892,-3.4762,-3.5377,-3.5701,-3.5569,-3.5814,-3.6384,-3.6523,-3.7277,-3.8481,-3.8635,-3.9076,-3.9558,-3.8318,-3.7154,-3.5798,-3.2055,-2.9163,-2.6808,-2.4585,-2.3767,-2.3724,-2.3507,-2.2463,-2.1221,-2.1016,-1.998,-1.8626,-1.7638,-1.6622,-1.573,-1.5486,-1.3932,-1.2237,-1.1945,-1.0337,-0.8676,-0.8432,-0.8382,-0.8382,-0.8382,-0.9217,-1.0435,-1.1994,-1.3151,-1.5095,-1.8832,-1.9497,-2.0314,-2.2731,-2.3091,-2.3257,-2.374,-2.3857,-2.3685,-2.3063,-2.1863,-2.0728,-1.9708,-1.8349,-1.7582,-1.7582,-1.7582,-1.7582,-1.7582,-1.7582,-1.7582,-1.7582,-1.7582,-1.7582,-1.7582,-1.7582,-1.6988,-1.5796,-1.5796,-1.6446,0.0,0.0,0.0,0.0,-1.5157,0.0,0.0,0.0,-1.4469,-1.4275,0.0,0.0,0.0,0.0,0.0,0.0,0.0,0.0,0.0,0.0,0.0,0.0,0.0,0.0,0.0,0.0,-2.5624,-2.5052,-2.3634,-2.246,-2.1692,-2.1776,-2.276,-2.4733,-2.7023,-2.9952,-3.3518,-3.3951,-3.4949,-3.6477,-3.5814,-3.5522,-3.5636,-3.6306,-3.6691,-3.6888,-3.7632,-3.7978,-3.8035,-3.7863,-3.6826,-3.5049,-3.2083,-3.0211,-2.8909,-2.6878,-2.6099,-2.5975,-2.4967,-2.3065,-2.098,-2.0008,-1.8118,-1.6197,-1.6062,-1.592,-1.5581,-1.4411,-1.3926,-1.3392,-1.2188,-1.1702,-1.1165,-1.0047,-0.9756,-0.9756,-0.9756,-0.9903,-1.073,-1.3199,-1.3776,-1.5095,-1.8832,-1.9497,-2.0314,-2.2731,-2.3091,-2.3257,-2.374,-2.4111,-2.4,-2.3091,-2.2143,-2.1052,-1.9731,-1.8349,-1.7582,-1.7582,-1.7582,-1.7582,-1.7582,-1.7582,-1.7582,-1.7582,-1.7582,-1.7582,-1.7582,-1.7582,-1.7523,-1.7364,-1.7364,-1.7417,0.0,0.0,0.0,0.0,0.0,0.0,-1.4462,0.0,-1.4282,0.0,0.0,0.0,0.0,0.0,0.0,0.0,0.0,0.0,0.0,0.0,0.0,0.0,0.0,0.0,0.0,0.0,0.0,0.0,0.0,-2.1791,-2.0324,-2.0891,-2.1618,-2.2457,-2.5291,-2.8462,-3.2028,-3.335,-3.4681,-3.5943,-3.5055,-3.4953,-3.5504,-3.5207,-3.5631,-3.66,-3.6964,-3.7368,-3.7748,-3.7308,-3.666,-3.5792,-3.3611,-3.1412,-2.9258,-2.7244,-2.6524,-2.6431,-2.5964,-2.4193,-2.1803,-1.9289,-1.777,-1.6897,-1.6897,-1.6897,-1.6936,-1.712,-1.661,-1.5879,-1.5302,-1.4082,-1.286,-1.2325,-1.1093,-0.9998,-0.9998,-0.9998,-1.0337,-1.1404,-1.2856,-1.4851,-1.7849,-1.8999,-2.0314,-2.2731,-2.3091,-2.3335,-2.4062,-2.4307,-2.4444,-2.4533,-2.3534,-2.2617,-2.2013,-2.0735,-1.9973,-1.9973,-1.9213,-1.876,-1.876,-1.7989,-1.7582,-1.7582,-1.7582,-1.7582,-1.7582,-1.8401,-1.876,-1.876,-1.7943,-1.7582,-1.5872,0.0,0.0,0.0,0.0,0.0,0.0,0.0,0.0,0.0,0.0,0.0,0.0,0.0,0.0,0.0,0.0,0.0,0.0,0.0,0.0,0.0,0.0,0.0,0.0,0.0,0.0,0.0,0.0,0.0,-2.0053,-2.0522,-2.0891,-2.1131,-2.4104,-2.7144,-3.0136,-3.219,-3.3719,-3.4706,-3.3973,-3.4007,-3.4706,-3.4211,-3.4703,-3.59,-3.6197,-3.6631,-3.7115,-3.6245,-3.6041,-3.6103,-3.4336,-3.2417,-3.0488,-2.8527,-2.7631,-2.7342,-2.7046,-2.523,-2.2499,-1.9575,-1.8434,-1.8187,-1.8187,-1.8395,-1.8824,-1.9674,-1.9463,-1.8928,-1.8928,-1.7629,-1.6097,-1.5417,-1.3606,-1.1734,-1.0698,-1.023,-0.9998,-0.9998,-1.1794,-1.413,-1.6567,-1.8379,-2.0314,-2.2731,-2.3091,-2.3364,-2.415,-2.4346,-2.4707,-2.5469,-2.4436,-2.3692,-2.3692,-2.2458,-2.1702,-2.1702,-2.0743,-1.9981,-1.9627,-1.8655,-1.7996,-1.7635,-1.7582,-1.7786,-1.8146,-1.9117,-1.9782,-2.0135,-1.9169,-1.8499,0.0,0.0,0.0,-1.5117,0.0,0.0,0.0,0.0,-1.4429,0.0,0.0,0.0,0.0,0.0,-1.0577,-1.0577,0.0,0.0,0.0,0.0,0.0,0.0,0.0,0.0,0.0,0.0,0.0,0.0,0.0,0.0,-2.1167,-2.0169,-2.0079,-2.1248,-2.3481,-2.5744,-2.7997,-3.0189,-3.1742,-3.2713,-3.2664,-3.2664,-3.2713,-3.3602,-3.4013,-3.4129,-3.5118,-3.5569,-3.5489,-3.4495,-3.4643,-3.5344,-3.3394,-3.3122,-3.3622,-3.1729,-3.0469,-2.9546,-2.8426,-2.5834,-2.2795,-2.1414,-2.0309,-1.9451,-1.9451,-2.0183,-2.0997,-2.1042,-2.1789,-2.263,-2.263,-2.2577,-2.1898,-1.9566,-1.8077,-1.6156,-1.2539,-1.083,-0.9998,-0.9998,-1.1072,-1.2753,-1.5341,-1.7841,-2.0314,-2.2731,-2.3091,-2.3257,-2.375,-2.417,-2.459,-2.5086,-2.4259,-2.3692,-2.3692,-2.2458,-2.1702,-2.1702,-2.1651,-2.1041,-1.9679,-1.9576,-1.8916,-1.7635,-1.7582,-1.8251,-1.9524,-1.9576,-2.029,-2.1651,-2.16,-2.0837,0.0,0.0,-1.5684,-1.5344,0.0,0.0,0.0,0.0,0.0,0.0,0.0,0.0,0.0,0.0,-1.1209,-0.971,-0.8853,0.0,0.0,0.0,0.0,0.0,0.0,0.0,0.0,0.0,0.0,0.0,0.0,0.0,0.0,-2.1566,-2.2315,-2.3448,-2.4934,-2.6788,-2.8924,-3.0441,-3.1669,-3.2593,-3.196,-3.1997,-3.2593,-3.2925,-3.3415,-3.4061,-3.5067,-3.5133,-3.4461,-3.4129,-3.3822,-3.3581,-3.3533,-3.3345,-3.2925,-3.1669,-3.1007,-3.0456,-2.8718,-2.7325,-2.5906,-2.3232,-2.2573,-2.2737,-2.2051,-2.2582,-2.3602,-2.445,-2.4935,-2.5271,-2.5271,-2.4619,-2.3785,-2.2975,-2.0633,-1.8024,-1.5963,-1.3927,-1.204,-1.0333,-1.1745,-1.3471,-1.4279,-1.7255,-2.0034,-2.1667,-2.2589,-2.3257,-2.374,-2.3916,-2.416,-2.459,-2.4631,-2.4641,-2.4641,-2.445,-2.4353,-2.4353,-2.3534,-2.2826,-2.2316,-2.059,-1.9376,-1.8916,-1.8042,-1.8244,-1.9576,-2.0538,-2.1702,-2.3026,-2.3939,-2.3126,-1.8457,-1.7762,0.0,-1.6771,-1.6584,0.0,-1.5323,0.0,0.0,0.0,0.0,0.0,0.0,0.0,0.0,-1.0498,-0.9844,-0.91,0.0,-0.7492,0.0,0.0,0.0,0.0,0.0,0.0,-1.4276,-1.6735,0.0,0.0,0.0,0.0,-2.4151,-2.5249,-2.6367,-2.7594,-2.8985,-3.0139,-3.102,-3.1586,-3.0983,-3.102,-3.1623,-3.2285,-3.2925,-3.3567,-3.492,-3.4953,-3.3993,-3.3636,-3.3136,-3.2664,-3.3276,-3.3345,-3.3031,-3.2429,-3.1779,-3.1018,-2.9679,-2.8706,-2.7752,-2.5532,-2.5009,-2.5135,-2.4449,-2.4967,-2.5997,-2.6849,-2.7371,-2.7678,-2.7678,-2.7059,-2.6356,-2.5945,-2.3436,-2.0678,-1.9011,-1.6483,-1.3844,-1.1759,-1.2748,-1.3909,-1.382,-1.6617,-1.9405,-2.1069,-2.235,-2.3198,-2.3525,-2.3691,-2.3896,-2.417,-2.4717,-2.5184,-2.5293,-2.5566,-2.5693,-2.5693,-2.5333,-2.466,-2.3741,-2.2424,-2.1263,-2.0385,-1.9013,-1.922,-2.1049,-2.1499,-2.2617,-2.4452,-2.5274,-2.4766]},{"header":{"parameterUnit":"m.s-1","parameterCategory":1,"la1":30.6,"la2":29.2853,"lo1":-89.7004,"lo2":-87.6739,"dy":0.0162,"dx":0.0183,"nx":112,"ny":82,"refTime":"2024-08-30T18:00:00:Z","depth":0,"parameterNumber":3,"parameterNumberName":"V-component_of_WINDS"},"data":[0.0,0.0,0.0,0.0,0.0,0.0,0.0,0.0,0.0,0.0,0.0,0.0,0.0,0.0,0.0,0.0,0.0,0.0,0.0,0.0,0.0,0.0,0.0,0.0,0.0,0.0,0.0,0.0,0.0,0.0,0.0,0.0,0.0,0.0,0.0,0.0,0.0,0.0,0.0,0.0,0.0,0.0,0.0,0.0,0.0,0.0,0.0,0.0,0.0,0.0,0.0,0.0,0.0,0.0,0.0,0.0,0.0,0.0,0.0,0.0,0.0,0.0,0.0,0.0,0.0,0.0,0.0,0.0,0.0,0.0,0.0,0.0,0.0,0.0,0.0,0.0,0.0,0.0,0.0,0.0,0.0,0.0,0.0,0.0,0.0,0.0,0.0,0.0,0.0,0.0,0.7885,0.7245,0.7529,0.816,0.9178,1.0165,1.0731,1.0608,0.0,0.0,0.0,0.0,0.0,0.0,0.0,0.0,0.0,0.0,0.0,0.0,0.0,0.0,0.0,0.0,0.0,0.0,0.0,0.0,0.0,0.0,0.0,0.0,0.0,0.0,0.0,0.0,0.0,0.0,0.0,0.0,0.0,0.0,0.0,0.0,0.0,0.0,0.0,0.0,0.0,0.0,0.0,0.0,0.0,0.0,0.0,0.0,0.0,0.0,0.0,0.0,0.0,0.0,0.0,0.0,0.0,0.0,0.0,0.0,0.0,0.0,0.0,0.0,0.0,0.0,0.0,0.0,0.0,0.0,0.0,0.0,0.0,0.0,0.0,0.0,0.0,0.0,0.0,0.0,0.0,0.0,0.0,0.0,0.0,0.0,0.0,0.0,0.0,0.0,0.0,0.0,0.0,0.0,0.0,0.0,0.0,0.0,0.0,0.0,0.0,0.0,0.0,0.0,0.7775,0.7543,0.7475,0.7925,0.9022,1.0039,1.0601,1.0596,0.0,0.0,0.0,0.0,0.0,0.0,0.0,0.0,0.0,0.0,0.0,0.0,0.0,0.0,0.0,0.0,0.0,0.0,0.0,0.0,0.0,0.0,0.0,0.0,0.0,0.0,0.0,0.0,0.0,0.0,0.0,0.0,0.0,0.0,0.0,0.0,0.0,0.0,0.0,0.0,0.0,0.0,0.0,0.0,0.0,0.0,0.0,0.0,0.0,0.0,0.0,0.0,0.0,0.0,0.0,0.0,0.0,0.0,0.0,0.0,0.0,0.0,0.0,0.0,0.0,0.0,0.0,0.0,0.0,0.0,0.0,0.0,0.0,0.0,0.0,0.0,0.0,0.0,0.0,0.0,0.0,0.0,0.0,0.0,0.0,0.0,0.0,0.0,0.0,0.0,0.0,0.0,0.0,0.0,0.0,0.0,0.0,0.0,0.0,0.0,0.0,0.0,0.0,0.918,0.9141,0.9451,0.9362,0.9696,1.0895,1.1304,1.1517,1.1502,1.1462,0.0,0.0,0.0,0.0,0.0,0.0,0.0,0.0,0.0,0.0,0.0,0.0,0.0,0.0,0.0,0.0,0.0,0.0,0.0,0.0,0.0,0.0,0.0,0.0,0.0,0.0,0.0,0.0,0.0,0.0,0.0,0.0,0.0,0.0,0.0,0.0,0.0,0.0,0.0,0.0,0.0,0.0,0.0,0.0,0.0,0.0,0.0,0.0,0.0,0.0,0.0,0.0,0.0,0.0,0.0,0.0,0.0,0.0,0.0,0.0,0.0,0.0,0.0,0.0,0.0,0.0,0.0,0.0,0.0,0.0,0.0,0.0,0.0,0.0,0.0,0.0,0.0,0.0,0.0,0.0,0.0,0.0,0.0,0.0,0.0,0.0,0.0,0.0,0.0,0.0,0.0,0.0,0.0,0.0,0.0,0.0,0.0,0.0,0.0,0.0,0.0,0.0,1.0689,1.0365,1.0955,1.0865,1.1201,1.2328,1.2155,1.2083,1.234,1.171,0.0,0.0,0.0,0.0,0.0,0.0,0.0,0.0,0.0,0.0,0.0,0.0,0.0,0.0,0.0,0.0,0.0,0.0,0.0,0.0,0.0,0.0,0.0,0.0,0.0,0.0,0.0,0.0,0.0,0.0,0.0,0.0,0.0,0.0,0.0,0.0,0.0,0.0,0.0,0.0,0.0,0.0,0.0,0.0,0.0,0.0,0.0,0.0,0.0,0.0,0.0,0.0,0.0,0.0,0.0,0.0,0.0,0.0,0.0,0.0,0.0,0.0,0.0,0.0,0.0,0.0,0.0,0.0,0.0,0.0,0.0,0.0,0.0,0.0,0.0,0.0,0.0,0.0,0.0,0.0,0.0,0.0,0.0,0.0,0.0,0.0,0.0,0.0,0.0,0.0,0.0,0.0,0.0,0.0,0.0,0.0,0.0,0.0,0.0,0.0,0.0,0.0,1.0668,1.0643,1.081,1.068,1.0979,1.1856,1.1421,1.1477,1.2443,1.1638,0.0,0.0,0.0,0.0,0.0,0.0,0.0,0.0,0.0,0.0,0.0,0.0,0.0,0.0,0.0,0.0,0.0,0.0,0.0,0.0,0.0,0.0,0.0,0.0,0.0,0.0,0.0,0.0,0.0,0.0,0.0,0.0,0.0,0.0,0.0,0.0,0.0,0.0,0.0,0.0,0.0,0.0,0.0,0.0,0.0,0.0,0.0,0.0,0.0,0.0,0.0,0.0,0.0,0.0,0.0,0.0,0.0,0.0,0.0,0.0,0.0,0.0,0.0,0.0,0.0,0.0,0.0,0.0,0.0,0.0,0.0,0.0,0.0,0.0,0.0,0.0,0.0,0.0,0.0,0.0,0.0,0.0,0.0,0.0,0.0,0.0,0.0,0.0,0.0,0.0,0.0,0.0,0.0,0.0,0.0,0.0,0.0,0.0,0.0,0.0,0.0,0.0,1.2003,1.2367,0.0,1.265,1.2617,1.2931,1.2616,1.2401,1.2495,0.0,0.0,0.0,0.0,0.0,0.0,0.0,0.0,0.0,0.0,0.0,0.0,0.0,0.0,0.0,0.0,0.0,0.0,0.0,0.0,0.0,0.0,0.0,0.0,0.0,0.0,0.0,0.0,0.0,0.0,0.0,0.0,0.0,0.0,0.0,0.0,0.0,0.0,0.0,0.0,0.0,0.0,0.0,0.0,0.0,0.0,0.0,0.0,0.0,0.0,0.0,0.0,0.0,0.0,0.0,0.0,0.0,0.0,0.0,0.0,0.0,0.0,0.0,0.0,0.0,0.0,0.0,0.0,0.0,0.0,0.0,0.0,0.0,0.0,0.0,0.0,0.0,0.0,0.0,0.0,0.0,0.0,0.0,0.0,0.0,0.0,0.0,0.0,0.0,0.0,0.0,0.0,0.0,0.0,0.0,0.0,0.0,0.0,0.0,0.0,0.0,0.0,1.2051,1.2939,1.3723,0.0,1.3926,1.3757,1.419,1.3484,1.3035,1.2964,0.0,0.0,0.0,0.0,0.0,0.0,0.0,0.0,0.0,0.0,0.0,0.0,0.0,0.0,0.0,0.0,0.0,0.0,0.0,0.0,0.0,0.0,0.0,0.0,0.0,0.0,0.0,0.0,0.0,0.0,0.0,0.0,0.0,0.0,0.0,0.0,0.0,0.0,0.0,0.0,0.0,0.0,0.0,0.0,0.0,0.0,0.0,0.0,0.0,0.0,0.0,0.0,0.0,0.0,0.0,0.0,0.0,0.0,0.0,0.0,0.0,0.0,0.0,0.0,0.0,0.0,0.0,0.0,0.0,0.0,0.0,0.0,0.0,0.0,0.0,0.0,0.0,0.0,0.0,0.0,0.0,0.0,0.0,0.0,0.0,0.0,0.0,0.0,0.0,0.0,0.0,0.0,0.0,0.0,0.0,0.0,0.0,0.0,0.0,0.0,0.0,0.0,1.1866,1.3199,1.4372,1.5061,1.4231,1.4172,1.5499,1.3824,1.3079,0.0,0.0,0.0,0.0,0.0,0.0,0.0,0.0,0.0,0.0,0.0,0.0,0.0,0.0,0.0,0.0,0.0,0.0,0.0,0.0,0.0,0.0,0.0,0.0,0.0,0.0,0.0,0.0,0.0,0.0,0.0,0.0,0.0,0.0,0.0,0.0,0.0,0.0,0.0,0.0,0.0,0.0,0.0,0.0,0.0,0.0,0.0,0.0,0.0,0.0,0.0,0.0,0.0,0.0,0.0,0.0,0.0,0.0,0.0,0.0,0.0,0.0,0.0,0.0,0.0,0.0,0.0,0.0,0.0,0.0,0.0,0.0,0.0,0.0,0.0,0.0,0.0,0.0,0.0,0.0,0.0,0.0,0.0,0.0,0.0,0.0,0.0,0.0,0.0,0.0,0.0,0.0,0.0,0.0,0.0,0.0,0.0,0.0,0.0,0.0,0.0,0.0,0.0,1.2871,1.3845,1.4909,1.6095,1.5482,1.5189,1.5561,1.459,1.3983,1.4006,0.0,0.0,0.0,0.0,0.0,0.0,0.0,0.0,0.0,0.0,0.0,0.0,0.0,0.0,0.0,0.0,0.0,0.0,0.0,0.0,0.0,0.0,0.0,0.0,0.0,0.0,0.0,0.0,0.0,0.0,0.0,0.0,0.0,0.0,0.0,0.0,0.0,0.0,0.0,0.0,0.0,0.0,0.0,0.0,0.0,0.0,0.0,0.0,0.0,0.0,0.0,0.0,0.0,0.0,0.0,0.0,0.0,0.0,0.0,0.0,0.0,0.0,0.0,0.0,0.0,0.0,0.0,0.0,0.0,0.0,0.0,0.0,0.0,0.0,0.0,0.0,0.0,0.0,0.0,0.0,0.0,0.0,0.0,0.0,0.0,0.0,0.0,0.0,0.0,0.0,0.0,0.0,0.0,0.0,0.0,0.0,0.0,0.0,0.0,0.0,0.0,0.0,1.3494,1.4251,1.5258,1.6927,1.6196,1.5853,1.6509,1.5644,1.5007,1.4853,0.0,0.0,0.0,0.0,0.0,0.0,0.0,0.0,0.0,0.0,0.0,0.0,0.0,0.0,0.0,0.0,0.0,0.0,0.0,0.0,0.0,0.0,0.0,0.0,0.0,0.0,0.0,0.0,0.0,0.0,0.0,0.0,0.0,0.0,0.0,0.0,0.0,0.0,0.0,0.0,0.0,0.0,0.0,0.0,0.0,0.0,0.0,0.0,0.0,0.0,0.0,0.0,0.0,0.0,0.0,0.0,0.0,0.0,0.0,0.0,0.0,0.0,0.0,0.0,0.0,0.0,0.0,0.0,0.0,0.0,0.0,0.0,0.0,0.0,0.0,0.0,0.0,0.0,0.0,0.0,0.0,0.0,0.0,0.0,0.0,0.0,0.0,0.0,0.0,0.0,0.0,0.0,0.0,0.0,0.0,0.0,0.0,0.0,0.0,0.0,0.0,0.0,1.4049,1.4592,1.5562,1.7617,1.6629,1.642,1.7866,1.6799,1.6081,1.6141,0.0,0.0,0.0,0.0,0.0,0.0,0.0,0.0,0.0,0.0,0.0,0.0,0.0,0.0,0.0,0.0,0.0,0.0,0.0,0.0,0.0,0.0,0.0,0.0,0.0,0.0,0.0,0.0,0.0,0.0,0.0,0.0,0.0,0.0,0.0,0.0,0.0,0.0,0.0,0.0,0.0,0.0,0.0,0.0,0.0,0.0,0.0,0.0,0.0,0.0,0.0,0.0,0.0,0.0,0.0,0.0,0.0,0.0,0.0,0.0,2.6687,0.0,0.0,0.0,0.0,0.0,0.0,0.0,0.0,0.0,0.0,0.0,0.0,0.0,0.0,0.0,0.0,0.0,0.0,0.0,0.0,0.0,0.0,0.0,0.0,0.0,0.0,0.0,0.0,0.0,0.0,0.0,0.0,0.0,0.0,0.0,0.0,0.0,0.0,0.0,0.0,0.0,1.5545,1.6025,1.6884,1.8762,1.809,1.764,1.7983,1.7441,1.6944,1.659,1.5762,0.0,0.0,0.0,0.0,0.0,0.0,0.0,0.0,0.0,0.0,0.0,0.0,0.0,0.0,0.0,0.0,0.0,0.0,0.0,0.0,0.0,0.0,0.0,0.0,0.0,0.0,0.0,0.0,0.0,0.0,0.0,0.0,0.0,0.0,0.0,0.0,0.0,0.0,0.0,0.0,0.0,0.0,0.0,0.0,0.0,0.0,0.0,0.0,0.0,0.0,0.0,0.0,0.0,0.0,0.0,0.0,0.0,0.0,0.0,0.0,2.8251,0.0,0.0,0.0,0.0,0.0,0.0,0.0,0.0,0.0,0.0,0.0,0.0,0.0,0.0,0.0,0.0,0.0,0.0,0.0,0.0,0.0,0.0,0.0,0.0,0.0,0.0,0.0,0.0,0.0,0.0,0.0,0.0,0.0,0.0,0.0,0.0,0.0,0.0,0.0,0.0,1.6229,1.6554,1.7197,1.8789,1.8398,1.8008,1.8008,1.7812,1.75,1.707,1.6416,0.0,0.0,0.0,0.0,0.0,0.0,0.0,0.0,0.0,0.0,0.0,0.0,0.0,0.0,0.0,0.0,0.0,0.0,0.0,0.0,0.0,0.0,0.0,0.0,0.0,0.0,0.0,0.0,0.0,0.0,0.0,0.0,0.0,0.0,0.0,0.0,0.0,0.0,0.0,0.0,0.0,0.0,0.0,0.0,0.0,0.0,0.0,0.0,0.0,0.0,0.0,0.0,0.0,0.0,3.6112,3.5658,3.6024,3.5994,3.5477,3.2629,3.1785,3.229,0.0,0.0,0.0,0.0,0.0,0.0,0.0,0.0,0.0,0.0,0.0,0.0,0.0,0.0,0.0,0.0,0.0,0.0,0.0,0.0,0.0,0.0,0.0,0.0,0.0,2.4019,2.4094,0.0,0.0,0.0,0.0,0.0,0.0,0.0,0.0,0.0,0.0,0.0,0.0,1.6683,1.6872,1.7297,1.8479,1.8227,1.8008,1.8008,1.8008,1.7861,1.7519,1.709,1.668,0.0,0.0,0.0,0.0,0.0,0.0,0.0,0.0,0.0,0.0,0.0,0.0,0.0,0.0,0.0,0.0,0.0,0.0,0.0,0.0,0.0,0.0,0.0,0.0,0.0,0.0,0.0,0.0,0.0,0.0,0.0,0.0,2.5223,2.6568,0.0,0.0,0.0,0.0,0.0,0.0,0.0,0.0,0.0,0.0,0.0,0.0,0.0,0.0,3.4143,3.5085,3.6472,3.8323,3.9116,3.9471,3.9387,3.8811,3.8862,3.9311,3.8258,0.0,3.5032,3.4196,0.0,0.0,0.0,0.0,0.0,0.0,0.0,0.0,0.0,0.0,0.0,0.0,0.0,0.0,0.0,0.0,0.0,0.0,0.0,0.0,0.0,0.0,2.6126,2.5943,2.547,2.485,0.0,2.1662,1.9047,1.7341,0.0,0.0,0.0,0.0,0.0,0.0,0.0,0.0,1.7652,1.7838,1.8027,1.8559,1.8227,1.8008,1.8008,1.8008,1.7988,1.793,1.7529,1.7275,1.7239,1.6388,0.0,0.0,0.0,0.0,0.0,0.0,0.0,0.0,0.0,0.0,0.0,0.0,0.0,0.0,0.0,0.0,0.0,0.0,0.0,0.0,0.0,0.0,0.0,0.0,0.0,0.0,0.0,0.0,0.0,2.5565,2.7787,2.7632,2.8638,2.8919,0.0,0.0,0.0,0.0,0.0,0.0,0.0,0.0,0.0,3.0373,3.1789,3.3667,3.6099,3.7428,3.8626,3.9622,3.996,4.0096,4.0096,3.9774,3.9791,4.0079,3.9757,3.9039,3.8041,3.6891,3.5977,3.5177,0.0,0.0,0.0,0.0,0.0,3.2587,3.3386,0.0,0.0,0.0,0.0,0.0,0.0,0.0,0.0,0.0,0.0,0.0,0.0,0.0,0.0,2.6952,2.6824,2.6504,2.5637,2.4364,2.2573,0.0,1.8704,1.7939,1.7227,0.0,0.0,0.0,0.0,1.7275,1.7617,1.8076,1.8305,1.8256,1.8115,1.8008,1.8008,1.8008,1.8008,1.8008,1.7842,1.7734,1.7734,1.7139,1.6602,0.0,0.0,0.0,0.0,0.0,0.0,0.0,0.0,0.0,0.0,0.0,0.0,0.0,0.0,0.0,0.0,0.0,0.0,0.0,0.0,0.0,0.0,0.0,0.0,0.0,0.0,0.0,0.0,2.7756,2.9607,2.8917,3.0901,3.1603,0.0,0.0,0.0,0.0,0.0,0.0,2.8161,2.872,2.9891,3.1753,3.3888,3.578,3.7464,3.9079,4.0051,4.0383,4.0383,4.0282,4.0096,4.0096,4.0096,4.0096,4.0096,4.0096,4.0011,3.87,3.7855,3.7286,3.6502,3.591,3.5566,3.609,3.5778,3.533,3.661,3.6443,3.5613,3.5578,0.0,3.1228,2.9887,0.0,0.0,0.0,0.0,2.6801,2.6994,0.0,2.7291,2.714,2.7394,2.7377,2.6238,2.5781,2.4763,0.0,2.0792,1.991,1.8958,0.0,0.0,0.0,0.0,1.8738,1.8158,1.862,1.8745,1.8057,1.8008,1.8008,1.8008,1.8008,1.811,1.8337,1.8337,1.8428,1.8664,1.8383,1.7987,1.754,0.0,0.0,0.0,0.0,0.0,0.0,0.0,0.0,0.0,0.0,0.0,0.0,0.0,0.0,0.0,0.0,0.0,0.0,0.0,0.0,0.0,0.0,0.0,0.0,0.0,0.0,0.0,0.0,0.0,3.2109,3.3598,0.0,0.0,0.0,0.0,2.9739,2.9524,2.949,2.9668,3.0221,3.1173,3.2672,3.384,3.564,3.8208,3.9358,4.0312,4.1136,4.1136,4.0781,4.0096,4.0096,4.0096,4.0096,4.0096,4.0096,4.0045,3.9242,3.892,3.8802,3.8075,3.7763,3.7739,3.779,3.8171,3.8647,3.7994,3.7794,3.7824,3.7693,3.5802,3.3267,3.1736,3.0319,0.0,0.0,2.9252,2.8577,2.8609,2.7954,2.719,2.6663,2.6562,2.6575,2.6468,2.57,2.4719,0.0,2.3005,2.2706,2.2628,0.0,2.1508,2.1879,2.1643,2.1063,2.0088,1.9994,1.9517,1.8159,1.8008,1.8008,1.8008,1.8008,1.8337,1.9177,1.9243,1.9595,2.043,2.044,2.0227,1.9756,1.9313,0.0,0.0,0.0,0.0,0.0,0.0,0.0,0.0,0.0,0.0,0.0,0.0,0.0,0.0,0.0,0.0,0.0,0.0,0.0,0.0,0.0,0.0,0.0,0.0,0.0,0.0,0.0,0.0,3.302,3.4422,0.0,3.4005,3.4958,3.498,3.3413,3.4061,3.3754,3.1967,3.2045,3.221,3.2398,3.4121,3.598,3.788,3.9659,4.1004,4.1897,4.1424,4.1068,4.0781,4.0333,4.0096,4.0096,4.0096,4.0096,4.0079,3.9825,3.9723,3.969,3.9436,3.9334,3.9334,3.9334,3.9486,3.9656,3.937,3.9319,3.9183,3.8224,3.6927,3.5429,3.3975,3.2841,3.2029,3.2022,3.1806,3.116,2.9621,2.8987,2.8346,2.6839,2.6499,2.6499,2.6499,2.6211,2.5873,2.5499,2.4258,2.3203,2.2925,2.2646,2.2388,2.2218,2.2354,2.2182,2.1527,2.1735,2.1363,1.9941,1.9527,1.9079,1.8443,1.8164,1.8361,1.9233,1.9299,1.9694,2.0558,2.059,2.0512,2.0353,1.9902,1.9219,0.0,0.0,0.0,0.0,0.0,0.0,0.0,0.0,0.0,0.0,0.0,0.0,0.0,0.0,0.0,0.0,0.0,0.0,0.0,0.0,0.0,0.0,0.0,0.0,0.0,0.0,3.2643,3.4091,3.5717,3.6582,3.62,3.7879,3.8266,3.6498,3.7387,3.6901,3.4372,3.4089,3.3701,3.3082,3.474,3.6434,3.8062,4.0219,4.1724,4.2675,4.2185,4.1694,4.1187,4.0679,4.035,4.0096,4.0096,4.0096,4.0096,4.0096,4.0096,4.0096,4.0096,4.0096,4.0096,4.0096,4.0096,4.0096,4.0096,4.0096,3.991,3.8705,3.7932,3.727,3.6093,3.5179,3.4499,3.4337,3.3853,3.2997,3.1199,3.0142,2.9109,2.761,2.6853,2.6499,2.6499,2.6499,2.6499,2.6499,2.5417,2.4447,2.4143,2.412,2.4003,2.3697,2.3932,2.3828,2.3017,2.3179,2.2841,2.1431,2.0991,2.0458,1.9624,1.9312,1.9433,2.0117,2.0171,2.0558,2.1416,2.1447,2.1447,2.1447,2.114,2.0565,1.9743,0.0,0.0,0.0,0.0,0.0,0.0,0.0,0.0,0.0,0.0,0.0,0.0,0.0,0.0,0.0,0.0,0.0,0.0,0.0,0.0,0.0,0.0,0.0,3.0842,3.1699,3.3054,3.5563,3.7662,3.8948,3.9065,4.0431,4.0616,3.8905,3.9277,3.8791,3.6954,3.6348,3.5663,3.4802,3.5774,3.7092,3.879,4.0925,4.2472,4.3399,4.3409,4.2632,4.1271,4.1255,4.0832,4.013,4.013,4.013,4.0096,4.0096,4.0096,4.0096,4.0096,4.0096,4.0096,4.0096,4.0096,4.0096,4.0096,4.0096,3.9978,3.9193,3.8908,3.8772,3.8064,3.7279,3.6615,3.6615,3.5389,3.3917,3.3349,3.139,2.9446,2.8828,2.7575,2.6521,2.6499,2.6499,2.6499,2.6499,2.6499,2.6499,2.6499,2.6499,2.6499,2.6499,2.6499,0.0,2.4542,2.4367,2.3835,2.2434,2.2252,2.2026,2.1475,2.1407,2.1554,2.1906,2.192,2.2261,2.3103,2.3133,2.3145,2.3158,2.3145,2.2848,2.2273,0.0,0.0,0.0,0.0,0.0,0.0,0.0,0.0,0.0,0.0,0.0,0.0,0.0,0.0,0.0,0.0,0.0,0.0,0.0,0.0,0.0,3.0179,3.0958,3.1715,3.2207,3.3648,3.6785,3.8188,3.9518,4.1099,4.2632,4.3234,4.2574,4.3196,4.2576,4.0156,3.9885,3.8853,3.6809,3.7748,3.8524,3.902,4.0988,4.2454,4.3335,4.3379,4.3172,4.2794,4.2236,4.1593,4.0899,4.0899,4.0578,4.0096,4.0096,4.0096,4.0096,4.0096,4.0096,4.0096,4.0096,4.0096,4.0096,4.0096,4.0096,4.007,3.9833,3.9385,3.8854,3.8663,3.7642,3.6615,3.6615,3.5866,3.4806,3.3529,3.2339,3.0978,2.912,2.8024,2.7196,2.6624,2.6499,2.6499,2.6499,2.6499,2.6499,2.6499,2.6499,2.6499,2.6499,2.6499,0.0,2.594,2.5893,2.5475,2.4331,2.3931,2.3386,2.2545,2.1812,2.1691,2.2416,2.2123,2.2473,2.371,2.3766,2.3954,2.4324,2.3966,2.386,0.0,0.0,0.0,0.0,0.0,0.0,0.0,0.0,0.0,0.0,0.0,0.0,0.0,0.0,0.0,0.0,0.0,0.0,0.0,0.0,0.0,0.0,3.2076,3.2744,3.3623,3.3915,3.5276,3.8685,3.9512,4.0769,4.3276,4.432,4.4893,4.5009,4.5453,4.4889,4.3024,4.222,4.0992,3.9158,3.944,3.981,4.0192,4.1757,4.297,4.3844,4.3872,4.3741,4.3375,4.2963,4.2202,0.0,4.1204,4.0781,4.0096,4.0096,4.0096,0.0,0.0,0.0,0.0,0.0,4.0096,4.0096,4.0096,4.0096,4.0096,4.0096,3.9782,3.9394,3.9394,3.8536,3.7512,3.7203,3.6554,3.5693,3.4499,3.3205,3.1861,3.0488,2.8904,2.7571,2.7095,2.6748,2.6499,2.6499,0.0,0.0,2.6499,2.6499,2.6499,2.6499,2.6499,2.6499,0.0,2.6499,2.628,2.5699,2.5394,2.4895,2.4116,2.3502,0.0,0.0,0.0,2.3477,2.4299,2.4343,0.0,0.0,0.0,0.0,0.0,0.0,0.0,0.0,2.4859,2.535,0.0,0.0,0.0,0.0,0.0,0.0,0.0,0.0,0.0,0.0,0.0,0.0,0.0,0.0,0.0,0.0,3.3741,3.4506,3.5993,3.6309,3.7501,4.0515,4.0942,4.216,4.5165,4.5554,4.5918,4.6695,4.6742,4.6448,4.5765,0.0,0.0,0.0,0.0,4.1208,4.1725,4.278,4.368,4.444,4.4542,4.4215,4.3527,4.3527,4.2777,4.1457,4.1457,4.0984,4.0231,4.0231,4.018,4.0096,4.0096,4.0096,4.0096,4.0096,4.0096,0.0,0.0,0.0,0.0,4.0096,4.0096,4.0096,4.0096,3.9558,3.8772,3.8121,3.7293,3.6446,3.5782,3.4056,3.2434,3.2234,3.009,2.8066,2.7881,2.7284,2.6748,2.6658,2.6658,2.6624,2.6521,2.6499,2.6499,2.6499,2.6499,0.0,2.6499,2.6499,2.6499,2.6499,0.0,0.0,2.5737,2.5636,2.5398,2.4913,2.4938,2.5008,2.5008,2.5089,2.5649,2.6663,2.6688,2.719,2.8197,2.865,2.8675,2.826,2.6766,2.6829,0.0,0.0,0.0,0.0,0.0,0.0,0.0,0.0,0.0,0.0,0.0,0.0,0.0,0.0,0.0,3.5101,3.592,3.6587,3.733,3.8201,3.9023,3.9847,4.0563,4.2111,4.4984,4.5852,4.6977,4.8844,4.8979,4.8968,4.89,4.8597,0.0,4.469,4.4503,4.3633,4.1965,4.2862,4.3366,4.3562,0.0,0.0,4.4378,4.4378,4.3859,4.2953,4.2953,4.2236,4.0984,4.0984,4.0629,4.0096,4.0096,4.0096,4.0096,4.0096,4.0096,4.0096,4.0096,4.0096,4.0096,4.0096,4.0096,4.0096,4.0096,3.9558,0.0,3.8718,3.7671,3.6584,3.6415,3.5227,3.3735,3.251,3.1346,3.0207,2.9004,2.862,2.8298,2.7604,2.7484,2.7263,2.6624,2.6499,2.6499,2.6499,2.6499,2.6499,2.6499,2.6499,2.6499,2.6499,2.6499,2.6449,2.6336,2.5862,2.5548,2.5448,2.5921,2.6172,2.6172,2.6992,2.757,2.7783,2.7783,2.8109,2.8737,2.8838,2.9114,2.9453,2.9126,2.89,0.0,0.0,0.0,0.0,0.0,0.0,0.0,0.0,0.0,0.0,0.0,3.332,3.4322,0.0,3.5771,3.7401,3.7687,3.8025,3.8972,3.9261,3.9617,4.0124,4.0956,4.2339,4.4497,4.6118,4.7609,4.8998,4.9781,5.0242,5.0302,4.9985,4.9113,4.7651,4.6955,4.5886,4.4369,4.4461,4.4315,4.3977,4.4384,4.4615,4.4615,4.4615,4.4147,4.3392,4.3392,4.2777,4.1711,4.1356,4.0764,4.0096,4.0096,4.0096,4.0096,4.0096,4.0096,4.0096,4.0096,4.0096,4.0096,4.0096,4.0096,4.0096,4.0096,3.9808,3.9411,3.9016,3.8342,3.7584,3.6813,3.5815,3.4682,3.3186,3.1997,3.0927,2.9879,2.9317,2.8876,2.8427,2.7986,2.7571,2.7162,2.6782,2.6499,2.6499,2.6499,2.6658,2.704,2.7095,2.7263,2.7703,2.7769,2.7571,2.7129,2.6447,2.6059,2.6059,2.66,2.6901,2.6901,2.767,2.8235,2.8511,2.8511,2.88,2.9365,2.9365,2.9515,2.9792,2.9792,2.9641,0.0,0.0,0.0,0.0,0.0,0.0,0.0,3.205,3.208,3.3065,3.4128,3.5147,3.5923,3.7015,3.8197,3.9409,3.9245,3.9305,4.0277,3.9948,3.9817,4.0378,4.1379,4.2565,4.4028,4.617,4.7927,4.8964,5.0237,5.1059,5.1261,5.0842,5.0417,5.0051,4.8979,4.7937,4.6925,4.6388,4.5688,4.479,4.479,4.475,4.4615,4.4615,4.4231,4.3639,4.346,4.3064,4.2439,4.1559,4.0849,4.0316,4.0163,4.0096,4.0096,4.0096,4.0096,4.0096,4.0096,4.0096,4.0096,4.0096,4.0096,4.0096,4.0096,4.0096,3.9952,3.9315,3.9032,3.8619,3.735,3.6422,3.5489,3.4197,3.2729,3.1484,3.0874,3.0066,2.9442,2.9286,2.8684,2.8117,2.7769,2.7162,2.6692,2.6521,2.6624,2.6973,2.7604,2.7855,2.8214,2.8907,2.9002,2.8652,2.7769,2.6973,2.6499,2.6499,2.7115,2.7538,2.7703,2.835,2.8982,2.9601,2.9613,2.9844,3.0355,3.0139,3.0075,3.0075,2.9895,2.9792,3.2934,3.2122,3.1742,3.2272,3.1748,3.1816,0.0,3.3953,3.354,3.5609,3.6163,3.6626,3.7838,3.8691,3.9439,4.0172,4.0711,4.0891,4.0457,4.0337,4.0104,3.9613,4.0995,4.2524,4.3894,4.5663,4.7817,5.0451,5.1186,5.194,5.2873,5.3209,5.2605,5.0927,5.0731,4.9677,4.7696,4.7588,4.6921,4.5585,4.5585,4.5229,4.4615,4.4615,4.4564,4.4445,4.3724,4.3341,4.3156,4.1779,4.1153,4.1018,4.0367,4.0096,4.0096,4.0096,4.0096,4.0096,4.0096,4.0096,4.0096,4.0096,4.0096,4.0096,4.0096,4.0096,4.007,3.9978,3.9463,3.8854,3.8674,3.7578,3.629,3.5519,3.4288,3.3063,3.2392,3.1723,3.0999,3.0299,3.0072,2.9504,2.7953,2.7637,2.7317,2.6624,2.7095,2.7604,2.7703,2.8363,2.8907,2.9002,2.9002,2.8652,2.7769,2.6973,2.6499,2.6499,2.7444,2.8382,2.9219,3.0256,3.1266,3.2176,3.2176,3.2217,3.2285,3.1462,3.1044,3.1007,3.0177,2.9792,3.4184,3.3756,3.3258,3.3355,3.309,3.2949,3.365,3.3704,3.4013,3.5351,3.6378,3.73,3.8227,3.9275,4.0202,0.0,4.1205,4.1452,4.1572,4.0876,4.0307,4.0023,4.0713,4.1831,4.3346,4.5799,4.8164,5.022,5.1329,5.2273,5.3167,5.3585,5.3342,5.232,5.2134,5.1285,4.9688,4.8846,4.7921,4.691,4.6102,4.5551,4.5229,4.4801,4.4615,4.4581,4.4231,4.3842,4.3308,4.2269,4.1593,4.1136,4.04,4.0096,4.0096,4.0096,4.0096,4.0096,4.0096,4.0096,4.0096,4.0096,4.0096,4.0171,4.0473,4.0343,4.0171,4.0473,4.0086,3.9489,3.9032,3.8088,3.7001,3.5867,3.4821,3.3888,3.323,3.2871,3.2467,3.1722,3.1183,3.0487,2.9404,2.8363,2.7571,2.7263,2.7484,2.7887,2.8395,2.9223,2.995,3.0389,2.9566,2.8844,2.8492,2.7263,2.6637,2.6952,2.767,2.8418,2.9125,2.9957,3.0833,3.1779,3.1779,3.2069,3.2593,3.2213,3.1742,3.118,3.0796,3.0317,3.4727,3.4528,3.4044,3.3804,3.3474,3.3136,3.2713,3.3136,3.3876,3.4799,3.6148,3.7404,3.8242,3.9334,4.0397,4.125,4.1572,4.1856,4.2336,4.1422,4.0666,4.0666,4.0837,4.1672,4.3517,4.5598,4.782,5.0114,5.1167,5.2137,5.3146,5.3701,5.3796,5.338,5.3299,5.2708,5.151,5.0481,4.9337,4.8085,4.6861,4.6073,4.5669,4.4953,4.4615,4.4615,4.4615,4.4265,4.3673,4.2912,4.2168,4.1424,4.0679,4.0282,4.0096,4.0096,4.0096,4.0096,4.0096,4.0096,4.0096,4.0096,4.0096,4.0204,4.075,4.0546,4.0204,4.0733,4.0504,3.9969,3.9368,3.8513,3.7533,3.6472,3.5309,3.4384,3.3858,3.3619,3.3365,3.2886,3.2268,3.1616,3.0951,2.9788,2.8862,2.8631,2.8783,2.8969,2.898,2.995,3.0837,3.1438,3.0011,2.9071,2.9205,2.7686,2.6952,2.7469,2.8021,2.8622,2.9311,2.9872,3.0633,3.1573,3.1852,3.2321,3.2996,3.2996,3.2629,3.196,3.1706,3.1217,3.3736,3.338,3.3138,3.3115,3.2193,3.1536,3.2393,3.2629,3.3093,3.4679,3.581,3.6896,3.8167,3.8975,3.9873,4.1175,4.1961,4.2381,4.2396,4.1811,4.1354,4.1354,4.1555,4.256,0.0,4.4755,4.6338,5.0743,5.0809,5.1379,5.3109,5.4015,5.4255,5.3796,5.4221,5.3882,5.2766,5.2705,5.1398,4.8865,4.8093,4.7017,4.5669,4.4953,4.4615,4.4615,4.4615,4.4598,4.4513,4.3707,4.2929,4.2185,4.1457,4.073,4.0096,4.0096,4.0096,4.0096,4.0096,4.0096,4.0096,4.0096,4.0096,4.0204,4.075,4.0546,4.0204,4.0733,4.0504,4.0096,4.007,3.8941,3.7777,3.7732,3.6073,3.4503,3.4474,3.3948,3.3484,3.3469,3.3439,3.3162,3.2289,3.2083,3.1779,3.101,3.1551,3.1319,2.925,3.0419,3.1467,3.1511,3.0011,2.9205,2.9719,2.8239,2.7494,2.8047,2.8562,2.9299,3.0326,3.089,3.1609,3.2522,3.3449,3.391,3.3959,3.3959,3.3945,3.3876,3.2996,3.2522,3.4091,3.3627,3.3054,3.2812,3.1969,3.1106,3.0809,3.123,3.2123,3.3742,3.4823,3.5977,3.7466,3.8661,3.9709,4.0591,4.1692,4.2545,4.294,4.2806,4.2521,4.2126,4.2108,0.0,4.4116,4.4754,0.0,5.0814,5.056,5.107,5.3088,5.3739,5.3959,5.3795,5.4255,5.4319,5.3918,5.3188,5.236,5.1463,4.8967,4.7062,4.5669,4.4953,4.4615,4.4615,4.4615,4.4615,4.4547,4.3741,4.324,4.2912,4.1694,4.1052,4.0764,4.0282,4.0096,4.0096,4.0096,4.0096,4.0096,4.0096,4.0096,4.0204,4.075,4.0546,4.0204,4.0733,4.0504,4.0096,4.0096,3.8968,3.7793,3.7793,3.6445,3.516,3.516,3.4996,3.4696,3.4233,3.4174,3.3931,3.3204,3.2584,3.2108,3.1836,3.2044,3.2156,3.2001,3.2478,3.2841,3.2841,3.1803,3.094,3.0513,2.9438,2.8708,2.8649,2.8787,2.924,2.996,3.019,3.0696,3.1633,3.1997,3.2749,3.3993,3.3993,3.3993,3.3993,3.3671,3.3206,3.4329,3.3547,3.2563,3.2596,3.1646,3.052,2.9934,3.052,3.1606,3.2959,3.3974,3.5145,3.6771,3.7471,3.8373,4.0136,4.1052,4.206,4.3444,4.3648,4.3614,4.3434,4.3234,4.3551,4.4737,4.5559,0.0,4.9994,5.033,5.1093,5.271,5.345,5.3796,5.3796,5.4385,5.4659,5.4503,5.3933,5.3065,5.1974,4.9427,4.732,4.5686,4.5213,4.4869,4.4615,4.4615,4.4615,4.4564,4.4045,4.3673,4.3291,4.2371,4.166,4.1136,4.0663,4.0333,4.0096,4.0096,4.0096,4.0096,4.0096,4.0096,4.0204,4.075,4.0546,4.0204,4.0733,4.0504,4.0096,4.0096,3.8968,3.7793,3.7793,3.6631,3.5504,3.5504,3.5504,3.537,3.4936,3.4846,3.4711,3.4292,3.3763,3.3381,3.3381,3.3381,3.3427,3.3483,3.3499,3.3499,3.3499,3.271,3.2033,3.1668,3.0526,2.9781,2.9716,2.9404,2.9402,2.9779,2.9792,3.0075,3.0696,3.1044,3.1779,3.2996,3.3671,3.3993,3.4027,3.4361,3.4211,3.4339,3.3138,3.1889,3.2526,3.1267,2.9856,2.9856,3.0558,3.1462,3.2429,3.3345,3.4501,3.6097,3.5673,3.6206,3.9609,4.0123,4.104,4.3815,4.4336,4.459,0.0,0.0,0.0,4.6403,0.0,0.0,4.8519,0.0,5.1396,5.2072,5.313,5.372,5.374,5.4537,5.4833,5.4503,5.4848,5.3562,5.0615,4.9503,4.7847,4.5821,4.5737,4.5314,4.4649,4.4632,4.4615,4.4615,4.4615,4.4147,4.3443,4.3409,4.2513,4.1255,4.1221,4.073,4.0096,4.0096,4.0096,4.0096,4.0096,4.0096,4.0179,4.0685,4.0504,4.0204,4.0726,4.0497,4.0096,4.0096,3.8968,3.7793,3.7793,3.6631,3.5504,3.5504,3.5504,3.5504,3.5504,3.5537,3.5569,3.5619,3.5619,3.5587,3.5554,3.5587,3.5121,3.38,3.3604,3.3604,3.3604,3.2859,3.2566,3.3087,3.1583,3.0771,3.1251,3.0381,2.9856,2.9856,2.983,2.9792,2.9792,3.0658,3.1143,3.1217,3.2996,3.391,3.4027,3.4986,3.5439,3.4459,3.3948,3.3437,3.3593,3.2213,3.0833,3.0833,3.1044,3.1462,3.2429,3.3345,3.4153,3.4564,3.5523,3.649,3.7141,3.9479,0.0,4.2886,4.4625,0.0,4.4049,4.4997,4.5382,4.4332,4.6325,0.0,0.0,5.013,5.1475,5.2137,5.2441,5.2746,5.3044,5.3269,5.3737,5.4503,5.4253,5.3076,5.0959,5.0132,4.8881,4.728,4.621,4.5602,4.5382,4.4852,4.4615,4.4615,4.4615,4.4496,4.4215,4.3639,4.2844,4.1948,4.1407,4.073,4.0096,4.0096,4.0096,4.0096,4.0096,4.0096,4.0121,4.0262,4.0204,4.0121,4.0279,4.0204,4.0096,4.0096,3.8968,3.7793,3.7793,3.6631,3.5504,3.5504,3.5504,3.5504,3.5504,3.5943,3.6508,3.7115,3.7205,3.6995,3.643,3.6814,3.6674,3.5185,3.4996,3.4996,3.4996,3.4788,3.4412,3.3816,3.334,3.2828,3.2272,3.1365,3.0833,3.0833,3.0177,2.9792,2.9792,3.0037,3.0482,3.1217,3.1669,3.2629,3.4027,3.4245,3.4758,3.4846,3.4479,3.3993,3.3993,3.289,3.1748,3.1456,3.159,3.2001,3.2674,3.3451,3.3993,3.3993,3.4697,3.548,3.6097,3.8214,4.0575,4.2754,4.4704,4.5478,4.441,4.5244,4.5478,4.4396,4.6149,4.7908,0.0,5.0627,5.1563,5.1735,5.2057,5.2159,5.2062,5.2231,5.286,5.3999,5.3591,5.2694,5.1365,5.0435,4.9253,4.7855,4.6718,4.6007,4.5669,0.0,4.4615,4.4615,4.4615,4.4615,4.4564,4.4096,4.325,4.2236,4.183,4.1001,4.0096,4.0096,4.0096,4.0096,4.0096,4.0096,4.0146,4.0368,4.0449,4.0449,4.0449,4.0449,4.0326,3.9723,3.8679,3.769,3.7368,3.6368,3.5504,3.5504,3.5504,3.5587,3.5926,3.66,3.7279,3.7719,3.7793,3.7661,3.7174,3.7515,3.7501,3.6631,3.6523,3.6523,3.6523,3.618,3.5753,3.5195,3.4451,3.3774,3.3241,3.2321,3.1815,3.1815,3.0908,3.0419,3.0419,2.9998,3.0075,3.0595,3.1007,3.196,3.338,3.3808,3.4543,3.534,3.4872,3.4211,3.4211,3.3498,3.2632,3.2048,3.2361,3.2891,3.3149,3.3734,3.4177,3.4027,3.3854,3.427,3.5921,3.7037,3.9027,4.2808,4.4346,4.5029,4.4918,4.5024,4.5161,4.5161,4.6109,4.7688,4.9993,5.0961,5.1403,5.12,5.1658,5.1633,5.0973,5.1386,5.2086,5.3084,5.275,5.219,5.1473,5.0459,4.9308,4.8007,4.7276,4.6532,4.5805,0.0,0.0,4.4615,4.4615,4.4615,4.4615,4.4615,4.3667,4.2286,4.2286,4.1382,4.0096,4.0096,4.0096,4.0096,4.0096,4.0096,4.0204,4.075,4.0903,4.0903,4.0903,4.0903,4.0621,3.937,3.8414,3.7632,3.695,3.6117,3.5504,3.5504,3.5587,3.5894,3.6722,3.7469,3.7978,3.8092,3.8108,3.8064,3.795,3.8035,3.8064,3.795,3.7863,3.7793,3.7793,3.7189,3.6737,3.6615,3.5213,3.4283,3.4211,3.331,3.2784,3.2784,3.1888,3.1389,3.1389,3.0595,3.0113,3.0011,3.0796,3.1609,3.2464,3.338,3.4361,3.5474,3.5359,3.5246,3.5246,3.4476,3.3711,3.3611,3.3668,3.3779,3.3815,3.4585,3.4986,3.4143,3.4732,3.5506,3.6108,3.7579,3.9465,4.1716,4.2683,4.2937,4.2345,4.317,4.3834,4.3834,4.4935,0.0,0.0,0.0,5.0178,5.1159,5.0734,5.0365,5.022,5.085,5.1304,5.1493,5.1447,5.1015,5.0292,5.0083,4.9583,4.8781,4.8054,4.731,4.6566,0.0,0.0,4.4615,4.4615,4.4615,4.4615,4.4615,4.3667,4.2286,4.2286,4.1382,4.0096,4.0096,4.0096,4.0096,4.0096,4.0096,4.0204,4.075,4.0903,4.0903,4.0903,4.0903,4.0739,4.007,3.8859,3.7748,3.7632,3.6508,3.5504,3.5504,3.5975,3.6813,3.823,3.8619,3.8924,3.9584,3.9705,3.948,3.8799,3.9279,3.9463,3.8799,3.8177,3.7793,3.7793,3.7677,3.7338,3.6661,3.6322,3.5882,3.5264,3.4327,3.3774,3.3774,3.2855,3.2357,3.2357,3.2213,3.1719,3.097,3.1106,3.1278,3.1462,3.2429,3.3345,3.5415,3.5504,3.5504,3.5504,3.5133,3.467,3.435,3.4508,3.4703,3.435,3.4913,3.518,3.4177,3.47,3.5273,3.5225,3.6008,3.7538,4.0261,4.0768,4.0992,4.1558,4.2119,4.2509,4.2509,4.3074,4.4635,0.0,0.0,4.7969,5.0291,5.0159,5.0025,5.0022,5.0716,5.0903,5.0527,5.0527,5.0352,5.0004,4.9652,4.9316,4.8984,4.8257,4.7513,4.6752,4.6024,0.0,4.3902,4.3902,4.3651,4.329,4.3739,4.3234,4.2256,4.2287,4.1593,4.0612,4.0231,4.0096,4.0096,4.0096,4.0096,4.0204,4.075,4.0903,4.0903,4.0903,4.0903,4.0692,3.9715,3.8924,3.8274,3.7892,3.7235,3.6569,3.618,3.6994,3.8015,3.8772,3.9236,3.9636,4.0045,4.0096,3.9969,3.9568,3.9833,3.9952,3.9584,3.9226,3.8995,3.8995,3.8624,3.8218,3.7815,3.7068,3.6446,3.6086,3.5252,3.4758,3.4758,3.3856,3.3345,3.3345,3.2855,3.2141,3.1217,3.1217,3.1217,3.1217,3.2177,3.3101,3.513,3.5385,3.5504,3.5504,3.5504,3.537,3.4816,3.5115,3.5355,3.4801,3.513,3.5246,3.4461,3.4714,3.5014,3.495,3.4772,3.5811,3.9182,3.9098,3.9198,4.0572,4.0716,0.0,4.0665,4.0665,0.0,0.0,0.0,0.0,4.9028,4.9548,4.9781,5.0004,5.0716,5.0743,5.0004,5.0004,4.9919,4.978,4.9256,4.9001,4.8984,4.8409,4.7665,4.6769,4.5984,0.0,0.0,4.3108,4.2614,4.2093,4.2939,4.2861,4.2208,4.227,4.183,4.1085,4.0367,4.0096,4.0096,4.0096,4.0096,4.0204,4.075,4.0903,4.0903,4.092,4.0903,4.0627,3.9465,3.9032,3.8718,3.7978,3.7793,3.7661,3.7188,3.8044,3.8935,3.9113,3.9662,4.0096,4.0096,4.0096,4.0096,4.0096,4.0096,4.0096,4.0096,4.0096,4.0096,4.0096,3.9516,3.9086,3.8908,3.7787,3.6948,3.66,3.6054,3.5668,3.5504,3.4725,3.4312,3.4312,3.3602,3.2749,3.1815,3.1815,3.1706,3.1536,3.2464,3.331,3.4593,3.5026,3.5504,3.5504,3.5504,3.5489,3.5429,3.5459,3.5489,3.5429,3.5459,3.5472,3.5392,3.5419,3.5818,3.6921,3.5937,3.61,3.9098,3.8299,3.7505,3.7855,0.0,0.0,3.7608,3.7596,0.0,0.0,0.0,0.0,0.0,4.8377,4.9121,4.9959,5.0716,5.0743,5.0004,5.0004,4.9693,4.9077,4.9032,4.9001,4.9001,4.8934,4.8139,4.6756,0.0,0.0,0.0,4.2458,4.2062,4.2093,4.2939,4.2861,4.2208,4.227,4.183,4.1085,4.0367,4.0096,4.0096,4.0096,4.0096,4.0204,4.075,4.0903,4.0903,4.0955,4.0938,4.0756,4.0137,3.9463,3.8718,3.7978,3.7793,3.7978,3.858,3.8799,3.9113,3.985,4.0045,4.0096,4.0096,4.0096,4.0096,4.0096,4.0096,4.0096,4.0096,4.0096,4.0096,4.0096,4.0045,3.9688,3.8962,3.8772,3.8101,3.6691,3.6523,3.6196,3.5537,3.5392,3.5359,3.5359,3.5279,3.4739,3.3739,3.3739,3.331,3.25,3.3415,3.391,3.4399,3.4981,3.5504,3.5504,3.5504,3.5504,3.5504,3.5504,3.5504,3.5504,3.5504,3.5504,3.5504,3.5019,3.4771,3.5268,3.3896,3.3654,3.6131,3.5066,3.4619,3.6276,3.6051,0.0,0.0,0.0,0.0,0.0,0.0,0.0,0.0,4.3645,4.71,4.8689,4.9847,5.0297,5.0004,4.9593,4.9256,4.9001,4.9001,4.9001,4.8984,4.8545,4.7784,4.6769,0.0,0.0,0.0,4.2125,4.1707,4.1297,4.2189,4.2668,4.2868,4.2942,4.2506,4.1762,4.1018,4.046,4.0096,4.0096,4.0096,4.0146,4.0343,4.0417,4.0417,4.0458,4.0441,4.0368,4.0171,3.9876,3.9437,3.8652,3.8816,3.9129,3.8935,3.9289,3.9731,4.0045,4.0368,4.0577,4.0577,4.0891,4.1007,4.0683,4.0618,4.0473,4.0146,4.0096,4.0096,4.0096,4.0096,3.9978,3.9636,3.9166,3.8646,3.8015,3.7128,3.6477,3.6165,3.5733,3.5504,3.5504,3.5504,3.5019,3.3993,3.3993,3.3518,3.2629,3.3567,3.3993,3.3979,3.4681,3.525,3.5459,3.5504,3.5504,3.5504,3.5504,3.5504,3.5504,3.5504,3.5504,3.5504,3.4691,3.3993,3.3993,3.2681,3.2408,3.4459,3.3368,3.309,3.496,0.0,3.377,0.0,0.0,0.0,0.0,0.0,0.0,0.0,3.7378,4.2242,4.5309,4.7345,4.8476,4.868,4.8546,4.8366,4.8193,4.8193,4.8193,4.8176,4.7697,4.7099,4.6344,0.0,0.0,0.0,4.2093,4.1642,4.118,4.2029,4.2754,4.3314,4.3368,4.3081,4.2489,4.1542,4.0849,4.04,4.018,4.0096,4.0096,4.0096,4.0096,4.0096,4.0096,4.0096,4.0096,4.0096,4.0096,3.9952,3.9385,3.9688,3.9952,3.9368,3.9705,4.0096,4.0096,4.0528,4.0903,4.0903,4.1402,4.1682,4.1281,4.1036,4.0756,4.0392,4.0204,4.0096,4.0096,4.0096,4.0096,4.0096,3.9584,3.9139,3.8908,3.7873,3.7188,3.6964,3.6446,3.6164,3.6164,3.5958,3.5464,3.4769,3.4769,3.4336,3.3463,3.437,3.4651,3.3155,3.3978,3.4683,3.5325,3.5504,3.5504,3.5504,3.5504,3.5504,3.5504,3.5504,3.5504,3.5504,3.4691,3.3993,3.3993,3.3307,3.3383,3.5073,3.426,3.3588,0.0,0.0,3.1409,3.0384,0.0,0.0,0.0,0.0,0.0,0.0,2.9746,3.3882,3.9398,4.2807,4.4884,4.5539,4.6648,4.6893,4.6208,4.6208,4.6208,4.6228,4.6437,4.6091,0.0,0.0,0.0,0.0,4.2363,4.1997,4.2062,4.2956,4.3306,4.3314,4.3368,4.3392,4.3172,4.1711,4.1204,4.1068,4.035,4.0096,4.0096,4.0096,4.0096,4.0096,4.0096,4.0096,4.0096,4.0096,4.0096,4.0096,4.0096,4.0096,4.0096,4.007,4.0096,4.0096,4.0096,4.0528,4.0903,4.0903,4.1402,4.181,4.1789,4.1291,4.0903,4.088,4.0441,4.0096,4.0096,4.0096,4.0096,4.0096,4.0096,3.9756,3.8935,3.8881,3.8553,3.7822,3.7793,3.7793,3.7793,3.6994,3.6569,3.6569,3.6569,3.6196,3.5504,3.6212,3.6196,3.2706,3.3305,3.3858,3.4083,3.4472,3.4833,3.4833,3.516,3.5504,3.5504,3.5504,3.5504,3.5504,3.4691,3.406,3.4164,3.3414,3.3168,3.4186,3.2981,0.0,3.3016,3.196,3.1072,0.0,0.0,0.0,0.0,0.0,0.0,0.0,2.5744,2.9592,3.7086,4.0285,4.2652,4.4241,4.4179,4.4016,4.3807,4.3807,4.3807,4.3799,4.3678,0.0,0.0,0.0,0.0,0.0,4.2754,4.2878,4.2909,4.3169,4.3651,4.4191,4.4198,4.3876,4.3325,4.2878,4.2049,4.117,4.0933,4.0493,4.0096,4.0096,4.0096,4.0096,4.0096,4.0096,4.0096,4.0096,4.0096,4.0096,4.0096,4.0096,4.0096,4.0096,4.0096,4.0096,4.0096,4.0868,4.1512,4.1512,4.2327,4.2847,4.248,4.2244,4.1832,4.1018,4.0756,4.0521,4.0146,4.0096,4.0096,4.0096,4.0096,3.9978,3.9731,3.9193,3.8799,3.8553,3.8064,3.7793,3.7793,3.7544,3.7427,3.7427,3.7427,3.7308,3.7071,3.7308,3.7294,3.2496,3.2811,3.3245,3.3739,3.4204,3.4578,3.4801,3.519,3.5504,3.5504,3.5504,3.5587,3.5863,3.4861,3.4206,3.4896,3.4124,3.3675,3.4388,3.3489,0.0,3.2424,0.0,0.0,0.0,0.0,0.0,0.0,0.0,0.0,0.0,0.0,2.8038,3.3782,3.6705,3.9283,4.158,4.1642,4.1389,4.0863,4.0863,4.0571,4.0096,4.0329,0.0,0.0,0.0,0.0,0.0,4.3426,4.3785,4.3785,4.3785,4.4121,4.4615,4.4615,4.4265,4.3809,4.3521,4.2811,4.1948,4.139,4.0696,4.0096,4.0096,4.0096,4.0096,4.0096,4.0096,4.0096,4.0096,4.0096,4.0096,4.0096,4.0096,4.0096,4.0096,4.0096,4.0096,4.0096,4.103,4.181,4.181,4.2753,4.3392,4.305,4.2826,4.2342,4.138,4.1041,4.0703,4.0171,4.0096,4.0096,4.0096,4.0096,4.0096,4.0096,3.9636,3.9342,3.9342,3.8914,3.8668,3.8668,3.8374,3.8234,3.8218,3.7921,3.795,3.8206,3.7921,3.7793,0.0,3.2571,3.2811,3.4038,3.446,3.4731,3.528,3.5557,0.0,3.5587,3.5619,3.5893,3.6616,3.5449,3.4815,3.6264,3.5547,3.5049,3.5753,3.5507,0.0,0.0,3.2285,0.0,0.0,0.0,0.0,0.0,0.0,0.0,0.0,0.0,2.8785,3.02,3.2841,3.5478,3.8062,3.9227,3.9088,3.7695,3.7501,3.6693,3.5441,3.6273,0.0,0.0,0.0,0.0,0.0,4.4121,4.4542,4.4615,4.4615,4.4615,4.4615,4.4615,4.4615,4.4496,4.3741,4.3443,4.3156,4.1694,4.0696,4.0096,4.0096,4.0096,4.0096,4.0096,4.0096,4.0096,4.0096,4.0096,4.0096,4.0096,4.0096,4.0096,4.0096,4.0096,4.0096,4.0096,4.103,4.181,4.181,4.2753,4.3515,4.3515,4.3087,4.2519,4.1895,4.1313,4.075,4.0171,4.0096,4.0096,4.0096,4.0096,4.0096,4.0096,4.0096,4.0096,4.0096,4.0096,4.0096,4.0096,3.9368,3.9005,3.8989,3.8318,3.8318,3.8962,3.8274,3.795,3.4036,0.0,3.2587,3.2901,3.4182,3.5217,0.0,3.6045,3.7086,3.6477,3.6814,3.7482,3.8227,3.8004,3.8075,3.9105,3.8886,3.8719,3.9049,3.7885,0.0,3.4687,3.3564,0.0,0.0,0.0,0.0,0.0,0.0,0.0,0.0,0.0,2.9225,3.1719,3.4293,3.6447,3.8062,3.8379,3.7847,3.6476,3.4426,3.2723,3.1433,3.0659,0.0,0.0,0.0,0.0,4.1224,4.2904,4.4006,4.4615,4.4615,4.4615,4.4615,4.4615,4.4615,4.4581,4.4395,4.3927,4.3156,4.1694,4.0696,4.0096,4.0096,4.0096,4.0096,4.0096,4.0096,4.0096,4.0096,4.0096,4.0096,4.0096,4.0096,4.0096,4.0096,4.0096,4.0096,4.0096,4.103,4.181,4.181,4.2753,4.3515,4.3515,4.3392,4.2958,4.1937,4.1664,4.1218,4.0204,4.0096,4.0096,4.0096,4.0096,4.0096,4.0096,4.0096,4.0096,4.0096,4.0096,4.0096,4.0096,3.9927,3.9808,3.9808,3.9636,3.9653,3.9808,3.9636,3.9558,3.4964,3.4609,3.4154,3.4833,3.581,3.6643,3.6537,3.6918,3.7249,3.7144,3.7203,3.7692,3.9185,3.9427,3.9884,4.139,4.1505,0.0,0.0,0.0,3.8404,3.6545,3.5013,0.0,0.0,0.0,0.0,0.0,0.0,0.0,0.0,0.0,3.0728,3.223,3.5918,3.7938,3.8107,3.8649,3.7983,3.6081,3.3301,3.0592,2.7999,2.6327,0.0,0.0,0.0,0.0,3.9738,4.1725,4.3357,4.4615,4.4615,4.4615,4.4615,4.4615,4.4615,4.4615,4.4615,4.3842,4.276,4.1965,4.0993,4.0096,4.0096,4.0096,4.0096,4.0096,4.0096,4.0096,4.0096,4.0096,4.0096,4.0096,4.0096,4.0096,4.0096,4.0096,4.0096,4.0096,4.0814,4.1468,4.175,4.2541,4.3214,4.3462,4.3286,4.2809,4.1916,4.1556,4.1059,4.0179,4.0096,4.0096,4.0096,4.0096,4.0096,4.0096,4.0096,4.0096,4.0096,4.0096,4.0096,4.0096,4.0096,4.0096,4.0096,4.0096,4.0096,4.0096,4.0096,4.0096,3.5802,3.613,3.6474,3.7313,3.779,3.8107,3.8336,3.7568,3.6934,3.7515,3.7263,3.7632,3.986,4.041,4.1241,4.3462,0.0,0.0,4.2665,4.1823,4.0523,3.8371,0.0,0.0,0.0,0.0,0.0,0.0,0.0,0.0,0.0,0.0,0.0,3.228,3.7182,3.9423,3.8595,3.964,3.8867,3.6337,3.3245,2.9516,2.5263,2.2863,2.2953,0.0,0.0,0.0,3.8041,4.0497,4.2666,4.4412,4.4542,4.4615,4.4615,4.4615,4.4615,4.4615,4.4615,4.3599,4.2286,4.2286,4.1314,4.0096,4.0096,4.0096,4.0096,4.0096,4.0096,4.0096,4.0096,4.0096,4.0096,4.0096,4.0096,4.0096,4.0096,4.0096,4.0096,4.0096,4.0601,4.1178,4.1599,4.2223,4.2808,4.3178,4.2865,4.2342,4.1729,4.1223,4.0703,4.0171,4.0096,4.0096,4.0096,4.0096,4.0096,4.0096,4.0096,4.0096,4.0096,4.0096,4.0096,4.0096,4.0096,4.0096,4.0096,4.0096,4.0096,4.0096,4.0096,4.0096,3.7188,3.7934,3.7963,3.6358,3.7352,3.8261,3.6424,3.6846,3.7456,3.6904,3.7729,3.9072,4.0732,4.2044,4.3631,4.59,0.0,4.7268,0.0,0.0,4.287,0.0,0.0,0.0,0.0,0.0,0.0,0.0,0.0,0.0,0.0,0.0,0.0,3.228,3.689,3.9842,4.08,4.1153,4.0063,3.7514,3.3646,2.9014,2.3716,2.0533,1.9744,0.0,0.0,2.8964,3.4753,3.8908,4.1757,4.3562,4.4327,4.4615,4.4615,4.4615,4.4615,4.4615,4.4615,4.3599,4.2286,4.2286,4.1314,4.0096,4.0096,4.0096,4.0096,4.0096,4.0096,4.0096,4.0096,4.0096,4.0096,4.0096,4.0096,4.0096,4.0096,4.0096,4.0096,4.0096,4.0938,4.1534,4.111,4.1958,4.2539,4.2124,4.2,4.1707,4.111,4.0949,4.0703,4.0171,4.0096,4.0096,4.0096,4.0096,4.0096,4.0096,4.0096,4.0096,4.0096,4.0096,4.0096,4.0096,4.0096,4.0096,4.0096,4.0096,4.0096,4.0096,4.0096,4.0096,3.6959,3.7739,3.8013,3.6963,3.8322,3.9703,3.8669,3.8325,3.8261,3.8307,3.8566,3.92,4.0742,4.2209,4.4196,4.7328,0.0,4.9094,4.7031,4.5732,0.0,0.0,0.0,0.0,0.0,0.0,0.0,0.0,0.0,0.0,0.0,0.0,0.0,0.0,3.6438,3.9465,4.1163,4.2665,4.2439,4.0534,3.5816,3.0646,2.5104,1.9805,1.7862,1.8882,0.0,2.593,3.2994,3.6913,4.0427,4.3396,4.4253,4.4615,4.4615,4.4615,4.4615,4.4615,4.4615,4.3599,4.2286,4.2286,4.1314,4.0096,4.0096,4.0096,4.0096,4.0096,4.0096,4.0096,4.0096,4.0096,4.0096,4.0096,4.0096,4.0179,4.0473,4.0563,4.0683,4.0961,4.1442,4.1832,4.1874,4.2342,4.2713,4.2715,4.2206,4.1686,4.1424,4.0844,4.0368,4.0121,4.0096,4.0096,4.0096,4.0096,4.0096,4.0096,4.0096,4.0096,4.0096,4.0096,4.0096,4.0096,4.0096,4.0096,4.0096,4.0096,4.0096,4.0113,4.0493,4.0679,3.627,3.6857,3.7323,3.7545,3.889,4.0182,4.0291,3.9303,3.8573,3.9532,3.9385,3.9442,4.0641,4.2477,4.4869,4.7967,4.982,5.0205,4.8225,0.0,0.0,0.0,0.0,0.0,0.0,0.0,0.0,0.0,0.0,0.0,0.0,0.0,0.0,0.0,3.5807,3.892,4.1227,4.4204,4.4805,4.2993,3.8366,3.3041,2.713,2.0566,1.7436,1.7253,1.859,2.3398,3.0513,3.5102,3.9206,4.2751,4.4076,4.4615,4.4615,4.4615,4.4615,4.4615,4.4615,4.3599,4.2286,4.2286,4.1314,4.0096,4.0096,4.0096,4.0096,4.0096,4.0096,4.0096,4.0096,4.0096,4.0121,4.0254,4.0286,4.0441,4.0972,4.1168,4.1321,4.1725,4.1916,4.2121,4.2422,4.2616,4.2789,4.3069,4.2366,4.181,4.181,4.103,4.0441,4.0311,4.0286,4.0254,4.0096,4.0096,4.0096,4.0096,4.0096,4.0171,4.0286,4.0286,4.0429,4.0771,4.0771,4.0881,4.1053,4.1053,4.1053,4.107,4.1644,4.1901,3.5577,3.5717,3.5979,3.7297,3.7763,3.8054,3.8493,3.8007,3.7867,3.9148,3.9993,4.0514,4.0681,4.3796,4.665,4.7605,4.969,5.0776,0.0,0.0,0.0,0.0,0.0,0.0,0.0,0.0,0.0,0.0,0.0,0.0,0.0,0.0,0.0,0.0,0.0,3.8505,4.1621,4.5908,4.6414,4.3158,4.0697,3.5832,2.8757,2.3435,1.9088,1.5772,1.8163,2.1523,2.5921,3.3767,3.8418,4.0863,4.3551,4.4615,4.4615,4.4615,4.4615,4.4615,4.4615,4.3599,4.2286,4.2286,4.1314,4.0096,4.0096,4.0096,4.0096,4.0096,4.0096,4.0096,4.0096,4.0096,4.0229,4.0709,4.0833,4.0995,4.1599,4.1746,4.175,4.1789,4.2262,4.248,4.1958,4.2322,4.2519,4.2,4.1853,4.181,4.181,4.1746,4.1468,4.0903,4.0833,4.0631,4.0146,4.0096,4.0096,4.0096,4.0096,4.0336,4.0827,4.0833,4.1464,4.2767,4.2789,4.316,4.3907,4.3907,4.3907,4.3907,4.3961,4.3978,3.546,3.559,3.5722,3.6675,3.7215,3.78,3.8792,3.8841,3.9035,4.0367,4.088,4.1107,4.1128,4.3207,4.5341,4.6633,4.8808,0.0,0.0,0.0,0.0,0.0,0.0,0.0,0.0,0.0,0.0,0.0,0.0,0.0,0.0,0.0,0.0,0.0,0.0,3.7933,4.1549,4.5519,4.7032,4.6161,4.3676,3.9352,3.3315,2.6986,2.235,1.9184,1.8433,2.1164,2.6505,3.166,3.6404,4.068,4.3492,4.5062,4.5656,4.5294,4.5399,4.5707,4.5707,4.4506,4.291,4.291,4.1639,4.0096,4.0096,4.0096,4.0096,4.0096,4.0096,4.0096,4.0096,4.0096,4.0229,4.078,4.0903,4.1178,4.2142,4.2362,4.2462,4.2791,4.3032,4.3124,4.2903,4.3051,4.3124,4.2903,4.258,4.2362,4.2362,4.2021,4.1707,4.149,4.1133,4.0972,4.1127,4.0821,4.075,4.1127,4.0797,4.0679,4.088,4.1728,4.2467,4.2987,4.3487,4.3895,4.4201,4.4201,4.4201,4.4219,4.4675,4.4888,3.5129,3.5214,3.5415,3.6265,3.6941,3.7823,3.9364,3.9723,4.0113,4.1452,4.1572,4.1482,4.1692,4.2744,0.0,0.0,0.0,0.0,0.0,0.0,0.0,0.0,0.0,0.0,0.0,0.0,0.0,0.0,0.0,0.0,0.0,0.0,0.0,0.0,0.0,3.7135,4.1199,4.4921,4.7375,4.8529,4.6804,4.3129,3.762,3.1077,2.5988,2.2241,2.0229,2.181,2.6099,3.0609,3.6075,4.1804,4.4011,4.5511,4.6359,4.594,4.6063,4.6354,4.6124,4.4929,4.3487,4.3062,4.1763,4.0336,4.0146,4.0096,4.0096,4.0096,4.0096,4.0096,4.0096,4.0096,4.0286,4.1013,4.1161,4.1495,4.2694,4.2958,4.305,4.3427,4.3515,4.3515,4.3515,4.3515,4.3515,4.3515,4.3196,4.2958,4.2958,4.2599,4.2266,4.2101,4.1534,4.1358,4.175,4.1657,4.173,4.2164,4.2203,4.211,4.1859,4.3016,4.3849,4.4306,4.4845,4.524,4.5473,4.5473,4.5473,4.5512,4.6008,4.6259,3.4512,3.4516,3.4833,3.6181,3.6956,3.7943,3.9933,4.0397,4.0786,4.2141,4.1886,4.1632,4.2276,4.2661,0.0,4.4952,0.0,0.0,0.0,0.0,0.0,0.0,0.0,0.0,0.0,0.0,0.0,0.0,0.0,0.0,0.0,0.0,0.0,0.0,0.0,0.0,4.0639,4.4387,4.7407,4.968,4.9959,4.7056,4.1247,3.5636,2.9836,2.4256,2.3666,2.3374,2.3808,3.1028,3.8026,4.4298,4.5181,4.5865,4.643,4.6407,4.6413,4.6307,4.5487,4.4726,4.3875,4.2549,4.1579,4.0803,4.0262,4.0096,4.0113,4.0096,4.0096,4.0096,4.0096,4.0096,4.0385,4.153,4.181,4.2124,4.3249,4.3497,4.3515,4.3515,4.3515,4.3515,4.3515,4.3496,4.3496,4.3496,4.3515,4.3515,4.3515,4.3496,4.3303,4.2769,4.2162,4.181,4.181,4.2544,4.3009,4.3026,4.4345,4.4757,4.3942,4.4702,4.5738,4.7057,4.7113,4.7498,4.8306,4.8306,4.8306,4.8306,4.8306,4.8306,3.5284,3.5243,3.54,3.6265,3.7659,3.894,3.9574,4.0427,4.1459,4.2776,4.3054,4.3174,4.3337,4.4006,0.0,0.0,0.0,0.0,0.0,0.0,0.0,0.0,0.0,0.0,0.0,0.0,0.0,0.0,0.0,0.0,0.0,0.0,0.0,0.0,0.0,0.0,3.9139,4.2915,4.5911,4.8025,4.953,4.8244,4.4403,3.9478,3.4716,3.024,2.7187,2.6888,2.9071,3.5722,4.1024,4.4931,4.5347,4.6425,4.7697,4.7259,4.7003,4.6864,4.6628,4.5409,4.3873,4.3492,4.2534,4.1424,4.0827,4.0655,4.0577,4.0204,4.0096,4.0096,4.0096,4.0368,4.075,4.1087,4.149,4.2,4.277,4.3232,4.3515,4.3515,4.3515,4.3515,4.3515,4.3712,4.3849,4.3849,4.4091,4.4165,4.3896,4.3849,4.3707,4.3303,4.2384,4.2171,4.3133,4.3077,4.339,4.4339,4.5736,4.5983,4.4775,4.589,4.6687,4.7094,4.7663,4.8067,4.8306,4.8306,4.8306,4.8306,4.8306,4.8306,3.6761,3.6637,3.6569,3.7532,3.8596,3.9559,4.0083,4.0816,4.1609,4.2402,4.2763,4.3159,4.3686,4.4318,0.0,0.0,0.0,0.0,0.0,0.0,0.0,0.0,0.0,0.0,0.0,0.0,0.0,0.0,0.0,0.0,0.0,0.0,0.0,0.0,0.0,0.0,3.7855,4.1477,4.4441,4.6765,4.889,4.9136,4.7584,4.3572,3.9276,3.4801,3.1182,3.1059,3.376,3.8832,4.2602,4.5225,4.5695,4.6864,4.8267,4.7897,4.7484,4.7058,4.6727,4.557,4.4139,4.3602,4.2857,4.2041,4.1446,4.1268,4.1133,4.0594,4.0594,4.072,4.0473,4.0844,4.1201,4.0949,4.1358,4.1958,4.2577,4.2958,4.325,4.3444,4.3515,4.3548,4.3679,4.3865,4.4043,4.4204,4.4447,4.4441,4.4043,4.4001,4.3783,4.3232,4.283,4.2825,4.3391,4.3725,4.4341,4.541,4.6573,4.6968,4.6379,4.7145,4.7571,4.7571,4.8048,4.8306,4.8306,4.8306,4.8306,4.8306,4.8306,4.8306,3.8447,3.8261,3.8028,3.9377,3.9603,3.9828,4.101,4.1294,4.1347,4.1407,4.1693,4.2315,4.3578,4.4113,0.0,0.0,0.0,0.0,0.0,0.0,0.0,0.0,0.0,0.0,0.0,0.0,0.0,0.0,0.0,0.0,0.0,0.0,0.0,0.0,0.0,0.0,3.6693,3.994,4.2918,0.0,4.796,4.9546,5.0291,4.7414,4.3301,3.8309,3.562,3.5721,3.8017,4.0842,4.3356,4.5471,4.6217,4.7183,4.8196,4.8196,4.7626,4.6782,4.6049,4.5259,4.4399,4.3175,4.2769,4.2674,4.2062,4.1874,4.1768,4.1155,4.138,4.1664,4.1133,4.1424,4.1729,4.1133,4.1446,4.2021,4.2577,4.275,4.292,4.341,4.3515,4.3614,4.394,4.4028,4.4204,4.4631,4.4676,4.4514,4.4121,4.3982,4.3638,4.2879,4.3314,4.3477,4.305,4.4334,4.5412,4.609,4.6924,4.7635,4.8191,4.8267,4.8306,4.8306,4.8306,4.8306,4.8306,4.8306,4.8306,4.8306,4.8306,4.8306,3.7959,3.8308,3.8811,3.953,3.9954,4.0262,4.0546,4.0606,4.0756,4.1265,4.2556,4.3677,4.3963,4.5211,0.0,0.0,0.0,0.0,0.0,0.0,0.0,0.0,0.0,0.0,0.0,0.0,0.0,0.0,0.0,0.0,0.0,0.0,0.0,0.0,0.0,3.4571,3.5171,3.7863,4.042,0.0,4.5904,4.8172,4.9524,4.8275,4.5334,4.1205,4.0691,4.0816,4.1621,4.3625,4.5436,4.6945,4.7132,4.7254,4.7351,4.7351,4.6452,4.5186,4.5021,4.4433,4.37,4.3429,4.3339,4.3232,4.2656,4.25,4.2382,4.1789,4.1686,4.1771,4.1643,4.2041,4.2342,4.175,4.208,4.2539,4.2655,4.3032,4.3375,4.3479,4.3515,4.3614,4.394,4.4261,4.4682,4.5283,4.515,4.4872,4.4527,4.3828,4.341,4.3543,4.289,4.287,4.3902,4.4359,4.4893,4.5603,4.6753,4.7449,4.7593,4.8055,4.8306,4.8306,4.8306,4.8306,4.8306,4.8306,4.8306,4.8306,4.8306,4.8306,3.8722,3.9388,4.0034,4.0642,4.0995,4.104,4.0649,4.0881,4.1148,4.1092,4.1829,4.2697,4.3484,0.0,0.0,0.0,0.0,0.0,0.0,0.0,0.0,0.0,0.0,0.0,0.0,0.0,0.0,0.0,0.0,0.0,0.0,3.758,0.0,0.0,3.4938,3.4705,3.4705,3.6385,3.7972,3.9408,4.2609,4.5389,4.7731,4.8052,4.6914,4.4666,4.422,4.3821,4.3596,4.4734,4.5632,4.6248,4.6248,4.6357,4.6544,4.6544,4.5737,4.4691,4.4691,4.4176,4.3515,4.3515,4.3515,4.3444,4.3178,4.3069,4.2958,4.2402,4.2404,4.2542,4.2284,4.2774,4.3228,4.2923,4.2774,4.2711,4.2711,4.292,4.3196,4.3444,4.3515,4.3662,4.4209,4.4726,4.514,4.5332,4.5211,4.4943,4.4498,4.4028,4.3668,4.3527,4.3301,4.3354,4.3836,4.4257,4.4775,4.5468,4.6112,4.6774,4.7385,4.7715,4.7997,4.8287,4.8306,4.8306,4.8306,4.8306,4.8306,4.8306,4.8306,4.8306,3.9208,4.0254,4.1164,4.1862,4.2013,4.1772,4.0939,4.1288,4.1565,4.0718,4.0756,4.1319,0.0,0.0,0.0,0.0,0.0,0.0,0.0,0.0,0.0,0.0,0.0,0.0,0.0,0.0,0.0,0.0,0.0,0.0,3.9262,3.9155,3.8318,3.6526,3.5386,3.471,3.4559,3.5115,3.5569,3.5933,3.8982,4.1984,4.4941,4.6587,4.7354,4.7321,4.6396,4.548,4.4711,4.5143,4.5247,4.516,4.516,4.5381,4.5681,4.5681,4.5186,4.4488,4.4488,4.4066,4.3515,4.3515,4.3515,4.3515,4.3515,4.3515,4.341,4.2958,4.316,4.3392,4.2958,4.342,4.4001,4.4001,4.3485,4.3032,4.3032,4.2977,4.3105,4.3678,4.3911,4.4182,4.481,4.543,4.5744,4.546,4.5276,4.5001,4.4559,4.4272,4.3932,4.3451,4.3845,4.4009,4.3633,4.4215,4.4814,4.532,4.5433,4.6032,4.7172,4.7342,4.7677,4.8287,4.8306,4.8306,4.8306,4.8306,4.8344,4.8402,4.8402,4.8402,3.7202,3.9087,4.1194,4.1989,4.2098,4.1805,4.1056,4.096,4.0847,0.0,4.0928,0.0,0.0,0.0,0.0,0.0,0.0,0.0,0.0,0.0,0.0,0.0,0.0,0.0,0.0,0.0,0.0,0.0,0.0,0.0,3.94,3.9379,3.8789,3.7625,3.6091,3.4881,3.3925,3.3582,3.3297,3.3155,3.6261,3.8689,4.0526,4.2809,4.4974,4.6871,4.6501,4.597,4.5385,4.5679,4.579,4.5792,4.5792,4.5407,4.4874,4.4874,4.436,4.3644,4.3644,4.3589,4.3515,4.3515,4.3515,4.3515,4.3515,4.3515,4.3497,4.341,4.3444,4.3479,4.341,4.3691,4.4001,4.4001,4.419,4.4359,4.4359,4.4069,4.4048,4.4819,4.5544,4.6041,4.6137,4.651,4.6792,4.6739,4.6004,4.542,4.5352,4.4178,4.3548,4.411,4.3774,4.3773,4.4395,4.4547,4.4626,4.472,4.5205,4.5808,4.6501,4.7088,4.7677,4.8287,4.8306,4.8306,4.8306,4.8306,4.8477,4.883,4.883,4.883,3.7574,3.9253,4.0769,4.1949,4.2214,4.1972,4.1127,4.1327,4.1449,4.0655,4.0989,0.0,0.0,0.0,0.0,0.0,0.0,0.0,0.0,0.0,0.0,0.0,0.0,0.0,0.0,0.0,0.0,0.0,0.0,4.0311,3.9069,3.9703,3.9345,3.762,3.6151,3.4983,3.4151,3.218,3.0954,3.0417,3.2243,3.3492,3.4328,3.6846,4.0909,4.5943,4.5717,4.5341,4.4892,4.482,4.4505,4.4143,4.4454,4.4342,4.403,4.403,4.3791,4.3515,4.3515,4.3515,4.3515,4.3515,4.3515,4.3515,4.3515,4.3515,4.3515,4.3515,4.3515,4.3515,4.3515,4.3915,4.435,4.435,4.475,4.5295,4.5791,4.5426,4.5194,4.5811,4.5912,4.5998,4.6341,4.6047,4.5854,4.612,4.5398,4.4947,4.5279,4.4741,4.4622,4.5387,4.4958,4.4712,4.5081,4.4786,4.4615,4.4615,4.4841,4.5284,4.5865,4.6501,4.7132,4.7777,4.8132,4.8306,4.8306,4.8306,4.8513,4.8897,4.8897,4.8897,3.7415,3.8954,4.0146,4.1433,4.2016,4.2085,4.125,4.1563,4.1772,0.0,0.0,0.0,0.0,0.0,0.0,0.0,0.0,0.0,0.0,0.0,0.0,0.0,0.0,0.0,0.0,0.0,0.0,0.0,0.0,3.9467,3.8088,3.8732,3.8407,3.6731,3.5335,3.4361,3.3858,3.0586,2.8555,2.7701,2.8014,2.8299,2.8627,3.0778,3.5072,4.088,4.2072,4.2668,4.2788,4.2729,4.2698,4.275,4.3142,4.3375,4.3479,4.3357,4.3392,4.3479,4.3339,4.3392,4.3515,4.3515,4.3515,4.3515,4.3515,4.3515,4.3515,4.3515,4.3515,4.3515,4.3515,4.3958,4.4447,4.4447,4.5141,4.5956,4.6609,4.6561,4.6483,4.6754,4.6209,4.5846,4.6299,4.5398,4.4838,4.5381,4.4805,4.4607,4.5397,4.5358,4.5564,4.6312,4.6014,4.5732,4.5732,4.5178,4.4841,4.4841,4.4665,4.4934,4.5681,4.6167,4.6778,4.7614,4.8075,4.8306,4.8306,4.8402,4.8657,4.9043,4.9155,4.9155,3.5346,3.7381,3.9225,4.0028,4.128,4.2117,4.1354,4.1229,4.1052,4.0299,0.0,0.0,0.0,0.0,0.0,0.0,0.0,0.0,0.0,0.0,0.0,0.0,0.0,0.0,0.0,0.0,0.0,0.0,0.0,3.7088,3.6185,3.5376,3.4873,3.4757,3.3184,3.2347,3.2308,2.8542,2.6113,2.4978,2.3874,2.3849,2.4699,2.5502,2.6848,2.8895,3.3851,3.6934,3.8478,3.9173,4.0725,4.2693,4.2731,4.305,4.3427,4.292,4.305,4.3427,4.292,4.3069,4.3515,4.3515,4.3515,4.3515,4.3515,4.3515,4.3515,4.3515,4.3515,4.3515,4.3515,4.3756,4.4028,4.4028,4.5179,4.6274,4.6312,4.7245,4.7997,4.769,4.6893,4.6261,4.6302,4.5143,4.4467,4.5204,4.4799,4.4862,4.6159,4.5838,4.5705,4.6318,4.6383,4.6359,4.6359,4.5808,4.5459,4.5459,4.4906,4.5142,4.6312,4.6383,4.6981,4.823,4.8287,4.8306,4.8306,4.8675,4.9094,4.9475,4.9853,4.9827,3.4624,3.6197,3.7777,3.8497,3.9428,4.0104,3.9851,4.0138,4.0434,4.0146,0.0,0.0,0.0,0.0,0.0,0.0,0.0,0.0,0.0,0.0,0.0,0.0,0.0,0.0,0.0,0.0,0.0,0.0,0.0,0.0,3.3845,3.4311,3.4196,3.3356,3.2576,3.1331,2.9591,2.7522,2.5933,2.4787,2.3641,2.245,2.1281,2.2332,2.2673,2.2648,2.6007,3.0111,3.4543,3.6722,3.8511,4.0096,4.1541,4.2244,4.2404,4.2203,4.2226,4.2366,4.2203,4.2501,4.2976,4.2976,4.3214,4.3515,4.3515,4.3515,4.3515,4.3515,4.3515,4.3515,4.3515,4.4128,4.4972,4.5752,4.6941,4.7888,4.7888,4.765,4.7556,4.8006,4.636,4.5018,4.5454,4.405,4.3115,4.3914,4.3395,4.3589,4.544,4.5523,4.5934,4.7458,4.7281,4.7044,4.7044,4.6454,4.6088,4.6088,4.5865,4.594,4.6383,4.6801,4.7259,4.7697,4.8094,4.8306,4.8306,4.8692,4.9108,4.9504,4.9911,5.0012,3.426,3.5805,3.7502,3.8258,3.8786,3.9284,3.9823,4.0115,4.0332,4.0614,0.0,0.0,0.0,0.0,0.0,0.0,0.0,0.0,0.0,0.0,0.0,0.0,0.0,0.0,0.0,0.0,0.0,0.0,0.0,0.0,3.2155,3.2305,3.202,3.1127,3.0918,2.9939,2.8136,2.74,2.6284,2.4787,2.3641,2.1826,1.9488,1.9898,1.967,1.8993,2.098,2.54,3.141,3.4049,3.6421,3.8566,4.0403,4.1394,4.1789,4.1578,4.1621,4.1771,4.1578,4.1895,4.2382,4.2382,4.2789,4.3232,4.3232,4.3357,4.3515,4.3515,4.3515,4.3515,4.3515,4.4252,4.5342,4.6562,4.7756,4.8738,4.9141,4.8288,4.7612,4.8192,4.5828,4.3877,4.4319,4.2745,4.1697,4.2479,4.2144,4.2542,4.4622,4.5131,4.597,4.7714,4.7773,4.7715,4.7715,4.711,4.6751,4.6751,4.6524,4.6501,4.6733,4.7172,4.7509,4.7695,4.8233,4.8495,4.8495,4.8897,4.9311,4.9719,5.0104,5.0237,0.0,0.0,0.0,3.9244,3.9398,3.9764,4.1365,0.0,4.0813,0.0,0.0,0.0,0.0,0.0,0.0,0.0,0.0,0.0,0.0,0.0,0.0,0.0,0.0,0.0,0.0,0.0,0.0,0.0,0.0,3.1217,3.1217,2.9241,2.8136,2.8136,2.8136,2.8136,2.8136,2.8136,2.7012,2.4872,2.3657,2.185,1.9579,1.8365,1.7824,1.787,1.9039,2.311,2.9038,3.1191,3.4511,3.8354,3.9369,4.0565,4.1643,4.1087,4.1246,4.1664,4.1087,4.1268,4.1771,4.1771,4.2183,4.2711,4.2711,4.3069,4.3515,4.3515,4.3515,4.3515,4.355,4.4139,4.507,4.6262,4.7481,4.8662,4.9802,4.9111,4.8282,4.8282,4.5406,4.2973,4.2973,4.1375,4.0375,4.1068,4.117,4.1859,4.3807,4.4754,4.572,4.6944,4.7791,4.8269,4.8306,4.7756,4.7428,4.7428,4.6819,4.6733,4.7406,4.7428,4.7715,4.8306,4.871,4.8913,4.8947,4.9326,4.9719,5.0104,5.0493,5.0472,3.4706,0.0,0.0,0.0,0.0,0.0,0.0,0.0,0.0,0.0,0.0,0.0,0.0,0.0,0.0,0.0,0.0,0.0,0.0,0.0,0.0,0.0,0.0,0.0,0.0,0.0,0.0,0.0,3.289,3.1924,3.1254,2.9241,2.8478,2.9314,2.8518,2.8518,2.9326,2.8505,2.7792,2.7174,2.5209,2.3484,2.1982,2.0819,2.0305,2.0305,2.0666,2.2776,2.6196,2.9553,3.2581,3.5332,3.8091,3.9389,3.9733,4.0161,4.0417,4.0563,4.0368,4.0679,4.1155,4.1155,4.1853,4.2711,4.2711,4.3069,4.3515,4.3515,4.3515,4.3693,4.4527,4.5366,4.6278,4.7466,4.8699,4.9518,4.9229,4.8431,4.7713,4.7467,4.4917,4.2644,4.2214,4.1318,4.0638,4.0417,4.0417,4.0982,4.2538,4.3251,4.4392,4.6327,4.7068,4.7663,4.8251,4.8152,4.8055,4.8055,4.7879,4.7858,4.8055,4.8055,4.8252,4.8728,4.8829,4.9187,4.9773,4.9885,4.9987,5.0092,5.0206,5.0056,3.5723,3.695,3.8329,3.8329,0.0,0.0,0.0,4.038,0.0,0.0,0.0,0.0,0.0,0.0,0.0,0.0,0.0,0.0,0.0,0.0,0.0,0.0,0.0,0.0,0.0,0.0,0.0,3.3993,3.3136,3.215,3.1175,2.9578,2.8995,2.964,2.8639,2.8648,2.9792,2.9157,2.8557,2.8084,2.6808,2.5062,2.2978,2.2309,2.1763,2.1311,2.1293,2.2644,2.5052,2.8147,3.0887,3.3416,3.6592,3.8277,3.8989,3.9808,4.0096,4.0096,4.0096,4.0311,4.0577,4.0577,4.1196,4.2018,4.2262,4.2714,4.3214,4.3427,4.3597,4.3851,4.4516,4.5443,4.6386,4.7038,4.8118,4.8879,4.8372,4.7632,4.6953,4.663,4.4594,4.2662,4.1919,4.1313,4.0726,4.0179,4.0096,4.0481,4.1514,4.2247,4.3461,4.556,4.6394,4.7177,4.8213,4.8306,4.8306,4.8306,4.8306,4.8306,4.8306,4.8306,4.8402,4.8639,4.8812,4.9199,4.984,5.0031,5.0092,5.0092,5.0092,4.9866,3.7226,3.8565,4.001,3.9918,3.9955,0.0,4.1735,4.1479,4.1405,0.0,0.0,0.0,0.0,0.0,0.0,0.0,0.0,0.0,0.0,0.0,0.0,0.0,0.0,0.0,0.0,3.4795,3.425,3.4177,3.3366,3.251,3.1636,3.0436,2.9783,2.9809,2.8802,2.8703,2.9585,2.9753,2.9236,2.8096,2.8096,2.6517,2.3584,2.3335,2.2635,2.1676,2.1525,2.2698,2.4777,2.6746,2.9315,3.2277,3.5235,3.7369,3.8897,3.9782,4.0096,4.0096,4.0096,4.0146,4.0179,4.0179,4.0601,4.1201,4.1746,4.2322,4.2902,4.3409,4.3772,4.4013,4.4102,4.4993,4.5865,4.5904,4.6769,4.753,4.74,4.6801,4.6161,4.5695,4.4339,4.2976,4.1985,4.1358,4.0797,4.0179,4.0096,4.0262,4.0733,4.1631,4.2893,4.4808,4.5763,4.6842,4.8194,4.8306,4.8306,4.8306,4.8306,4.8306,4.8306,4.8306,4.8325,4.8364,4.8761,4.9139,4.9489,4.9853,5.0043,5.0031,4.9987,4.9773,3.9363,4.0056,4.0726,4.0065,0.0,0.0,4.0432,4.0249,4.0414,0.0,0.0,0.0,0.0,0.0,0.0,0.0,0.0,0.0,0.0,0.0,0.0,0.0,0.0,0.0,0.0,3.6198,3.585,3.5264,3.4904,3.4887,3.5311,3.2976,3.1653,3.1739,3.0124,2.8971,2.8426,2.9326,2.9236,2.8096,2.8096,2.7752,2.703,2.5251,2.4341,2.4061,2.3139,2.2994,2.3551,2.4851,2.7711,3.1559,3.5058,3.7062,3.8177,3.9584,4.0096,4.0096,4.0096,4.0392,4.0733,4.0733,4.1468,4.2362,4.248,4.2902,4.3426,4.3786,4.3955,4.4132,4.4726,4.5532,4.6275,4.6615,4.7357,4.7721,4.6735,4.6404,4.5919,4.4599,4.4075,4.3413,4.2047,4.1686,4.1286,4.0254,4.0096,4.0146,4.0254,4.1353,4.2701,4.4218,4.5494,4.6783,4.8175,4.8306,4.8306,4.8306,4.8306,4.8306,4.8306,4.8306,4.8458,4.8779,4.9171,4.9416,4.9489,4.9575,4.9622,4.9603,4.9276,4.9092,4.0559,4.1093,4.1515,4.0708,0.0,0.0,0.0,4.0194,4.023,4.146,0.0,0.0,0.0,0.0,0.0,0.0,0.0,0.0,0.0,0.0,0.0,0.0,0.0,0.0,0.0,3.7347,3.7055,3.6662,3.6553,3.6792,3.7473,3.5443,3.4229,3.4196,3.2064,3.0475,2.9667,2.9741,2.9495,2.8937,2.8937,2.8636,2.8044,2.693,2.5859,2.4787,2.4211,2.3637,2.3222,2.4925,2.7175,2.9821,3.3461,3.6045,3.7978,3.9532,4.0096,4.0096,4.0096,4.0449,4.0903,4.0903,4.1512,4.2302,4.2616,4.3069,4.3531,4.3693,4.402,4.4373,4.4745,4.5412,4.5994,4.6194,4.6567,4.6693,4.609,4.5814,4.543,4.4476,4.4132,4.3531,4.205,4.181,4.142,4.0279,4.0096,4.0231,4.0595,4.1231,4.2346,4.4125,4.5164,4.6331,4.7725,4.8132,4.8306,4.8306,4.8306,4.8306,4.8306,4.8306,4.8383,4.8604,4.8796,4.8915,4.8915,4.8915,4.8996,4.9202,4.8978,4.8796,0.0,0.0,0.0,0.0,0.0,4.1205,0.0,0.0,0.0,4.1368,0.0,0.0,0.0,0.0,0.0,0.0,0.0,0.0,0.0,0.0,0.0,0.0,0.0,0.0,0.0,3.8075,3.7719,3.7991,3.7988,3.8308,3.8999,3.7894,3.6986,3.6566,3.4247,3.2415,3.1125,3.0418,2.9882,2.9495,2.9714,2.9326,2.8426,2.8215,2.7145,2.541,2.521,2.4595,2.3887,2.5724,2.718,2.8538,3.2055,3.4986,3.7496,3.9059,3.9653,3.9679,3.9808,4.0317,4.0874,4.1024,4.1538,4.2206,4.2713,4.316,4.3513,4.358,4.402,4.4501,4.458,4.5,4.5429,4.5495,4.5504,4.5504,4.5504,4.5302,4.4977,4.4567,4.4219,4.3531,4.205,4.181,4.142,4.0279,4.0096,4.0383,4.1119,4.1322,4.2184,4.4187,4.5075,4.6015,4.7288,4.7957,4.8306,4.8306,4.8306,4.8306,4.8306,4.8306,4.8306,4.8306,4.8306,4.8306,4.8306,4.8306,4.8477,4.8796,4.8796,4.8622,0.0,0.0,0.0,0.0,4.1644,0.0,0.0,0.0,3.9753,3.9221,0.0,0.0,0.0,0.0,0.0,0.0,0.0,0.0,0.0,0.0,0.0,0.0,0.0,0.0,0.0,0.0,3.7371,3.8668,3.8661,3.9197,4.0582,4.0315,3.952,3.8177,3.6519,3.4079,3.0781,3.0974,3.0114,2.8307,2.9326,2.974,2.9573,2.8557,2.7964,2.7671,2.6719,2.6224,2.6141,2.6389,2.7624,2.9605,3.2577,3.4449,3.57,3.7422,3.8064,3.8149,3.8816,3.975,4.0735,4.1481,4.2426,4.3321,4.3392,4.3444,4.3546,4.3865,4.4001,4.4146,4.4514,4.4644,4.4781,4.5085,4.5169,4.5169,4.5169,4.5137,4.4908,4.4204,4.4028,4.3531,4.205,4.181,4.142,4.0279,4.0096,4.0383,4.1119,4.1762,4.2746,4.4239,4.5526,4.6598,4.7342,4.7957,4.8306,4.8306,4.8306,4.8306,4.8306,4.8306,4.8306,4.8306,4.8306,4.8306,4.8306,4.8306,4.8307,4.8364,4.8364,4.8345,0.0,0.0,0.0,0.0,0.0,0.0,3.9735,0.0,3.9239,0.0,0.0,0.0,0.0,0.0,0.0,0.0,0.0,0.0,0.0,0.0,0.0,0.0,0.0,0.0,0.0,0.0,0.0,0.0,0.0,3.9617,4.1327,4.1,4.0444,3.9693,3.7762,3.5384,3.2521,3.1648,3.0481,2.9106,3.0139,3.0317,2.9792,2.9871,2.9241,2.8084,2.7602,2.7087,2.6554,2.7168,2.794,2.8919,3.1343,3.3465,3.5415,3.7156,3.7793,3.7835,3.8133,3.9096,4.0367,4.1842,4.2637,4.3032,4.3032,4.3032,4.2995,4.2775,4.285,4.3043,4.321,4.3664,4.4121,4.4253,4.4699,4.5096,4.5096,4.5096,4.5,4.4701,4.4285,4.3594,4.2307,4.1932,4.142,4.0279,4.0096,4.0519,4.1677,4.21,4.2877,4.4373,4.5329,4.5989,4.6281,4.6847,4.7198,4.7198,4.7554,4.7777,4.7777,4.8114,4.8306,4.8306,4.8306,4.8306,4.8306,4.7937,4.7777,4.7777,4.8152,4.8306,4.3462,0.0,0.0,0.0,0.0,0.0,0.0,0.0,0.0,0.0,0.0,0.0,0.0,0.0,0.0,0.0,0.0,0.0,0.0,0.0,0.0,0.0,0.0,0.0,0.0,0.0,0.0,0.0,0.0,0.0,4.1459,4.1273,4.1,4.0701,3.8669,3.6599,3.4515,3.2828,3.1513,3.057,3.1267,3.123,3.057,3.1007,3.0367,2.8942,2.8664,2.8108,2.7464,2.8509,2.8797,2.8782,3.0781,3.263,3.4309,3.6106,3.6918,3.7205,3.7397,3.8482,4.0073,4.1623,4.2268,4.246,4.246,4.2306,4.2032,4.1598,4.1503,4.1535,4.1535,4.2039,4.2628,4.2941,4.3651,4.4373,4.4775,4.4984,4.5096,4.5096,4.46,4.3813,4.2741,4.2143,4.142,4.0279,4.0096,4.057,4.183,4.2168,4.2794,4.4113,4.5005,4.5511,4.5511,4.6046,4.6407,4.6407,4.6864,4.7216,4.7385,4.7818,4.8132,4.8287,4.8306,4.821,4.8055,4.7614,4.732,4.715,4.7593,4.7879,0.0,0.0,0.0,4.1534,0.0,0.0,0.0,0.0,3.9643,0.0,0.0,0.0,0.0,0.0,3.9648,3.9648,0.0,0.0,0.0,0.0,0.0,0.0,0.0,0.0,0.0,0.0,0.0,0.0,0.0,0.0,4.088,4.1468,4.1512,4.0926,3.9369,3.781,3.6322,3.4728,3.3449,3.25,3.2522,3.2522,3.25,3.1609,3.1167,3.1068,3.0126,2.9714,2.9779,3.072,3.0582,2.9921,3.1829,3.2055,3.1559,3.3435,3.4743,3.5683,3.6384,3.8032,3.9883,4.0486,4.1182,4.1832,4.1832,4.1266,4.066,4.0637,4.013,3.9595,3.9595,3.9602,3.9915,4.1022,4.1699,4.2502,4.3909,4.4683,4.5096,4.5096,4.4825,4.4294,4.3321,4.2416,4.142,4.0279,4.0096,4.0383,4.1136,4.1863,4.2591,4.3341,4.4679,4.5511,4.5511,4.6046,4.6407,4.6407,4.643,4.671,4.7363,4.7406,4.7715,4.8287,4.8306,4.8015,4.7428,4.7406,4.7084,4.643,4.6454,4.6801,0.0,0.0,4.3239,4.2158,0.0,0.0,0.0,0.0,0.0,0.0,0.0,0.0,0.0,0.0,3.9414,3.987,4.0349,0.0,0.0,0.0,0.0,0.0,0.0,0.0,0.0,0.0,0.0,0.0,0.0,0.0,0.0,4.056,4.0153,3.9412,3.8395,3.7126,3.5638,3.4559,3.3518,3.2593,3.3241,3.3206,3.2593,3.2285,3.1779,3.1143,3.0216,3.0139,3.0758,3.1068,3.1402,3.1659,3.1683,3.1852,3.2285,3.3518,3.4211,3.4728,3.6104,3.7097,3.7959,3.9539,3.9897,3.9781,4.0299,3.9914,3.9183,3.8844,3.8581,3.8362,3.8362,3.8644,3.9004,3.9396,4.0495,4.1701,4.2554,4.3509,4.4352,4.4981,4.4612,4.4061,4.3621,4.2574,4.1534,4.075,4.0336,4.0383,4.1119,4.1424,4.1847,4.2591,4.3535,4.4112,4.4112,4.4797,4.5205,4.5205,4.5571,4.5908,4.6136,4.6932,4.7509,4.7715,4.8094,4.7997,4.7406,4.6955,4.6407,4.5808,4.5381,4.5757,4.2322,4.2619,0.0,4.1905,4.1307,0.0,3.9788,0.0,0.0,0.0,0.0,0.0,0.0,0.0,0.0,4.0053,4.0038,4.0013,0.0,4.0921,0.0,0.0,0.0,0.0,0.0,0.0,4.1169,4.1814,0.0,0.0,0.0,0.0,3.9123,3.8329,3.7569,3.6702,3.5714,3.4901,3.4225,3.365,3.4259,3.4225,3.3616,3.2925,3.2285,3.1646,3.0355,3.0317,3.1217,3.1573,3.2069,3.2522,3.1924,3.1852,3.2177,3.2784,3.3415,3.4148,3.5292,3.6089,3.6828,3.8212,3.851,3.8428,3.8937,3.8537,3.7826,3.7467,3.716,3.6981,3.6981,3.7243,3.7553,3.7838,3.91,4.0473,4.1239,4.2523,4.374,4.4467,4.4275,4.3945,4.383,4.2869,4.1853,4.1018,4.0424,4.0282,4.0747,4.1035,4.139,4.1863,4.2811,4.3511,4.3809,4.4282,4.4615,4.4615,4.4663,4.4949,4.5485,4.5975,4.6523,4.7021,4.7656,4.7572,4.6728,4.6501,4.5989,4.5152,4.4786,4.5025]}]]